Mi HomeGuard - helping people stay independent longer.


Humidity


Temperature

Click to expand sensor readings.

Tue Apr 07 14:06:31

Lowest: 66%

s1 Conserv HT
Tue Apr 7 13:56, 48.4% 20.0c

Tue Apr 7 13:56, 48.4% 20.0c
Tue Apr 7 13:19, 47.6% 20.3c
Tue Apr 7 12:26, 47.3% 20.6c
Tue Apr 7 11:33, 49.0% 20.4c
Tue Apr 7 11:00, 50.0% 20.5c
Tue Apr 7 10:54, 51.8% 21.0c
Tue Apr 7 10:49, 57.9% 21.1c
Tue Apr 7 10:43, 58.0% 20.6c
Tue Apr 7 10:39, 58.1% 20.1c
Tue Apr 7 10:36, 57.9% 19.7c
Tue Apr 7 10:35, 57.9% 19.6c
Tue Apr 7 10:32, 57.8% 19.1c
Tue Apr 7 10:29, 57.6% 18.5c
Tue Apr 7 10:27, 57.4% 18.0c
Tue Apr 7 10:24, 57.4% 17.5c
Tue Apr 7 10:22, 57.5% 17.0c
Tue Apr 7 10:20, 57.4% 16.5c
Tue Apr 7 09:47, 58.4% 16.0c
Tue Apr 7 09:45, 58.9% 16.2c
Tue Apr 7 09:36, 64.4% 16.0c
Tue Apr 7 09:23, 65.0% 15.5c
Tue Apr 7 09:12, 65.3% 15.0c
Tue Apr 7 08:57, 64.5% 14.4c
Tue Apr 7 08:46, 61.2% 13.9c
Tue Apr 7 08:44, 61.2% 13.9c
Tue Apr 7 08:27, 61.2% 13.4c
Tue Apr 7 08:06, 61.6% 12.9c
Tue Apr 7 07:50, 61.9% 12.6c
Tue Apr 7 06:58, 62.2% 12.3c
Tue Apr 7 06:07, 62.4% 12.4c
Tue Apr 7 06:04, 62.3% 12.4c
Tue Apr 7 05:11, 62.4% 12.6c
Tue Apr 7 04:19, 62.2% 12.9c
Tue Apr 7 04:19, 62.1% 12.9c
Tue Apr 7 03:25, 62.0% 13.1c
Tue Apr 7 02:49, 61.6% 13.4c
Tue Apr 7 02:31, 61.5% 13.6c
Tue Apr 7 01:37, 61.2% 13.8c
Tue Apr 7 01:10, 60.9% 13.9c
Tue Apr 7 00:46, 60.9% 14.1c
Mon Apr 6 23:49, 60.4% 14.4c
Mon Apr 6 23:36, 60.3% 14.4c
Mon Apr 6 22:58, 60.1% 14.6c
Mon Apr 6 22:18, 59.7% 14.9c
Mon Apr 6 22:00, 59.6% 15.1c
Mon Apr 6 21:00, 59.2% 15.4c
Mon Apr 6 21:00, 59.2% 15.4c
Mon Apr 6 20:04, 58.7% 15.9c
Mon Apr 6 20:02, 58.6% 15.9c
Mon Apr 6 19:07, 58.4% 16.4c
Mon Apr 6 18:59, 58.1% 16.4c
Mon Apr 6 18:23, 57.2% 16.9c
Mon Apr 6 18:12, 57.3% 17.2c
Mon Apr 6 17:57, 57.1% 17.5c
Mon Apr 6 17:18, 56.1% 17.8c
Mon Apr 6 16:37, 55.0% 18.0c
Mon Apr 6 16:25, 55.3% 18.2c
Mon Apr 6 15:39, 54.3% 18.5c
Mon Apr 6 15:26, 54.1% 18.7c
Mon Apr 6 14:27, 51.1% 19.2c
Mon Apr 6 13:58, 50.7% 19.0c
Mon Apr 6 13:33, 50.3% 19.4c
Mon Apr 6 13:29, 50.1% 19.5c
Mon Apr 6 13:18, 50.3% 20.1c
Mon Apr 6 12:36, 51.5% 20.5c
Mon Apr 6 11:48, 51.4% 20.6c
Mon Apr 6 11:37, 51.9% 20.4c
Mon Apr 6 10:42, 55.2% 20.1c
Mon Apr 6 10:31, 57.4% 20.3c
Mon Apr 6 10:24, 63.4% 20.0c
Mon Apr 6 10:18, 63.3% 19.4c
Mon Apr 6 10:12, 63.1% 18.9c
Mon Apr 6 10:08, 63.4% 18.4c
Mon Apr 6 10:04, 63.7% 17.9c
Mon Apr 6 10:00, 63.4% 17.4c
Mon Apr 6 09:55, 62.4% 16.9c
Mon Apr 6 09:50, 62.7% 16.4c
Mon Apr 6 09:46, 63.3% 15.8c
Mon Apr 6 09:44, 63.5% 15.7c
Mon Apr 6 09:07, 64.6% 15.3c
Mon Apr 6 08:52, 64.0% 15.1c
Mon Apr 6 08:24, 61.6% 14.8c
Mon Apr 6 07:56, 61.6% 14.3c
Mon Apr 6 07:04, 61.4% 14.2c
Mon Apr 6 06:06, 61.6% 14.3c
Mon Apr 6 06:00, 61.5% 14.3c
Mon Apr 6 05:14, 60.8% 14.6c
Mon Apr 6 04:18, 60.3% 14.8c
Mon Apr 6 04:16, 60.4% 14.9c
Mon Apr 6 03:24, 60.3% 15.1c
Mon Apr 6 02:25, 59.9% 15.2c
Mon Apr 6 01:32, 59.9% 15.3c
Mon Apr 6 01:03, 59.7% 15.3c
Mon Apr 6 00:40, 59.7% 15.6c
Sun Apr 5 23:39, 59.0% 15.9c
Sun Apr 5 23:27, 58.9% 15.8c
Sun Apr 5 22:40, 58.8% 16.1c
Sun Apr 5 21:59, 57.0% 16.4c
Sun Apr 5 21:44, 56.7% 16.5c
Sun Apr 5 20:45, 57.2% 16.7c
Sun Apr 5 19:52, 52.3% 16.9c
Sun Apr 5 19:52, 52.2% 16.9c
Sun Apr 5 19:01, 51.9% 17.4c
Sun Apr 5 18:56, 51.6% 17.4c
Sun Apr 5 18:20, 49.2% 17.9c
Sun Apr 5 18:03, 47.0% 18.2c
Sun Apr 5 17:12, 45.6% 18.6c
Sun Apr 5 16:18, 45.3% 18.6c
Sun Apr 5 15:26, 49.0% 18.2c
Sun Apr 5 15:17, 48.2% 18.4c
Sun Apr 5 14:53, 50.4% 18.9c
Sun Apr 5 14:29, 56.7% 18.5c
Sun Apr 5 14:05, 56.5% 18.5c
Sun Apr 5 13:36, 58.9% 17.9c
Sun Apr 5 13:07, 59.4% 18.0c
Sun Apr 5 12:56, 59.8% 17.5c
Sun Apr 5 12:40, 59.7% 17.2c
Sun Apr 5 11:43, 60.4% 17.1c
Sun Apr 5 10:47, 59.6% 17.0c
Sun Apr 5 10:18, 59.3% 17.0c
Sun Apr 5 10:09, 61.6% 16.5c
Sun Apr 5 10:03, 64.0% 16.0c
Sun Apr 5 09:58, 63.9% 15.5c
Sun Apr 5 09:51, 63.5% 15.0c
Sun Apr 5 09:50, 63.5% 14.9c
Sun Apr 5 09:42, 63.4% 14.5c
Sun Apr 5 09:22, 63.7% 14.0c
Sun Apr 5 09:04, 61.5% 13.4c
Sun Apr 5 08:58, 62.0% 13.0c
Sun Apr 5 08:53, 62.1% 12.9c
Sun Apr 5 08:25, 62.4% 11.9c
Sun Apr 5 08:03, 62.4% 11.5c
Sun Apr 5 07:58, 62.3% 11.4c
Sun Apr 5 07:10, 61.9% 10.8c
Sun Apr 5 06:10, 61.9% 10.8c
Sun Apr 5 05:18, 61.8% 10.9c
Sun Apr 5 05:16, 61.9% 11.0c
Sun Apr 5 04:21, 61.8% 11.1c
Sun Apr 5 03:28, 61.7% 11.3c
Sun Apr 5 02:34, 61.7% 11.4c
Sun Apr 5 02:31, 61.8% 11.5c
Sun Apr 5 01:39, 61.8% 11.8c
Sun Apr 5 01:16, 61.8% 11.9c
Sun Apr 5 00:48, 61.9% 12.2c
Sat Apr 4 23:53, 62.1% 12.3c
Sat Apr 4 23:27, 61.9% 12.4c
Sat Apr 4 22:56, 61.8% 12.7c
Sat Apr 4 22:09, 61.5% 13.0c
Sat Apr 4 22:05, 61.4% 13.1c
Sat Apr 4 21:06, 61.3% 13.3c
Sat Apr 4 20:29, 61.0% 13.5c
Sat Apr 4 20:12, 60.8% 13.8c
Sat Apr 4 19:39, 60.4% 14.0c
Sat Apr 4 19:12, 60.1% 14.3c
Sat Apr 4 16:47, 60.3% 15.5c
Sat Apr 4 16:31, 61.1% 15.7c
Sat Apr 4 15:35, 60.8% 15.9c
Sat Apr 4 14:51, 60.4% 16.0c
Sat Apr 4 14:44, 60.8% 15.8c
Sat Apr 4 13:56, 59.7% 15.5c
Sat Apr 4 13:44, 60.2% 15.4c
Sat Apr 4 13:08, 62.1% 15.0c
Sat Apr 4 12:51, 62.4% 14.7c
Sat Apr 4 12:31, 62.6% 14.5c
Sat Apr 4 11:59, 63.0% 14.3c
Sat Apr 4 10:59, 62.3% 13.9c
Sat Apr 4 10:59, 62.2% 14.0c
Sat Apr 4 10:04, 62.4% 13.7c
Sat Apr 4 09:41, 62.4% 13.5c
Sat Apr 4 09:21, 62.9% 13.0c
Sat Apr 4 09:12, 60.4% 12.8c
Sat Apr 4 08:39, 60.5% 12.4c
Sat Apr 4 08:12, 60.5% 12.0c
Sat Apr 4 07:15, 60.4% 11.8c
Sat Apr 4 06:15, 60.7% 11.6c
Sat Apr 4 05:22, 60.6% 11.7c
Sat Apr 4 04:52, 60.0% 11.9c
Sat Apr 4 04:26, 60.0% 12.1c
Sat Apr 4 03:33, 59.9% 12.4c
Sat Apr 4 02:50, 59.6% 12.4c
Sat Apr 4 02:38, 59.5% 12.6c
Sat Apr 4 01:39, 59.2% 12.7c
Sat Apr 4 00:42, 59.4% 12.7c
Fri Apr 3 23:52, 59.6% 12.6c
Fri Apr 3 22:52, 59.6% 12.8c
Fri Apr 3 21:57, 59.6% 13.1c
Fri Apr 3 20:58, 60.7% 13.3c
Fri Apr 3 20:04, 60.4% 13.0c
Fri Apr 3 20:01, 60.5% 13.0c
Fri Apr 3 19:25, 59.7% 13.5c
Fri Apr 3 19:07, 58.4% 13.9c
Fri Apr 3 18:52, 58.4% 14.0c
Fri Apr 3 18:12, 57.8% 14.5c
Fri Apr 3 18:01, 56.7% 14.5c
Fri Apr 3 17:29, 56.1% 15.0c
Fri Apr 3 17:19, 56.4% 15.2c
Fri Apr 3 17:02, 56.3% 15.5c
Fri Apr 3 16:39, 53.6% 16.0c
Fri Apr 3 16:32, 57.5% 16.5c
Fri Apr 3 16:19, 57.1% 16.8c
Fri Apr 3 15:59, 57.0% 17.0c
Fri Apr 3 15:25, 56.7% 17.6c
Fri Apr 3 15:13, 57.3% 17.6c
Fri Apr 3 15:00, 57.6% 17.0c
Fri Apr 3 14:34, 58.9% 16.5c
Fri Apr 3 14:27, 58.8% 16.5c
Fri Apr 3 13:56, 58.2% 17.1c
Fri Apr 3 13:49, 58.1% 16.6c
Fri Apr 3 13:43, 56.0% 16.1c
Fri Apr 3 13:40, 55.9% 16.1c
Fri Apr 3 13:22, 56.5% 15.5c
Fri Apr 3 11:57, 56.0% 15.2c
Fri Apr 3 11:53, 55.8% 15.0c
Fri Apr 3 11:43, 56.3% 14.5c
Fri Apr 3 11:03, 55.8% 14.2c
Fri Apr 3 10:48, 56.6% 14.0c
Fri Apr 3 10:24, 56.2% 13.4c
Fri Apr 3 10:08, 56.7% 13.0c
Fri Apr 3 10:03, 56.9% 12.9c
Fri Apr 3 09:11, 57.9% 12.4c
Fri Apr 3 09:10, 58.0% 12.3c
Fri Apr 3 08:15, 61.3% 12.0c
Fri Apr 3 08:11, 60.7% 11.9c
Fri Apr 3 07:17, 56.0% 11.2c
Fri Apr 3 06:26, 55.4% 11.4c
Fri Apr 3 05:26, 55.1% 11.5c
Fri Apr 3 04:28, 55.5% 11.4c
Fri Apr 3 03:31, 55.0% 11.4c
Fri Apr 3 02:34, 54.8% 11.4c
Fri Apr 3 02:32, 54.8% 11.5c
Fri Apr 3 01:41, 54.3% 11.7c
Fri Apr 3 00:50, 54.0% 11.9c
Fri Apr 3 00:24, 53.9% 11.9c
Thu Apr 2 23:54, 53.5% 12.2c
Thu Apr 2 22:59, 53.4% 12.2c
Thu Apr 2 22:03, 53.1% 12.2c
Thu Apr 2 21:05, 52.2% 12.4c
Thu Apr 2 20:27, 52.4% 12.4c
Thu Apr 2 20:09, 52.3% 12.9c
Thu Apr 2 19:39, 52.5% 13.0c
Thu Apr 2 19:32, 51.1% 13.5c
Thu Apr 2 19:27, 53.5% 14.0c
Thu Apr 2 19:16, 55.0% 14.3c
Thu Apr 2 18:41, 54.8% 14.5c
Thu Apr 2 18:24, 54.3% 14.8c
Thu Apr 2 18:01, 54.2% 15.0c
Thu Apr 2 17:29, 53.5% 15.2c
Thu Apr 2 16:55, 54.0% 15.6c
Thu Apr 2 16:31, 53.3% 15.8c
Thu Apr 2 16:04, 52.1% 16.1c
Thu Apr 2 15:41, 50.4% 16.6c
Thu Apr 2 15:39, 54.2% 16.8c
Thu Apr 2 14:40, 55.8% 17.1c
Thu Apr 2 14:35, 55.2% 17.1c
Thu Apr 2 13:48, 56.1% 17.5c
Thu Apr 2 13:15, 55.5% 17.6c
Thu Apr 2 13:03, 54.7% 18.1c
Thu Apr 2 12:52, 54.9% 18.6c
Thu Apr 2 12:48, 56.0% 18.6c
Thu Apr 2 12:24, 61.0% 18.2c
Thu Apr 2 12:16, 61.5% 17.7c
Thu Apr 2 11:54, 61.6% 17.5c
Thu Apr 2 11:48, 62.0% 17.2c
Thu Apr 2 11:44, 62.0% 16.6c
Thu Apr 2 11:40, 61.2% 16.1c
Thu Apr 2 11:34, 59.9% 15.6c
Thu Apr 2 11:00, 60.3% 14.9c
Thu Apr 2 10:20, 60.6% 15.1c
Thu Apr 2 10:07, 60.8% 15.0c
Thu Apr 2 09:50, 60.6% 14.6c
Thu Apr 2 09:36, 61.0% 14.1c
Thu Apr 2 09:27, 61.2% 13.6c
Thu Apr 2 09:07, 61.4% 13.1c
Thu Apr 2 08:12, 61.1% 12.9c
Thu Apr 2 07:17, 60.8% 12.9c
Thu Apr 2 06:18, 61.1% 12.9c
Thu Apr 2 05:26, 59.8% 12.9c
Thu Apr 2 04:31, 59.4% 12.9c
Thu Apr 2 03:32, 59.4% 12.9c
Thu Apr 2 02:31, 59.4% 13.1c
Thu Apr 2 02:17, 59.4% 13.1c
Thu Apr 2 01:38, 59.4% 13.2c
Thu Apr 2 00:39, 58.9% 13.5c
Wed Apr 1 23:43, 58.3% 13.6c
Wed Apr 1 22:51, 57.9% 13.7c
Wed Apr 1 22:10, 57.9% 13.6c
Wed Apr 1 21:59, 57.8% 13.8c
Wed Apr 1 21:03, 57.9% 13.9c
Wed Apr 1 20:12, 57.3% 13.9c
Wed Apr 1 19:41, 57.0% 14.1c
Wed Apr 1 19:19, 56.6% 14.4c
Wed Apr 1 18:55, 55.8% 14.6c
Wed Apr 1 18:27, 55.0% 15.1c
Wed Apr 1 18:19, 55.3% 15.3c
Wed Apr 1 17:21, 54.5% 15.7c
Wed Apr 1 17:20, 55.0% 15.6c
Wed Apr 1 16:26, 55.1% 15.9c
Wed Apr 1 15:27, 55.1% 16.5c
Wed Apr 1 14:41, 55.1% 16.1c
Wed Apr 1 14:28, 59.1% 16.4c
Wed Apr 1 14:13, 61.1% 16.4c
Wed Apr 1 13:53, 59.8% 15.8c
Wed Apr 1 13:35, 57.2% 15.4c
Wed Apr 1 13:16, 57.4% 15.3c
Wed Apr 1 12:38, 57.7% 14.7c
Wed Apr 1 08:24, 64.0% 11.7c
Wed Apr 1 07:58, 60.4% 11.2c
Wed Apr 1 06:59, 59.7% 11.1c
Wed Apr 1 06:05, 60.1% 11.1c
Wed Apr 1 05:07, 60.4% 11.1c
Wed Apr 1 04:26, 60.1% 11.2c
Wed Apr 1 04:14, 60.0% 11.3c
Wed Apr 1 03:14, 60.0% 11.4c
Wed Apr 1 02:17, 60.0% 11.5c
Wed Apr 1 01:21, 59.8% 11.7c
Wed Apr 1 00:38, 59.7% 11.7c
Wed Apr 1 00:25, 59.8% 11.8c
Tue Mar 31 23:33, 59.8% 11.9c
Tue Mar 31 22:41, 60.0% 12.0c
Tue Mar 31 21:44, 60.2% 12.2c
Tue Mar 31 21:39, 60.3% 12.2c
Tue Mar 31 20:46, 61.1% 12.6c
Tue Mar 31 19:58, 58.9% 12.7c
Tue Mar 31 19:54, 58.8% 12.8c
Tue Mar 31 19:12, 58.1% 13.2c
Tue Mar 31 18:58, 58.1% 13.4c
Tue Mar 31 18:11, 57.7% 13.7c
Tue Mar 31 17:59, 57.7% 13.8c
Tue Mar 31 17:13, 57.2% 14.3c
Tue Mar 31 17:06, 57.1% 14.4c
Tue Mar 31 16:15, 56.5% 14.8c
Tue Mar 31 15:22, 57.4% 15.0c
Tue Mar 31 14:26, 55.9% 14.9c
Tue Mar 31 13:34, 58.9% 14.8c
Tue Mar 31 13:04, 59.3% 14.8c
Tue Mar 31 12:41, 58.0% 15.3c
Tue Mar 31 12:28, 57.9% 15.3c
Tue Mar 31 11:48, 58.2% 14.9c
Tue Mar 31 11:44, 58.5% 14.8c
Tue Mar 31 11:38, 58.4% 14.2c
Tue Mar 31 11:24, 56.7% 13.7c
Tue Mar 31 10:50, 56.6% 13.4c
Tue Mar 31 10:36, 56.9% 13.2c
Tue Mar 31 10:16, 57.7% 12.7c
Tue Mar 31 10:01, 58.2% 12.1c
Tue Mar 31 09:50, 58.9% 11.9c
Tue Mar 31 08:55, 59.0% 11.7c
Tue Mar 31 08:38, 59.0% 11.6c
Tue Mar 31 08:03, 59.5% 11.3c
Tue Mar 31 07:34, 59.0% 11.1c
Tue Mar 31 07:10, 59.3% 10.9c
Tue Mar 31 06:17, 61.5% 10.7c
Tue Mar 31 05:21, 57.6% 10.7c
Tue Mar 31 05:04, 57.5% 10.6c
Tue Mar 31 04:27, 57.2% 10.7c
Tue Mar 31 03:33, 56.8% 10.9c
Tue Mar 31 02:39, 56.7% 10.9c
Tue Mar 31 01:43, 56.3% 11.1c
Tue Mar 31 01:36, 56.2% 11.1c
Tue Mar 31 00:49, 56.1% 11.4c
Tue Mar 31 00:26, 56.1% 11.6c
Mon Mar 30 23:55, 56.1% 11.9c
Mon Mar 30 23:02, 56.2% 12.1c
Mon Mar 30 23:00, 56.2% 12.1c
Mon Mar 30 22:02, 56.3% 12.6c
Mon Mar 30 21:42, 56.5% 12.6c
Mon Mar 30 21:02, 57.6% 13.0c
Mon Mar 30 20:18, 55.5% 13.1c
Mon Mar 30 20:10, 55.4% 13.2c
Mon Mar 30 19:30, 55.0% 13.6c
Mon Mar 30 19:16, 54.7% 13.8c
Mon Mar 30 18:45, 54.5% 14.1c
Mon Mar 30 18:20, 54.7% 14.5c
Mon Mar 30 18:00, 54.3% 14.7c
Mon Mar 30 17:26, 53.6% 14.9c
Mon Mar 30 16:39, 53.4% 15.2c
Mon Mar 30 16:28, 53.4% 15.3c
Mon Mar 30 15:35, 53.9% 15.7c
Mon Mar 30 15:29, 53.8% 15.7c
Mon Mar 30 14:58, 53.5% 16.2c
Mon Mar 30 14:36, 53.1% 16.4c
Mon Mar 30 14:01, 52.6% 16.7c
Mon Mar 30 13:35, 52.4% 17.2c
Mon Mar 30 13:24, 52.0% 17.2c
Mon Mar 30 13:04, 51.6% 17.7c
Mon Mar 30 12:38, 50.9% 18.1c
Mon Mar 30 12:20, 49.9% 18.2c
Mon Mar 30 11:40, 49.9% 18.0c
Mon Mar 30 11:40, 50.7% 18.1c
Mon Mar 30 11:24, 55.9% 18.3c
Mon Mar 30 11:22, 57.5% 17.8c
Mon Mar 30 11:20, 58.7% 17.3c
Mon Mar 30 11:17, 60.0% 16.7c
Mon Mar 30 11:14, 60.4% 16.2c
Mon Mar 30 11:09, 61.0% 15.7c
Mon Mar 30 11:04, 60.3% 15.2c
Mon Mar 30 10:58, 59.6% 14.7c
Mon Mar 30 10:51, 60.0% 14.2c
Mon Mar 30 10:50, 60.5% 14.1c
Mon Mar 30 10:16, 60.5% 13.7c
Mon Mar 30 09:55, 60.3% 14.2c
Mon Mar 30 09:52, 60.4% 14.1c
Mon Mar 30 09:41, 61.4% 13.7c
Mon Mar 30 09:35, 59.0% 13.1c
Mon Mar 30 09:26, 54.3% 12.6c
Mon Mar 30 09:16, 54.5% 12.1c
Mon Mar 30 09:04, 55.7% 11.6c
Mon Mar 30 08:54, 54.0% 11.2c
Mon Mar 30 08:51, 54.1% 11.1c
Mon Mar 30 08:35, 54.6% 10.6c
Mon Mar 30 08:17, 55.2% 10.1c
Mon Mar 30 07:57, 56.2% 9.8c
Mon Mar 30 07:00, 54.9% 9.1c
Mon Mar 30 06:08, 54.6% 9.2c
Mon Mar 30 05:23, 53.7% 9.5c
Mon Mar 30 05:16, 53.5% 9.7c
Mon Mar 30 04:16, 53.5% 9.7c
Mon Mar 30 03:17, 52.6% 9.9c
Mon Mar 30 02:21, 52.3% 10.1c
Mon Mar 30 01:21, 52.1% 10.1c
Mon Mar 30 01:19, 52.0% 10.1c
Mon Mar 30 00:29, 51.1% 10.5c
Mon Mar 30 00:01, 50.9% 10.6c
Sun Mar 29 23:30, 50.6% 10.8c
Sun Mar 29 22:30, 50.2% 11.1c
Sun Mar 29 22:15, 50.2% 11.1c
Sun Mar 29 21:33, 50.5% 11.2c
Sun Mar 29 20:36, 50.4% 11.5c
Sun Mar 29 20:27, 50.2% 11.6c
Sun Mar 29 19:44, 50.1% 12.1c
Sun Mar 29 19:42, 50.1% 12.1c
Sun Mar 29 18:50, 48.9% 12.6c
Sun Mar 29 18:48, 49.0% 12.6c
Sun Mar 29 18:04, 48.3% 13.1c
Sun Mar 29 17:56, 48.7% 13.0c
Sun Mar 29 17:37, 45.6% 12.6c
Sun Mar 29 17:28, 39.6% 12.2c
Sun Mar 29 17:22, 40.3% 12.7c
Sun Mar 29 16:57, 45.0% 13.2c
Sun Mar 29 16:36, 45.2% 13.2c
Sun Mar 29 15:59, 45.8% 13.5c
Sun Mar 29 15:00, 45.6% 13.9c
Sun Mar 29 14:01, 45.5% 13.6c
Sun Mar 29 13:49, 44.7% 13.7c
Sun Mar 29 13:24, 46.2% 14.2c
Sun Mar 29 13:15, 51.7% 14.8c
Sun Mar 29 13:03, 57.9% 15.2c
Sun Mar 29 13:02, 57.8% 15.2c
Sun Mar 29 12:43, 59.7% 15.7c
Sun Mar 29 12:11, 59.8% 16.2c
Sun Mar 29 12:09, 59.5% 16.2c
Sun Mar 29 12:03, 58.1% 15.7c
Sun Mar 29 11:18, 55.8% 15.4c
Sun Mar 29 11:10, 56.3% 15.2c
Sun Mar 29 11:01, 57.2% 14.7c
Sun Mar 29 10:49, 57.2% 14.1c
Sun Mar 29 10:23, 56.0% 14.9c
Sun Mar 29 10:14, 56.5% 14.7c
Sun Mar 29 09:53, 56.6% 14.1c
Sun Mar 29 09:47, 57.2% 13.6c
Sun Mar 29 09:41, 57.9% 13.1c
Sun Mar 29 09:38, 58.6% 12.6c
Sun Mar 29 09:35, 59.4% 12.1c
Sun Mar 29 09:32, 57.7% 11.6c
Sun Mar 29 09:29, 55.3% 11.2c
Sun Mar 29 09:26, 55.3% 11.0c
Sun Mar 29 09:18, 55.2% 10.5c
Sun Mar 29 09:04, 55.5% 10.0c
Sun Mar 29 08:40, 55.5% 9.5c
Sun Mar 29 08:33, 55.6% 9.3c
Sun Mar 29 07:39, 55.3% 8.9c
Sun Mar 29 06:46, 55.2% 8.9c
Sun Mar 29 05:56, 54.9% 8.9c
Sun Mar 29 05:52, 55.0% 9.0c
Sun Mar 29 04:52, 55.1% 9.1c
Sun Mar 29 03:56, 55.4% 9.1c
Sun Mar 29 03:02, 55.6% 9.4c
Sun Mar 29 02:26, 55.7% 9.5c
Sun Mar 29 02:04, 55.7% 9.6c
Sun Mar 29 00:10, 56.2% 9.6c
Sat Mar 28 23:12, 56.6% 9.6c
Sat Mar 28 22:15, 57.4% 9.9c
Sat Mar 28 21:52, 57.8% 10.0c
Sat Mar 28 21:22, 58.0% 10.4c
Sat Mar 28 20:54, 57.1% 10.5c
Sat Mar 28 20:30, 57.1% 10.7c
Sat Mar 28 19:52, 57.4% 11.0c
Sat Mar 28 19:34, 57.6% 11.2c
Sat Mar 28 19:09, 58.0% 11.5c
Sat Mar 28 18:45, 58.4% 12.0c
Sat Mar 28 18:11, 57.2% 12.5c
Sat Mar 28 17:45, 57.8% 13.1c
Sat Mar 28 17:44, 57.6% 13.2c
Sat Mar 28 17:17, 58.0% 13.6c
Sat Mar 28 16:50, 58.2% 14.1c
Sat Mar 28 16:49, 58.2% 14.1c
Sat Mar 28 16:16, 58.5% 14.6c
Sat Mar 28 15:51, 59.6% 15.2c
Sat Mar 28 15:20, 60.9% 15.1c
Sat Mar 28 14:57, 61.1% 15.5c
Sat Mar 28 14:05, 61.0% 16.0c
Sat Mar 28 13:30, 60.9% 15.6c
Sat Mar 28 13:12, 54.9% 15.8c
Sat Mar 28 13:08, 54.3% 16.0c
Sat Mar 28 12:49, 54.1% 16.3c
Sat Mar 28 12:14, 60.3% 16.5c
Sat Mar 28 11:58, 60.2% 16.5c
Sat Mar 28 11:26, 58.3% 17.0c
Sat Mar 28 11:16, 59.5% 17.3c
Sat Mar 28 11:06, 58.9% 17.5c
Sat Mar 28 10:57, 57.3% 18.0c
Sat Mar 28 10:50, 56.4% 18.5c
Sat Mar 28 10:45, 54.6% 19.0c
Sat Mar 28 10:28, 55.3% 19.5c
Sat Mar 28 10:26, 56.9% 19.0c
Sat Mar 28 10:24, 58.8% 18.5c
Sat Mar 28 10:24, 60.0% 18.4c
Sat Mar 28 10:09, 64.3% 17.9c
Sat Mar 28 10:03, 64.5% 17.4c
Sat Mar 28 09:55, 64.5% 16.9c
Sat Mar 28 09:49, 64.7% 16.4c
Sat Mar 28 09:43, 65.3% 15.8c
Sat Mar 28 09:40, 65.6% 15.3c
Sat Mar 28 09:36, 65.8% 14.8c
Sat Mar 28 09:31, 65.9% 14.3c
Sat Mar 28 09:30, 66.0% 14.1c
Sat Mar 28 09:12, 65.8% 13.8c
Sat Mar 28 09:07, 64.1% 13.3c
Sat Mar 28 09:02, 63.9% 12.7c
Sat Mar 28 08:56, 63.1% 12.2c
Sat Mar 28 08:32, 62.7% 11.7c
Sat Mar 28 08:10, 62.2% 11.7c
Sat Mar 28 07:54, 62.1% 11.2c
Sat Mar 28 07:40, 62.3% 10.7c
Sat Mar 28 07:32, 62.3% 10.4c
Sat Mar 28 06:41, 62.0% 10.2c
Sat Mar 28 05:47, 61.9% 10.2c
Sat Mar 28 04:56, 62.1% 10.2c
Sat Mar 28 04:43, 62.1% 10.2c
Sat Mar 28 04:04, 62.0% 10.4c

s2 Liv-Room HT
Tue Apr 7 13:12, 47.2% 19.4c

Tue Apr 7 13:12, 47.2% 19.4c
Tue Apr 7 13:07, 47.3% 19.5c
Tue Apr 7 12:13, 48.8% 19.3c
Tue Apr 7 11:37, 49.2% 19.0c
Tue Apr 7 11:16, 50.1% 18.8c
Tue Apr 7 10:20, 47.7% 18.6c
Tue Apr 7 09:25, 51.0% 18.7c
Tue Apr 7 08:25, 49.8% 18.7c
Tue Apr 7 07:34, 48.2% 18.8c
Tue Apr 7 06:37, 48.1% 18.6c
Tue Apr 7 05:40, 47.7% 18.4c
Tue Apr 7 05:07, 47.9% 18.5c
Tue Apr 7 04:47, 47.8% 18.6c
Tue Apr 7 03:52, 48.0% 18.8c
Tue Apr 7 03:05, 48.1% 19.0c
Tue Apr 7 02:52, 48.1% 19.1c
Tue Apr 7 02:00, 48.2% 19.4c
Tue Apr 7 01:31, 48.3% 19.5c
Tue Apr 7 01:09, 48.4% 19.7c
Tue Apr 7 00:15, 48.6% 20.0c
Tue Apr 7 00:13, 48.5% 20.1c
Mon Apr 6 23:18, 48.9% 20.5c
Mon Apr 6 23:15, 48.8% 20.5c
Mon Apr 6 22:22, 49.4% 21.1c
Mon Apr 6 21:29, 50.4% 21.1c
Mon Apr 6 21:03, 50.6% 21.0c
Mon Apr 6 20:36, 50.8% 20.9c
Mon Apr 6 19:39, 50.7% 21.0c
Mon Apr 6 18:44, 54.0% 20.5c
Mon Apr 6 18:41, 53.9% 20.4c
Mon Apr 6 18:19, 50.8% 20.0c
Mon Apr 6 17:42, 48.0% 19.7c
Mon Apr 6 16:45, 48.6% 19.5c
Mon Apr 6 15:50, 48.6% 19.4c
Mon Apr 6 14:50, 49.5% 19.4c
Mon Apr 6 13:58, 46.9% 19.6c
Mon Apr 6 13:07, 50.1% 19.9c
Mon Apr 6 12:16, 49.0% 19.6c
Mon Apr 6 11:48, 49.9% 19.5c
Mon Apr 6 11:21, 50.5% 19.3c
Mon Apr 6 10:22, 49.3% 19.0c
Mon Apr 6 09:54, 49.2% 19.0c
Mon Apr 6 09:22, 49.3% 19.1c
Mon Apr 6 08:27, 48.7% 19.3c
Mon Apr 6 07:33, 48.1% 19.4c
Mon Apr 6 06:34, 48.3% 19.2c
Mon Apr 6 05:37, 48.1% 19.3c
Mon Apr 6 04:45, 48.0% 19.4c
Mon Apr 6 04:15, 47.9% 19.5c
Mon Apr 6 03:46, 47.8% 19.6c
Mon Apr 6 02:46, 47.6% 19.8c
Mon Apr 6 01:49, 46.7% 19.9c
Mon Apr 6 01:23, 46.6% 20.0c
Mon Apr 6 00:57, 46.7% 20.2c
Mon Apr 6 00:00, 46.9% 20.5c
Sun Apr 5 23:55, 46.8% 20.5c
Sun Apr 5 23:01, 47.3% 20.9c
Sun Apr 5 22:02, 47.4% 21.0c
Sun Apr 5 21:04, 46.4% 21.0c
Sun Apr 5 20:37, 45.6% 21.0c
Sun Apr 5 20:05, 45.4% 20.9c
Sun Apr 5 19:09, 46.5% 20.7c
Sun Apr 5 18:09, 41.3% 20.6c
Sun Apr 5 17:43, 41.4% 20.5c
Sun Apr 5 17:17, 41.1% 20.3c
Sun Apr 5 16:18, 39.9% 20.0c
Sun Apr 5 16:18, 39.9% 20.0c
Sun Apr 5 15:23, 42.1% 20.2c
Sun Apr 5 14:53, 45.9% 20.4c
Sun Apr 5 14:31, 46.1% 20.3c
Sun Apr 5 12:38, 47.2% 20.0c
Sun Apr 5 11:47, 48.1% 19.9c
Sun Apr 5 11:00, 48.2% 19.9c
Sun Apr 5 10:47, 48.3% 19.8c
Sun Apr 5 09:47, 49.4% 19.6c
Sun Apr 5 09:06, 49.3% 19.4c
Sun Apr 5 08:50, 49.6% 19.1c
Sun Apr 5 08:00, 47.6% 18.8c
Sun Apr 5 07:03, 47.2% 18.9c
Sun Apr 5 07:02, 47.1% 18.8c
Sun Apr 5 06:04, 47.7% 18.2c
Sun Apr 5 05:15, 48.0% 18.4c
Sun Apr 5 05:04, 48.0% 18.5c
Sun Apr 5 04:05, 48.3% 18.8c
Sun Apr 5 03:25, 48.6% 18.9c
Sun Apr 5 03:11, 48.8% 19.0c
Sun Apr 5 02:16, 49.2% 19.3c
Sun Apr 5 02:01, 49.4% 19.4c
Sun Apr 5 01:22, 49.9% 19.7c
Sun Apr 5 00:49, 50.3% 19.9c
Sun Apr 5 00:30, 50.7% 20.1c
Sat Apr 4 23:31, 52.0% 20.4c
Sat Apr 4 22:36, 52.6% 20.6c
Sat Apr 4 21:37, 52.5% 20.5c
Sat Apr 4 20:48, 52.6% 20.4c
Sat Apr 4 20:41, 52.5% 20.3c
Sat Apr 4 19:42, 52.2% 20.3c
Sat Apr 4 18:45, 48.7% 20.3c
Sat Apr 4 16:00, 49.3% 20.1c
Sat Apr 4 15:09, 47.7% 20.1c
Sat Apr 4 14:09, 49.9% 20.1c
Sat Apr 4 13:17, 51.2% 20.0c
Sat Apr 4 12:41, 48.8% 19.9c
Sat Apr 4 12:25, 49.0% 19.7c
Sat Apr 4 11:56, 49.6% 19.4c
Sat Apr 4 11:30, 50.4% 18.9c
Sat Apr 4 11:25, 50.1% 18.9c
Sat Apr 4 10:36, 50.1% 18.4c
Sat Apr 4 09:43, 49.1% 18.4c
Sat Apr 4 08:47, 48.1% 18.5c
Sat Apr 4 07:54, 46.8% 18.6c
Sat Apr 4 07:02, 46.9% 18.5c
Sat Apr 4 06:10, 46.2% 17.9c
Sat Apr 4 05:14, 46.2% 18.2c
Sat Apr 4 04:24, 46.2% 18.4c
Sat Apr 4 04:16, 46.2% 18.5c
Sat Apr 4 03:25, 46.1% 18.8c
Sat Apr 4 03:02, 46.2% 18.9c
Sat Apr 4 02:33, 46.3% 19.1c
Sat Apr 4 01:57, 46.2% 19.4c
Sat Apr 4 01:41, 46.3% 19.6c
Sat Apr 4 00:59, 46.5% 19.9c
Sat Apr 4 00:49, 46.6% 20.1c
Fri Apr 3 23:52, 47.5% 20.4c
Fri Apr 3 23:50, 47.5% 20.5c
Fri Apr 3 22:55, 46.8% 20.7c
Fri Apr 3 22:00, 46.3% 20.8c
Fri Apr 3 21:08, 46.2% 21.0c
Fri Apr 3 20:12, 47.8% 20.9c
Fri Apr 3 20:03, 47.3% 20.9c
Fri Apr 3 19:17, 46.9% 20.6c
Fri Apr 3 18:20, 44.5% 20.4c
Fri Apr 3 17:56, 45.0% 20.4c
Fri Apr 3 17:20, 44.7% 20.1c
Fri Apr 3 17:02, 44.7% 19.9c
Fri Apr 3 16:20, 45.9% 19.7c
Fri Apr 3 15:26, 46.2% 19.6c
Fri Apr 3 14:26, 47.3% 19.5c
Fri Apr 3 13:46, 48.7% 19.4c
Fri Apr 3 13:32, 48.6% 19.3c
Fri Apr 3 12:41, 46.0% 19.2c
Fri Apr 3 11:50, 46.0% 18.9c
Fri Apr 3 11:43, 46.2% 18.8c
Fri Apr 3 11:13, 46.2% 18.4c
Fri Apr 3 10:52, 45.9% 18.2c
Fri Apr 3 09:59, 44.4% 18.3c
Fri Apr 3 09:06, 44.5% 18.0c
Fri Apr 3 08:46, 44.4% 17.9c
Fri Apr 3 08:09, 45.3% 17.3c
Fri Apr 3 07:26, 43.2% 17.4c
Fri Apr 3 07:18, 43.1% 17.4c
Fri Apr 3 06:19, 43.4% 17.7c
Fri Apr 3 05:20, 44.4% 17.9c
Fri Apr 3 04:21, 43.1% 17.6c
Fri Apr 3 03:33, 42.8% 17.9c
Fri Apr 3 03:24, 42.8% 17.9c
Fri Apr 3 02:30, 42.6% 18.3c
Fri Apr 3 02:17, 42.7% 18.4c
Fri Apr 3 01:37, 42.5% 18.7c
Fri Apr 3 01:10, 42.6% 18.9c
Fri Apr 3 00:46, 42.5% 19.1c
Fri Apr 3 00:14, 42.6% 19.4c
Thu Apr 2 23:48, 42.6% 19.7c
Thu Apr 2 23:25, 42.5% 19.9c
Thu Apr 2 22:53, 42.6% 20.3c
Thu Apr 2 21:58, 42.1% 20.4c
Thu Apr 2 21:06, 41.6% 20.5c
Thu Apr 2 20:07, 40.7% 20.6c
Thu Apr 2 19:08, 43.0% 20.8c
Thu Apr 2 18:13, 43.2% 20.4c
Thu Apr 2 18:01, 43.1% 20.4c
Thu Apr 2 17:14, 43.0% 19.9c
Thu Apr 2 17:11, 42.9% 19.9c
Thu Apr 2 16:15, 44.3% 19.3c
Thu Apr 2 15:25, 43.7% 19.3c
Thu Apr 2 14:27, 45.3% 19.3c
Thu Apr 2 14:03, 46.3% 19.4c
Thu Apr 2 13:28, 47.3% 19.0c
Thu Apr 2 12:56, 48.3% 18.8c
Thu Apr 2 12:29, 46.2% 18.2c
Thu Apr 2 11:37, 46.3% 18.0c
Thu Apr 2 10:40, 47.8% 18.2c
Thu Apr 2 09:47, 49.4% 18.5c
Thu Apr 2 08:50, 49.9% 18.6c
Thu Apr 2 07:56, 48.6% 18.2c
Thu Apr 2 07:05, 47.0% 18.2c
Thu Apr 2 06:08, 46.8% 18.4c
Thu Apr 2 05:15, 46.0% 18.2c
Thu Apr 2 04:41, 46.0% 18.3c
Thu Apr 2 04:19, 45.9% 18.5c
Thu Apr 2 03:24, 46.2% 18.8c
Thu Apr 2 03:04, 46.3% 18.8c
Thu Apr 2 02:31, 46.5% 19.0c
Thu Apr 2 01:34, 45.6% 19.3c
Thu Apr 2 01:21, 45.7% 19.4c
Thu Apr 2 00:42, 45.8% 19.7c
Thu Apr 2 00:12, 45.9% 19.9c
Wed Apr 1 23:44, 46.3% 20.2c
Wed Apr 1 22:49, 46.9% 20.6c
Wed Apr 1 21:54, 46.5% 20.6c
Wed Apr 1 21:04, 46.2% 20.4c
Wed Apr 1 20:33, 46.2% 20.4c
Wed Apr 1 20:11, 46.8% 20.4c
Wed Apr 1 19:15, 46.8% 20.2c
Wed Apr 1 18:32, 45.5% 19.9c
Wed Apr 1 18:20, 44.4% 19.7c
Wed Apr 1 17:46, 43.0% 19.4c
Wed Apr 1 17:20, 42.6% 19.6c
Wed Apr 1 16:36, 42.6% 19.9c
Wed Apr 1 16:26, 42.5% 20.0c
Wed Apr 1 15:27, 43.0% 20.6c
Wed Apr 1 14:27, 47.4% 20.4c
Wed Apr 1 14:14, 47.0% 20.4c
Wed Apr 1 13:32, 42.9% 20.3c
Wed Apr 1 12:38, 43.5% 20.3c
Wed Apr 1 07:54, 45.4% 18.9c
Wed Apr 1 07:02, 44.3% 18.9c
Wed Apr 1 06:57, 44.2% 18.8c
Wed Apr 1 06:01, 44.0% 18.2c
Wed Apr 1 05:09, 43.8% 18.4c
Wed Apr 1 05:08, 43.6% 18.4c
Wed Apr 1 04:17, 44.0% 18.7c
Wed Apr 1 03:28, 44.1% 18.9c
Wed Apr 1 03:20, 44.1% 19.0c
Wed Apr 1 02:29, 44.3% 19.4c
Wed Apr 1 02:07, 44.5% 19.4c
Wed Apr 1 01:37, 44.7% 19.7c
Wed Apr 1 01:05, 45.0% 19.9c
Wed Apr 1 00:40, 45.2% 20.2c
Wed Apr 1 00:14, 45.4% 20.4c
Tue Mar 31 23:47, 45.7% 20.8c
Tue Mar 31 23:33, 46.0% 20.9c
Tue Mar 31 22:53, 47.6% 21.4c
Tue Mar 31 21:56, 47.9% 21.5c
Tue Mar 31 21:04, 47.5% 21.5c
Tue Mar 31 20:40, 49.1% 21.5c
Tue Mar 31 20:09, 50.5% 21.1c
Tue Mar 31 19:57, 50.6% 20.9c
Tue Mar 31 19:13, 44.1% 20.7c
Tue Mar 31 18:19, 43.9% 20.8c
Tue Mar 31 17:26, 44.6% 20.7c
Tue Mar 31 17:21, 44.6% 20.7c
Tue Mar 31 16:27, 45.5% 20.2c
Tue Mar 31 16:08, 46.0% 20.2c
Tue Mar 31 15:35, 47.1% 19.7c
Tue Mar 31 15:26, 47.4% 19.7c
Tue Mar 31 14:52, 47.2% 19.1c
Tue Mar 31 14:39, 46.8% 18.9c
Tue Mar 31 14:01, 45.1% 18.6c
Tue Mar 31 13:46, 45.1% 18.8c
Tue Mar 31 12:48, 44.9% 19.1c
Tue Mar 31 11:49, 45.5% 19.4c
Tue Mar 31 10:51, 46.8% 19.2c
Tue Mar 31 10:50, 46.8% 19.2c
Tue Mar 31 10:00, 45.5% 19.0c
Tue Mar 31 09:05, 48.6% 18.7c
Tue Mar 31 09:01, 48.2% 18.7c
Tue Mar 31 08:37, 47.6% 18.1c
Tue Mar 31 08:06, 46.5% 17.8c
Tue Mar 31 07:07, 46.2% 17.8c
Tue Mar 31 06:07, 45.2% 17.5c
Tue Mar 31 05:17, 44.6% 17.6c
Tue Mar 31 05:14, 44.7% 17.7c
Tue Mar 31 04:23, 44.8% 18.0c
Tue Mar 31 03:39, 44.9% 18.1c
Tue Mar 31 03:28, 44.9% 18.3c
Tue Mar 31 02:32, 45.0% 18.7c
Tue Mar 31 02:22, 45.0% 18.7c
Tue Mar 31 01:37, 45.3% 19.1c
Tue Mar 31 01:23, 45.3% 19.2c
Tue Mar 31 00:41, 45.7% 19.7c
Tue Mar 31 00:27, 45.8% 19.7c
Mon Mar 30 23:47, 46.3% 20.2c
Mon Mar 30 22:51, 47.0% 20.5c
Mon Mar 30 21:59, 47.2% 20.3c
Mon Mar 30 21:31, 47.8% 20.2c
Mon Mar 30 21:05, 48.2% 20.0c
Mon Mar 30 20:34, 48.7% 19.7c
Mon Mar 30 20:08, 50.1% 19.4c
Mon Mar 30 19:38, 50.6% 19.2c
Mon Mar 30 19:09, 50.0% 18.8c
Mon Mar 30 19:01, 49.3% 18.7c
Mon Mar 30 18:13, 44.0% 18.3c
Mon Mar 30 17:42, 43.9% 18.2c
Mon Mar 30 17:19, 43.9% 18.3c
Mon Mar 30 16:21, 43.2% 18.4c
Mon Mar 30 15:23, 42.4% 18.6c
Mon Mar 30 15:02, 42.9% 18.7c
Mon Mar 30 14:28, 42.3% 18.9c
Mon Mar 30 13:37, 43.8% 19.2c
Mon Mar 30 13:32, 43.7% 19.3c
Mon Mar 30 12:39, 44.1% 19.5c
Mon Mar 30 11:53, 42.4% 19.7c
Mon Mar 30 11:39, 45.8% 19.7c
Mon Mar 30 10:42, 47.8% 19.5c
Mon Mar 30 10:23, 48.4% 19.4c
Mon Mar 30 09:49, 47.2% 19.0c
Mon Mar 30 09:33, 50.3% 18.9c
Mon Mar 30 08:59, 51.0% 18.4c
Mon Mar 30 08:58, 51.1% 18.4c
Mon Mar 30 08:28, 48.2% 17.9c
Mon Mar 30 08:07, 44.3% 17.6c
Mon Mar 30 07:07, 42.5% 17.5c
Mon Mar 30 06:16, 42.8% 17.2c
Mon Mar 30 05:24, 42.9% 17.4c
Mon Mar 30 05:13, 42.9% 17.4c
Mon Mar 30 04:30, 43.0% 17.7c
Mon Mar 30 03:35, 42.7% 17.9c
Mon Mar 30 03:31, 42.6% 18.0c
Mon Mar 30 02:34, 42.6% 18.4c
Mon Mar 30 02:24, 42.7% 18.4c
Mon Mar 30 01:39, 42.8% 18.9c
Mon Mar 30 01:29, 42.9% 18.9c
Mon Mar 30 00:40, 43.5% 19.4c
Mon Mar 30 00:40, 43.5% 19.4c
Sun Mar 29 23:54, 44.6% 19.9c
Sun Mar 29 23:41, 44.9% 20.1c
Sun Mar 29 22:50, 45.5% 20.5c
Sun Mar 29 22:38, 45.2% 20.4c
Sun Mar 29 21:59, 45.2% 20.5c
Sun Mar 29 21:00, 44.9% 20.6c
Sun Mar 29 20:02, 46.9% 20.9c
Sun Mar 29 19:04, 49.5% 21.0c
Sun Mar 29 18:49, 49.9% 20.9c
Sun Mar 29 18:19, 45.0% 20.4c
Sun Mar 29 18:13, 42.7% 20.4c
Sun Mar 29 17:33, 39.0% 20.4c
Sun Mar 29 17:19, 45.0% 20.4c
Sun Mar 29 17:07, 45.1% 20.4c
Sun Mar 29 16:24, 43.6% 20.1c
Sun Mar 29 15:28, 44.9% 20.0c
Sun Mar 29 14:36, 44.0% 20.0c
Sun Mar 29 13:37, 41.4% 19.9c
Sun Mar 29 12:43, 43.4% 19.9c
Sun Mar 29 12:16, 43.8% 19.9c
Sun Mar 29 11:53, 43.0% 19.7c
Sun Mar 29 11:17, 42.4% 19.4c
Sun Mar 29 11:00, 42.5% 19.1c
Sun Mar 29 10:45, 42.6% 18.8c
Sun Mar 29 10:21, 43.4% 18.3c
Sun Mar 29 10:01, 43.4% 17.9c
Sun Mar 29 09:52, 43.0% 17.8c
Sun Mar 29 09:08, 43.4% 17.4c
Sun Mar 29 08:16, 42.7% 17.4c
Sun Mar 29 07:25, 42.4% 17.2c
Sun Mar 29 06:52, 42.4% 17.3c
Sun Mar 29 06:27, 42.5% 17.5c
Sun Mar 29 05:31, 42.7% 17.8c
Sun Mar 29 05:31, 42.8% 17.9c
Sun Mar 29 04:31, 43.1% 18.3c
Sun Mar 29 04:23, 43.2% 18.3c
Sun Mar 29 03:33, 43.3% 18.8c
Sun Mar 29 03:25, 43.3% 18.8c
Sun Mar 29 02:35, 43.6% 19.4c
Sun Mar 29 02:33, 43.6% 19.4c
Sun Mar 29 00:51, 44.0% 19.9c
Sun Mar 29 00:41, 44.2% 20.0c
Sat Mar 28 23:45, 44.9% 20.5c
Sat Mar 28 22:47, 46.3% 20.2c
Sat Mar 28 21:56, 47.1% 20.3c
Sat Mar 28 20:58, 48.0% 20.4c
Sat Mar 28 20:24, 49.9% 20.4c
Sat Mar 28 20:06, 49.9% 20.2c
Sat Mar 28 19:16, 47.6% 20.0c
Sat Mar 28 18:17, 44.6% 20.1c
Sat Mar 28 17:25, 45.3% 19.9c
Sat Mar 28 17:02, 45.1% 19.9c
Sat Mar 28 16:34, 44.2% 19.7c
Sat Mar 28 15:34, 46.7% 19.4c
Sat Mar 28 15:17, 47.1% 19.4c
Sat Mar 28 14:43, 48.2% 19.2c
Sat Mar 28 13:49, 48.5% 19.0c
Sat Mar 28 13:19, 45.1% 18.8c
Sat Mar 28 12:54, 46.7% 19.0c
Sat Mar 28 12:03, 49.6% 19.3c
Sat Mar 28 11:52, 50.0% 19.4c
Sat Mar 28 11:09, 52.0% 19.2c
Sat Mar 28 10:15, 49.6% 18.9c
Sat Mar 28 09:51, 49.4% 18.8c
Sat Mar 28 09:20, 48.2% 18.6c
Sat Mar 28 08:22, 47.5% 18.0c
Sat Mar 28 07:24, 47.6% 18.0c
Sat Mar 28 06:28, 48.0% 18.0c
Sat Mar 28 05:35, 47.0% 18.2c
Sat Mar 28 04:59, 47.1% 18.3c
Sat Mar 28 04:39, 47.0% 18.5c
Sat Mar 28 03:48, 47.2% 18.8c
Sat Mar 28 03:33, 47.2% 18.8c
Sat Mar 28 02:52, 47.4% 19.2c
Sat Mar 28 02:18, 47.5% 19.4c
Sat Mar 28 01:56, 47.8% 19.6c
Sat Mar 28 01:17, 48.1% 19.9c
Sat Mar 28 00:59, 48.5% 20.0c
Sat Mar 28 00:02, 49.4% 20.6c
Fri Mar 27 23:11, 50.6% 20.6c
Fri Mar 27 22:45, 50.1% 20.4c
Fri Mar 27 22:20, 50.3% 20.5c
Fri Mar 27 21:28, 51.1% 20.8c
Fri Mar 27 20:36, 51.0% 20.9c
Fri Mar 27 19:46, 51.2% 21.1c
Fri Mar 27 18:53, 51.8% 21.0c
Fri Mar 27 18:26, 51.4% 20.9c
Fri Mar 27 18:01, 48.7% 20.7c
Fri Mar 27 17:01, 47.9% 20.4c
Fri Mar 27 16:22, 48.5% 20.4c
Fri Mar 27 16:10, 48.2% 20.2c
Fri Mar 27 15:27, 48.4% 19.9c
Fri Mar 27 15:18, 48.4% 19.6c
Fri Mar 27 14:26, 47.9% 19.3c
Fri Mar 27 13:28, 48.3% 19.3c
Fri Mar 27 12:34, 45.6% 19.4c
Fri Mar 27 11:34, 52.3% 19.5c
Fri Mar 27 11:05, 49.6% 19.4c
Fri Mar 27 10:39, 50.1% 19.2c
Fri Mar 27 09:44, 51.0% 18.8c
Fri Mar 27 09:44, 51.0% 18.8c
Fri Mar 27 08:51, 50.5% 18.2c
Fri Mar 27 07:52, 49.2% 18.2c
Fri Mar 27 06:59, 48.3% 18.2c
Fri Mar 27 06:04, 48.3% 18.0c
Fri Mar 27 05:06, 47.7% 18.1c
Fri Mar 27 04:12, 48.1% 18.4c
Fri Mar 27 04:10, 48.0% 18.3c
Fri Mar 27 03:13, 48.4% 18.7c
Fri Mar 27 02:29, 48.8% 18.9c
Fri Mar 27 02:13, 48.9% 19.0c
Fri Mar 27 01:19, 49.1% 19.3c
Fri Mar 27 01:01, 49.3% 19.4c
Fri Mar 27 00:28, 49.5% 19.7c
Thu Mar 26 23:55, 49.7% 19.9c
Thu Mar 26 23:28, 50.0% 20.2c
Thu Mar 26 22:56, 50.1% 20.4c
Thu Mar 26 22:36, 50.4% 20.6c
Thu Mar 26 21:37, 51.4% 20.9c
Thu Mar 26 21:26, 51.6% 20.9c
Thu Mar 26 20:37, 51.6% 20.7c
Thu Mar 26 19:45, 52.5% 20.4c
Thu Mar 26 19:33, 52.8% 20.4c
Thu Mar 26 18:51, 52.9% 19.9c
Thu Mar 26 18:45, 53.0% 19.8c
Thu Mar 26 18:00, 50.3% 19.4c
Thu Mar 26 17:49, 50.3% 19.3c
Thu Mar 26 16:50, 50.3% 19.1c
Thu Mar 26 15:59, 50.7% 19.0c
Thu Mar 26 15:08, 51.3% 18.9c
Thu Mar 26 14:17, 49.6% 18.8c
Thu Mar 26 13:19, 48.3% 18.6c
Thu Mar 26 12:24, 48.7% 18.5c
Thu Mar 26 11:29, 47.8% 18.7c
Thu Mar 26 10:31, 50.0% 19.0c
Thu Mar 26 10:03, 51.2% 18.9c
Thu Mar 26 09:31, 49.3% 18.5c
Thu Mar 26 09:20, 49.3% 18.4c
Thu Mar 26 08:32, 47.8% 17.8c
Thu Mar 26 07:40, 47.4% 17.8c
Thu Mar 26 06:41, 47.1% 17.8c
Thu Mar 26 05:42, 47.2% 17.9c
Thu Mar 26 05:35, 47.1% 17.9c
Thu Mar 26 04:48, 47.4% 18.1c
Thu Mar 26 03:56, 47.5% 18.4c
Thu Mar 26 03:51, 47.6% 18.4c
Thu Mar 26 02:53, 47.9% 18.8c
Thu Mar 26 02:27, 48.0% 18.9c
Thu Mar 26 01:58, 48.3% 19.1c
Thu Mar 26 01:09, 48.5% 19.4c
Thu Mar 26 01:01, 48.6% 19.5c
Thu Mar 26 00:09, 49.1% 19.9c
Thu Mar 26 00:01, 49.2% 20.0c
Wed Mar 25 23:06, 50.4% 20.4c
Wed Mar 25 22:09, 51.2% 20.7c
Wed Mar 25 21:11, 51.3% 20.6c
Wed Mar 25 20:19, 52.0% 20.5c
Wed Mar 25 19:49, 52.8% 20.4c
Wed Mar 25 19:22, 53.3% 20.3c
Wed Mar 25 18:29, 53.9% 20.0c
Wed Mar 25 18:13, 51.1% 19.9c
Wed Mar 25 17:36, 50.8% 19.9c
Wed Mar 25 16:44, 47.1% 19.7c
Wed Mar 25 15:48, 47.3% 19.7c
Wed Mar 25 14:52, 47.1% 19.7c
Wed Mar 25 14:00, 45.5% 19.5c
Wed Mar 25 13:25, 45.0% 19.8c
Wed Mar 25 13:06, 45.6% 19.9c
Wed Mar 25 12:10, 49.5% 20.1c
Wed Mar 25 11:25, 51.1% 19.8c
Wed Mar 25 11:17, 51.1% 19.7c
Wed Mar 25 10:23, 50.9% 19.4c
Wed Mar 25 10:13, 51.4% 19.3c
Wed Mar 25 09:27, 51.7% 18.8c
Wed Mar 25 09:25, 51.9% 18.7c
Wed Mar 25 08:31, 49.3% 18.2c
Wed Mar 25 07:40, 47.1% 18.2c
Wed Mar 25 06:46, 47.8% 18.3c
Wed Mar 25 05:50, 47.3% 18.3c
Wed Mar 25 05:36, 46.3% 18.3c
Wed Mar 25 04:56, 46.5% 18.6c
Wed Mar 25 04:05, 46.4% 18.8c
Wed Mar 25 03:56, 46.4% 18.8c
Wed Mar 25 03:14, 46.4% 19.1c
Wed Mar 25 01:23, 46.6% 19.8c
Wed Mar 25 01:22, 46.6% 19.9c
Wed Mar 25 00:25, 46.9% 20.3c
Wed Mar 25 00:24, 47.0% 20.3c
Tue Mar 24 23:31, 47.3% 20.8c
Tue Mar 24 23:28, 47.4% 20.9c
Tue Mar 24 22:31, 48.8% 21.4c
Tue Mar 24 22:05, 49.8% 21.4c
Tue Mar 24 21:39, 50.1% 21.2c
Tue Mar 24 20:45, 49.2% 21.1c
Tue Mar 24 19:11, 50.7% 20.9c
Tue Mar 24 18:57, 51.0% 20.7c
Tue Mar 24 18:01, 50.5% 20.5c
Tue Mar 24 17:07, 47.4% 20.1c
Tue Mar 24 16:16, 46.3% 20.1c
Tue Mar 24 14:24, 47.3% 20.4c
Tue Mar 24 14:19, 47.3% 20.2c
Tue Mar 24 13:26, 45.3% 19.7c
Tue Mar 24 12:34, 45.7% 19.9c
Tue Mar 24 11:35, 46.3% 20.1c
Tue Mar 24 10:45, 46.5% 19.8c
Tue Mar 24 10:43, 46.4% 19.9c
Tue Mar 24 10:18, 46.9% 19.3c
Tue Mar 24 09:50, 47.6% 18.8c
Tue Mar 24 09:47, 47.4% 18.7c
Tue Mar 24 09:29, 47.2% 18.3c
Tue Mar 24 08:53, 46.8% 17.8c
Tue Mar 24 07:52, 44.5% 17.6c
Tue Mar 24 07:02, 44.6% 17.7c
Tue Mar 24 06:09, 44.3% 17.7c
Tue Mar 24 05:10, 43.3% 17.6c
Tue Mar 24 04:14, 43.5% 17.8c
Tue Mar 24 04:14, 43.5% 17.8c
Tue Mar 24 03:21, 43.6% 18.1c
Tue Mar 24 02:24, 43.6% 18.3c
Tue Mar 24 02:24, 43.6% 18.4c
Tue Mar 24 01:24, 43.9% 18.8c
Tue Mar 24 01:07, 44.0% 18.8c
Tue Mar 24 00:28, 44.2% 19.2c
Tue Mar 24 00:00, 44.3% 19.3c
Mon Mar 23 23:35, 44.3% 19.6c
Mon Mar 23 23:06, 44.6% 19.9c
Mon Mar 23 22:36, 44.8% 20.2c
Mon Mar 23 21:45, 45.5% 20.5c
Mon Mar 23 20:51, 45.7% 20.6c
Mon Mar 23 19:58, 45.4% 20.7c
Mon Mar 23 19:07, 46.8% 20.8c
Mon Mar 23 18:14, 46.7% 20.4c
Mon Mar 23 17:55, 45.2% 20.4c
Mon Mar 23 17:18, 42.2% 20.5c
Mon Mar 23 16:24, 38.9% 20.4c
Mon Mar 23 15:28, 38.9% 20.4c
Mon Mar 23 14:49, 39.1% 20.4c
Mon Mar 23 14:28, 40.1% 20.4c
Mon Mar 23 13:33, 44.0% 20.1c

s3 Loft HTP
Tue Apr 7 13:52, 61.5% 23.4c

Tue Apr 7 13:52, 61.5% 23.4c
1027.5 mb
Tue Apr 7 13:37, 62.7% 23.3c
1027.3 mb
Tue Apr 7 13:05, 63.8% 22.9c
1027.6 mb
Tue Apr 7 12:59, 64.2% 22.7c
1027.7 mb
Tue Apr 7 12:47, 65.5% 22.4c
1027.7 mb
Tue Apr 7 12:33, 65.0% 21.9c
1027.7 mb
Tue Apr 7 12:18, 66.7% 21.4c
1027.7 mb
Tue Apr 7 12:09, 66.1% 20.9c
1027.7 mb
Tue Apr 7 11:59, 66.4% 20.3c
1027.8 mb
Tue Apr 7 11:58, 66.6% 20.3c
1027.8 mb
Tue Apr 7 11:48, 67.3% 19.8c
1027.8 mb
Tue Apr 7 11:39, 67.4% 19.3c
1027.9 mb
Tue Apr 7 11:33, 67.1% 18.8c
1027.9 mb
Tue Apr 7 11:27, 69.0% 18.3c
1027.9 mb
Tue Apr 7 11:21, 69.0% 17.8c
1028.0 mb
Tue Apr 7 11:17, 67.9% 17.2c
1028.0 mb
Tue Apr 7 11:12, 67.1% 16.7c
1028.0 mb
Tue Apr 7 11:07, 67.2% 16.4c
1028.1 mb
Tue Apr 7 11:05, 68.0% 16.2c
1028.1 mb
Tue Apr 7 10:59, 67.1% 15.7c
1028.0 mb
Tue Apr 7 10:54, 67.6% 15.2c
1028.1 mb
Tue Apr 7 10:49, 67.1% 14.7c
1028.2 mb
Tue Apr 7 10:43, 67.0% 14.1c
1028.2 mb
Tue Apr 7 10:38, 66.9% 13.6c
1028.2 mb
Tue Apr 7 10:32, 66.9% 13.0c
1028.2 mb
Tue Apr 7 10:26, 66.5% 12.5c
1028.2 mb
Tue Apr 7 10:20, 65.7% 12.0c
1028.2 mb
Tue Apr 7 10:11, 65.4% 11.5c
1028.2 mb
Tue Apr 7 10:09, 65.2% 11.3c
1028.2 mb
Tue Apr 7 10:02, 65.1% 11.0c
1028.1 mb
Tue Apr 7 09:48, 64.9% 10.4c
1028.1 mb
Tue Apr 7 09:33, 65.0% 9.9c
1028.2 mb
Tue Apr 7 09:16, 65.0% 9.5c
1028.2 mb
Tue Apr 7 09:14, 65.0% 9.4c
1028.2 mb
Tue Apr 7 08:53, 64.8% 8.9c
1028.2 mb
Tue Apr 7 08:30, 64.5% 8.4c
1028.1 mb
Tue Apr 7 08:16, 64.1% 8.3c
1028.0 mb
Tue Apr 7 08:06, 63.8% 8.1c
1027.9 mb
Tue Apr 7 07:36, 63.1% 8.0c
1027.6 mb
Tue Apr 7 07:17, 63.1% 8.1c
1027.5 mb
Tue Apr 7 07:01, 63.0% 8.1c
1027.3 mb
Tue Apr 7 06:22, 62.6% 8.3c
1027.1 mb
Tue Apr 7 06:11, 62.5% 8.4c
1027.1 mb
Tue Apr 7 05:23, 62.2% 8.7c
1026.8 mb
Tue Apr 7 05:18, 62.2% 8.8c
1026.8 mb
Tue Apr 7 04:53, 62.1% 9.0c
1026.6 mb
Tue Apr 7 04:31, 61.9% 9.2c
1026.5 mb
Tue Apr 7 03:55, 61.7% 9.5c
1026.3 mb
Tue Apr 7 03:40, 61.6% 9.6c
1026.2 mb
Tue Apr 7 03:34, 61.7% 9.6c
1026.1 mb
Tue Apr 7 03:04, 61.3% 9.9c
1025.8 mb
Tue Apr 7 02:43, 61.3% 10.1c
1025.7 mb
Tue Apr 7 02:41, 61.3% 10.1c
1025.5 mb
Tue Apr 7 01:59, 61.1% 10.5c
1025.3 mb
Tue Apr 7 01:44, 61.1% 10.6c
1025.1 mb
Tue Apr 7 01:41, 61.0% 10.7c
1025.0 mb
Tue Apr 7 01:16, 60.9% 11.0c
1024.8 mb
Tue Apr 7 00:46, 60.8% 11.3c
1024.5 mb
Tue Apr 7 00:44, 60.7% 11.2c
1024.5 mb
Tue Apr 7 00:27, 60.7% 11.5c
1024.3 mb
Tue Apr 7 00:09, 60.6% 11.7c
1024.0 mb
Mon Apr 6 23:54, 60.5% 11.8c
1023.7 mb
Mon Apr 6 23:47, 60.5% 11.9c
1023.6 mb
Mon Apr 6 23:34, 60.4% 12.1c
1023.4 mb
Mon Apr 6 23:34, 60.4% 12.1c
1023.2 mb
Mon Apr 6 23:17, 60.2% 12.4c
1023.3 mb
Mon Apr 6 23:14, 60.1% 12.4c
1023.2 mb
Mon Apr 6 22:57, 60.1% 12.6c
1022.9 mb
Mon Apr 6 22:33, 60.1% 12.9c
1022.7 mb
Mon Apr 6 22:24, 59.9% 13.1c
1022.5 mb
Mon Apr 6 22:23, 60.0% 13.1c
1022.4 mb
Mon Apr 6 22:05, 59.9% 13.4c
1022.2 mb
Mon Apr 6 21:47, 59.8% 13.7c
1021.9 mb
Mon Apr 6 21:27, 59.7% 14.1c
1021.8 mb
Mon Apr 6 21:24, 59.6% 14.2c
1021.8 mb
Mon Apr 6 21:10, 59.6% 14.5c
1021.5 mb
Mon Apr 6 21:03, 59.6% 14.6c
1021.3 mb
Mon Apr 6 20:42, 59.5% 15.1c
1021.0 mb
Mon Apr 6 20:36, 59.5% 15.2c
1020.9 mb
Mon Apr 6 20:29, 59.5% 15.4c
1020.8 mb
Mon Apr 6 20:18, 59.5% 15.7c
1020.5 mb
Mon Apr 6 20:03, 59.6% 16.1c
1020.3 mb
Mon Apr 6 19:50, 59.6% 16.4c
1020.0 mb
Mon Apr 6 19:40, 59.6% 16.7c
1020.0 mb
Mon Apr 6 19:32, 59.8% 16.9c
1019.9 mb
Mon Apr 6 19:24, 59.9% 17.2c
1019.6 mb
Mon Apr 6 19:08, 60.3% 17.6c
1019.4 mb
Mon Apr 6 18:56, 60.4% 17.9c
1019.1 mb
Mon Apr 6 18:48, 60.5% 18.1c
1018.9 mb
Mon Apr 6 18:44, 60.6% 18.2c
1018.8 mb
Mon Apr 6 18:38, 60.6% 18.3c
1018.6 mb
Mon Apr 6 18:18, 60.6% 18.8c
1018.3 mb
Mon Apr 6 18:01, 60.7% 19.1c
1018.1 mb
Mon Apr 6 17:56, 60.4% 19.1c
1018.0 mb
Mon Apr 6 17:48, 60.8% 19.2c
1017.8 mb
Mon Apr 6 17:36, 60.0% 19.4c
1017.5 mb
Mon Apr 6 17:23, 60.0% 19.5c
1017.3 mb
Mon Apr 6 17:02, 59.6% 19.6c
1017.0 mb
Mon Apr 6 16:56, 59.6% 19.7c
1016.9 mb
Mon Apr 6 16:49, 59.5% 19.8c
1016.7 mb
Mon Apr 6 16:39, 59.6% 19.9c
1016.5 mb
Mon Apr 6 16:21, 59.8% 20.1c
1016.2 mb
Mon Apr 6 16:03, 60.3% 20.2c
1016.0 mb
Mon Apr 6 15:56, 60.5% 20.3c
1015.8 mb
Mon Apr 6 15:41, 60.8% 20.3c
1015.6 mb
Mon Apr 6 15:22, 61.2% 20.3c
1015.4 mb
Mon Apr 6 15:09, 61.4% 20.3c
1015.1 mb
Mon Apr 6 15:00, 61.5% 20.3c
1014.9 mb
Mon Apr 6 14:53, 61.8% 20.2c
1014.9 mb
Mon Apr 6 14:31, 62.4% 20.1c
1014.6 mb
Mon Apr 6 14:16, 62.7% 19.9c
1014.3 mb
Mon Apr 6 14:02, 63.2% 19.8c
1014.1 mb
Mon Apr 6 14:01, 63.3% 19.7c
1014.0 mb
Mon Apr 6 13:50, 63.4% 19.5c
1013.8 mb
Mon Apr 6 13:42, 63.6% 19.3c
1013.5 mb
Mon Apr 6 13:28, 64.0% 18.9c
1013.3 mb
Mon Apr 6 13:23, 64.1% 18.8c
1013.0 mb
Mon Apr 6 13:09, 64.0% 18.3c
1012.9 mb
Mon Apr 6 13:04, 64.2% 18.2c
1012.8 mb
Mon Apr 6 13:00, 64.1% 18.1c
1012.7 mb
Mon Apr 6 12:47, 64.2% 17.7c
1012.4 mb
Mon Apr 6 12:35, 64.4% 17.3c
1012.1 mb
Mon Apr 6 12:22, 64.5% 17.0c
1011.9 mb
Mon Apr 6 12:12, 64.8% 16.7c
1011.6 mb
Mon Apr 6 12:05, 65.0% 16.5c
1011.4 mb
Mon Apr 6 12:04, 64.9% 16.5c
1011.4 mb
Mon Apr 6 11:53, 65.0% 16.2c
1011.1 mb
Mon Apr 6 11:44, 65.2% 15.9c
1010.8 mb
Mon Apr 6 11:28, 65.3% 15.4c
1010.6 mb
Mon Apr 6 11:14, 65.2% 15.0c
1010.3 mb
Mon Apr 6 11:11, 65.2% 14.9c
1010.2 mb
Mon Apr 6 11:02, 65.2% 14.6c
1010.0 mb
Mon Apr 6 10:49, 65.5% 14.2c
1009.8 mb
Mon Apr 6 10:44, 65.2% 13.9c
1009.5 mb
Mon Apr 6 10:32, 65.0% 13.4c
1009.4 mb
Mon Apr 6 10:25, 64.8% 13.2c
1009.1 mb
Mon Apr 6 10:19, 64.7% 13.0c
1008.9 mb
Mon Apr 6 10:09, 64.4% 12.8c
1008.9 mb
Mon Apr 6 10:00, 64.3% 12.6c
1008.6 mb
Mon Apr 6 09:41, 64.1% 12.5c
1008.3 mb
Mon Apr 6 09:23, 64.1% 12.4c
1008.1 mb
Mon Apr 6 09:19, 64.2% 12.5c
1007.9 mb
Mon Apr 6 09:16, 63.9% 12.4c
1007.8 mb
Mon Apr 6 09:07, 64.0% 12.4c
1007.6 mb
Mon Apr 6 09:00, 63.9% 12.4c
1007.3 mb
Mon Apr 6 08:51, 64.0% 12.4c
1007.0 mb
Mon Apr 6 08:47, 64.1% 12.4c
1006.7 mb
Mon Apr 6 08:37, 63.7% 12.3c
1006.5 mb
Mon Apr 6 08:23, 63.8% 12.3c
1006.2 mb
Mon Apr 6 08:20, 63.6% 12.3c
1006.1 mb
Mon Apr 6 08:11, 63.5% 12.2c
1005.9 mb
Mon Apr 6 07:52, 63.0% 12.2c
1005.7 mb
Mon Apr 6 07:30, 62.8% 12.3c
1005.4 mb
Mon Apr 6 07:24, 62.9% 12.3c
1005.3 mb
Mon Apr 6 07:12, 62.7% 12.4c
1005.1 mb
Mon Apr 6 06:54, 62.5% 12.6c
1004.8 mb
Mon Apr 6 06:42, 62.7% 12.7c
1004.6 mb
Mon Apr 6 06:28, 62.4% 12.8c
1004.3 mb
Mon Apr 6 06:21, 62.3% 12.9c
1004.1 mb
Mon Apr 6 06:11, 61.9% 12.9c
1003.8 mb
Mon Apr 6 05:54, 61.9% 13.1c
1003.6 mb
Mon Apr 6 05:41, 61.8% 13.3c
1003.3 mb
Mon Apr 6 05:26, 61.7% 13.4c
1003.2 mb
Mon Apr 6 05:04, 61.5% 13.7c
1003.0 mb
Mon Apr 6 04:57, 61.5% 13.7c
1002.8 mb
Mon Apr 6 04:22, 61.4% 14.1c
1002.5 mb
Mon Apr 6 04:04, 61.5% 14.3c
1002.2 mb
Mon Apr 6 03:56, 61.5% 14.4c
1001.9 mb
Mon Apr 6 03:46, 61.5% 14.5c
1001.7 mb
Mon Apr 6 03:41, 61.5% 14.6c
1001.4 mb
Mon Apr 6 03:39, 61.5% 14.6c
1001.3 mb
Mon Apr 6 03:33, 61.5% 14.6c
1001.1 mb
Mon Apr 6 03:16, 61.3% 14.8c
1001.4 mb
Mon Apr 6 03:03, 61.5% 14.8c
1001.1 mb
Mon Apr 6 02:51, 61.1% 14.9c
1000.9 mb
Mon Apr 6 02:47, 61.0% 15.0c
1000.8 mb
Mon Apr 6 02:36, 60.6% 15.0c
1000.6 mb
Mon Apr 6 01:55, 60.6% 15.4c
1000.7 mb
Mon Apr 6 01:37, 60.1% 15.5c
1000.6 mb
Mon Apr 6 00:55, 60.0% 16.0c
1000.6 mb
Mon Apr 6 00:53, 59.9% 16.0c
1000.5 mb
Sun Apr 5 23:55, 59.7% 16.4c
1000.4 mb
Sun Apr 5 23:38, 59.7% 16.5c
1000.5 mb
Sun Apr 5 23:22, 59.5% 16.6c
1000.8 mb
Sun Apr 5 22:54, 59.4% 16.9c
1001.0 mb
Sun Apr 5 22:45, 59.5% 17.0c
1001.1 mb
Sun Apr 5 22:16, 59.3% 17.3c
1001.3 mb
Sun Apr 5 22:02, 59.4% 17.5c
1001.2 mb
Sun Apr 5 21:18, 59.1% 17.8c
1001.2 mb
Sun Apr 5 21:05, 58.9% 18.0c
1001.2 mb
Sun Apr 5 20:48, 58.8% 18.3c
1001.2 mb
Sun Apr 5 20:25, 59.4% 18.8c
1001.4 mb
Sun Apr 5 20:12, 59.7% 19.1c
1001.5 mb
Sun Apr 5 20:04, 59.5% 19.4c
1001.5 mb
Sun Apr 5 19:36, 60.0% 19.9c
1001.6 mb
Sun Apr 5 19:16, 59.9% 20.4c
1001.7 mb
Sun Apr 5 18:53, 60.3% 20.9c
1001.9 mb
Sun Apr 5 18:33, 60.6% 21.4c
1002.0 mb
Sun Apr 5 18:14, 61.0% 21.8c
1002.3 mb
Sun Apr 5 18:12, 61.0% 21.9c
1002.2 mb
Sun Apr 5 17:48, 61.4% 22.3c
1002.5 mb
Sun Apr 5 17:21, 62.8% 22.6c
1002.8 mb
Sun Apr 5 17:10, 62.8% 22.7c
1002.8 mb
Sun Apr 5 16:45, 63.8% 22.7c
1003.0 mb
Sun Apr 5 16:34, 63.8% 22.7c
1003.3 mb
Sun Apr 5 16:29, 64.7% 22.7c
1003.5 mb
Sun Apr 5 16:17, 64.3% 22.6c
1003.6 mb
Sun Apr 5 15:47, 65.5% 22.4c
1003.9 mb
Sun Apr 5 15:38, 65.7% 22.1c
1004.0 mb
Sun Apr 5 15:32, 66.0% 21.8c
1004.0 mb
Sun Apr 5 15:22, 65.8% 21.5c
1004.3 mb
Sun Apr 5 15:12, 65.9% 21.1c
1004.6 mb
Sun Apr 5 15:03, 65.3% 20.7c
1004.8 mb
Sun Apr 5 14:53, 65.7% 20.2c
1004.9 mb
Sun Apr 5 14:46, 65.2% 19.7c
1005.1 mb
Sun Apr 5 14:45, 65.1% 19.7c
1005.0 mb
Sun Apr 5 14:30, 65.3% 19.2c
1005.2 mb
Sun Apr 5 14:18, 65.6% 18.9c
1005.5 mb
Sun Apr 5 14:04, 65.9% 18.5c
1005.8 mb
Sun Apr 5 13:47, 66.1% 18.2c
1006.0 mb
Sun Apr 5 13:42, 66.7% 18.2c
1006.1 mb
Sun Apr 5 13:27, 66.1% 17.8c
1006.3 mb
Sun Apr 5 13:12, 66.0% 17.3c
1006.5 mb
Sun Apr 5 12:53, 66.4% 17.0c
1006.8 mb
Sun Apr 5 12:49, 66.4% 17.0c
1006.9 mb
Sun Apr 5 12:31, 67.2% 16.8c
1007.1 mb
Sun Apr 5 12:24, 67.1% 16.7c
1007.3 mb
Sun Apr 5 12:15, 67.3% 16.5c

s4 Hallway PiR
Tue Apr 7 14:04, status motion

Tue Apr 7 14:04, status motion
Tue Apr 7 14:03, status motion
Tue Apr 7 14:00, status motion
Tue Apr 7 13:58, status motion
Tue Apr 7 13:46, no_motion 30m
Tue Apr 7 13:36, no_motion 20m
Tue Apr 7 13:26, no_motion 10m
Tue Apr 7 13:16, status motion
Tue Apr 7 13:14, status motion
Tue Apr 7 13:08, status motion
Tue Apr 7 13:07, status motion
Tue Apr 7 13:06, status motion
Tue Apr 7 13:04, no_motion 20m
Tue Apr 7 12:55, no_motion 10m
Tue Apr 7 12:45, status motion
Tue Apr 7 12:42, no_motion 30m
Tue Apr 7 12:32, no_motion 20m
Tue Apr 7 12:22, no_motion 10m
Tue Apr 7 12:12, status motion
Tue Apr 7 12:11, status motion
Tue Apr 7 12:04, no_motion 10m
Tue Apr 7 11:54, status motion
Tue Apr 7 11:53, status motion
Tue Apr 7 11:50, status motion
Tue Apr 7 11:41, status motion
Tue Apr 7 11:38, status motion
Tue Apr 7 11:35, no_motion 30m
Tue Apr 7 11:25, no_motion 20m
Tue Apr 7 11:15, no_motion 10m
Tue Apr 7 11:05, status motion
Tue Apr 7 10:47, no_motion 30m
Tue Apr 7 10:37, no_motion 20m
Tue Apr 7 10:27, no_motion 10m
Tue Apr 7 10:17, status motion
Tue Apr 7 10:10, no_motion 20m
Tue Apr 7 10:00, no_motion 10m
Tue Apr 7 09:50, status motion
Tue Apr 7 09:48, no_motion 20m
Tue Apr 7 09:38, no_motion 10m
Tue Apr 7 09:28, status motion
Tue Apr 7 09:24, status motion
Tue Apr 7 09:23, no_motion 20m
Tue Apr 7 09:13, no_motion 10m
Tue Apr 7 09:03, status motion
Tue Apr 7 08:55, status motion
Tue Apr 7 08:54, status motion
Tue Apr 7 08:50, status motion
Tue Apr 7 08:48, status motion
Tue Apr 7 08:46, status motion
Tue Apr 7 08:45, status motion
Tue Apr 7 08:44, status motion
Tue Apr 7 08:43, status motion
Tue Apr 7 08:42, status motion
Tue Apr 7 08:38, no_motion 20m
Tue Apr 7 08:28, no_motion 10m
Tue Apr 7 08:18, status motion
Tue Apr 7 08:10, no_motion 10m
Tue Apr 7 08:00, status motion
Tue Apr 7 07:55, status motion
Tue Apr 7 07:50, no_motion 30m
Tue Apr 7 07:40, no_motion 20m
Tue Apr 7 07:30, no_motion 10m
Tue Apr 7 07:20, status motion
Tue Apr 7 07:15, status motion
Tue Apr 7 06:36, no_motion 30m
Tue Apr 7 06:26, no_motion 20m
Tue Apr 7 06:16, no_motion 10m
Tue Apr 7 06:06, status motion
Tue Apr 7 05:58, status motion
Tue Apr 7 05:56, status motion
Tue Apr 7 05:55, status motion
Tue Apr 7 02:54, no_motion 30m
Tue Apr 7 02:44, no_motion 20m
Tue Apr 7 02:34, no_motion 10m
Tue Apr 7 02:24, status motion
Mon Apr 6 22:29, no_motion 30m
Mon Apr 6 22:19, no_motion 20m
Mon Apr 6 22:09, no_motion 10m
Mon Apr 6 21:59, status motion
Mon Apr 6 21:58, status motion
Mon Apr 6 21:57, status motion
Mon Apr 6 21:53, status motion
Mon Apr 6 21:48, status motion
Mon Apr 6 21:46, status motion
Mon Apr 6 21:44, status motion
Mon Apr 6 21:38, no_motion 20m
Mon Apr 6 21:28, no_motion 10m
Mon Apr 6 21:18, status motion
Mon Apr 6 21:16, status motion
Mon Apr 6 21:04, no_motion 30m
Mon Apr 6 20:54, no_motion 20m
Mon Apr 6 20:45, no_motion 10m
Mon Apr 6 20:35, status motion
Mon Apr 6 20:33, status motion
Mon Apr 6 19:11, no_motion 30m
Mon Apr 6 19:01, no_motion 20m
Mon Apr 6 18:51, no_motion 10m
Mon Apr 6 18:41, status motion
Mon Apr 6 18:32, no_motion 10m
Mon Apr 6 18:22, status motion
Mon Apr 6 18:20, status motion
Mon Apr 6 18:14, no_motion 10m
Mon Apr 6 18:04, status motion
Mon Apr 6 18:03, status motion
Mon Apr 6 18:02, status motion
Mon Apr 6 18:01, status motion
Mon Apr 6 17:59, status motion
Mon Apr 6 17:52, status motion
Mon Apr 6 17:51, status motion
Mon Apr 6 17:50, status motion
Mon Apr 6 17:49, no_motion 10m
Mon Apr 6 17:39, status motion
Mon Apr 6 17:35, status motion
Mon Apr 6 16:32, no_motion 30m
Mon Apr 6 16:22, no_motion 20m
Mon Apr 6 16:12, no_motion 10m
Mon Apr 6 16:02, status motion
Mon Apr 6 16:01, status motion
Mon Apr 6 16:00, status motion
Mon Apr 6 15:54, no_motion 10m
Mon Apr 6 15:44, status motion
Mon Apr 6 14:57, no_motion 30m
Mon Apr 6 14:47, no_motion 20m
Mon Apr 6 14:37, no_motion 10m
Mon Apr 6 14:28, status motion
Mon Apr 6 14:26, status motion
Mon Apr 6 14:23, status motion
Mon Apr 6 14:22, status motion
Mon Apr 6 14:14, status motion
Mon Apr 6 14:09, status motion
Mon Apr 6 14:08, status motion
Mon Apr 6 14:04, status motion
Mon Apr 6 13:40, no_motion 30m
Mon Apr 6 13:30, no_motion 20m
Mon Apr 6 13:20, no_motion 10m
Mon Apr 6 13:10, status motion
Mon Apr 6 13:09, status motion
Mon Apr 6 13:08, status motion
Mon Apr 6 13:07, status motion
Mon Apr 6 13:06, status motion
Mon Apr 6 13:05, status motion
Mon Apr 6 13:04, status motion
Mon Apr 6 13:03, status motion
Mon Apr 6 13:00, status motion
Mon Apr 6 12:59, status motion
Mon Apr 6 12:58, status motion
Mon Apr 6 12:55, no_motion 20m
Mon Apr 6 12:45, no_motion 10m
Mon Apr 6 12:35, status motion
Mon Apr 6 12:34, status motion
Mon Apr 6 12:33, status motion
Mon Apr 6 12:31, status motion
Mon Apr 6 12:27, status motion
Mon Apr 6 12:26, status motion
Mon Apr 6 12:25, status motion
Mon Apr 6 12:23, status motion
Mon Apr 6 12:22, status motion
Mon Apr 6 12:21, status motion
Mon Apr 6 12:16, status motion
Mon Apr 6 12:14, status motion
Mon Apr 6 12:06, status motion
Mon Apr 6 12:02, status motion
Mon Apr 6 12:01, status motion
Mon Apr 6 11:59, status motion
Mon Apr 6 11:55, status motion
Mon Apr 6 11:54, status motion
Mon Apr 6 11:52, status motion
Mon Apr 6 11:47, status motion
Mon Apr 6 11:46, status motion
Mon Apr 6 11:44, status motion
Mon Apr 6 11:42, status motion
Mon Apr 6 11:10, no_motion 30m
Mon Apr 6 11:00, no_motion 20m
Mon Apr 6 10:50, no_motion 10m
Mon Apr 6 10:40, status motion
Mon Apr 6 10:35, status motion
Mon Apr 6 10:34, status motion
Mon Apr 6 10:32, status motion
Mon Apr 6 10:29, status motion
Mon Apr 6 10:24, status motion
Mon Apr 6 10:18, status motion
Mon Apr 6 10:02, no_motion 30m
Mon Apr 6 09:52, no_motion 20m
Mon Apr 6 09:42, no_motion 10m
Mon Apr 6 09:32, status motion
Mon Apr 6 09:29, status motion
Mon Apr 6 09:20, no_motion 10m
Mon Apr 6 09:10, status motion
Mon Apr 6 09:08, status motion
Mon Apr 6 09:03, no_motion 20m
Mon Apr 6 08:53, no_motion 10m
Mon Apr 6 08:43, status motion
Mon Apr 6 08:42, status motion
Mon Apr 6 08:34, no_motion 10m
Mon Apr 6 08:24, status motion
Mon Apr 6 08:23, status motion
Mon Apr 6 08:20, status motion
Mon Apr 6 08:18, status motion
Mon Apr 6 08:17, status motion
Mon Apr 6 08:15, status motion
Mon Apr 6 08:14, status motion
Mon Apr 6 08:13, status motion
Mon Apr 6 08:12, status motion
Mon Apr 6 08:10, status motion
Mon Apr 6 08:09, status motion
Mon Apr 6 08:08, status motion
Mon Apr 6 08:02, status motion
Mon Apr 6 08:01, no_motion 10m
Mon Apr 6 07:51, status motion
Mon Apr 6 06:48, no_motion 30m
Mon Apr 6 06:38, no_motion 20m
Mon Apr 6 06:28, no_motion 10m
Mon Apr 6 06:18, status motion
Mon Apr 6 06:13, status motion
Mon Apr 6 06:02, no_motion 30m
Mon Apr 6 05:52, no_motion 20m
Mon Apr 6 05:42, no_motion 10m
Mon Apr 6 05:32, status motion
Mon Apr 6 05:30, status motion
Mon Apr 6 05:29, status motion
Mon Apr 6 05:26, status motion
Mon Apr 6 05:23, status motion
Mon Apr 6 02:50, no_motion 30m
Mon Apr 6 02:40, no_motion 20m
Mon Apr 6 02:30, no_motion 10m
Mon Apr 6 02:20, status motion
Mon Apr 6 02:18, no_motion 30m
Mon Apr 6 02:08, no_motion 20m
Mon Apr 6 01:58, no_motion 10m
Mon Apr 6 01:48, status motion
Mon Apr 6 01:33, no_motion 30m
Mon Apr 6 01:23, no_motion 20m
Mon Apr 6 01:13, no_motion 10m
Mon Apr 6 01:03, status motion
Mon Apr 6 01:01, status motion
Sun Apr 5 23:17, no_motion 30m
Sun Apr 5 23:07, no_motion 20m
Sun Apr 5 22:57, no_motion 10m
Sun Apr 5 22:47, status motion
Sun Apr 5 22:44, status motion
Sun Apr 5 22:43, no_motion 30m
Sun Apr 5 22:33, no_motion 20m
Sun Apr 5 22:23, no_motion 10m
Sun Apr 5 22:13, status motion
Sun Apr 5 22:12, status motion
Sun Apr 5 22:10, status motion
Sun Apr 5 21:13, no_motion 30m
Sun Apr 5 21:03, no_motion 20m
Sun Apr 5 20:54, no_motion 10m
Sun Apr 5 20:44, status motion
Sun Apr 5 20:42, status motion
Sun Apr 5 20:42, no_motion 20m
Sun Apr 5 20:32, no_motion 10m
Sun Apr 5 20:22, status motion
Sun Apr 5 20:09, no_motion 30m
Sun Apr 5 19:59, no_motion 20m
Sun Apr 5 19:49, no_motion 10m
Sun Apr 5 19:39, status motion
Sun Apr 5 19:36, status motion
Sun Apr 5 19:34, status motion
Sun Apr 5 19:28, no_motion 10m
Sun Apr 5 19:18, status motion
Sun Apr 5 19:17, status motion
Sun Apr 5 19:00, no_motion 30m
Sun Apr 5 18:50, no_motion 20m
Sun Apr 5 18:40, no_motion 10m
Sun Apr 5 18:30, status motion
Sun Apr 5 18:29, status motion
Sun Apr 5 18:26, status motion
Sun Apr 5 18:25, status motion
Sun Apr 5 18:21, status motion
Sun Apr 5 18:17, status motion
Sun Apr 5 18:11, status motion
Sun Apr 5 18:10, status motion
Sun Apr 5 18:09, status motion
Sun Apr 5 18:05, status motion
Sun Apr 5 18:02, no_motion 20m
Sun Apr 5 17:52, no_motion 10m
Sun Apr 5 17:42, status motion
Sun Apr 5 17:33, no_motion 30m
Sun Apr 5 17:23, no_motion 20m
Sun Apr 5 17:13, no_motion 10m
Sun Apr 5 17:03, status motion
Sun Apr 5 17:01, status motion
Sun Apr 5 16:59, status motion
Sun Apr 5 16:58, status motion
Sun Apr 5 16:55, status motion
Sun Apr 5 16:53, status motion
Sun Apr 5 16:51, status motion
Sun Apr 5 16:46, no_motion 20m
Sun Apr 5 16:36, no_motion 10m
Sun Apr 5 16:26, status motion
Sun Apr 5 14:42, no_motion 30m
Sun Apr 5 14:32, no_motion 20m
Sun Apr 5 14:22, no_motion 10m
Sun Apr 5 14:12, status motion
Sun Apr 5 14:07, no_motion 20m
Sun Apr 5 13:57, no_motion 10m
Sun Apr 5 13:47, status motion
Sun Apr 5 13:16, no_motion 30m
Sun Apr 5 13:06, no_motion 20m
Sun Apr 5 12:56, no_motion 10m
Sun Apr 5 12:46, status motion
Sun Apr 5 12:44, status motion
Sun Apr 5 12:42, status motion
Sun Apr 5 12:41, status motion
Sun Apr 5 12:35, status motion
Sun Apr 5 11:50, no_motion 30m
Sun Apr 5 11:40, no_motion 20m
Sun Apr 5 11:30, no_motion 10m
Sun Apr 5 11:20, status motion
Sun Apr 5 11:18, status motion
Sun Apr 5 11:17, status motion
Sun Apr 5 11:15, no_motion 10m
Sun Apr 5 11:05, status motion
Sun Apr 5 11:01, status motion
Sun Apr 5 10:53, status motion
Sun Apr 5 10:50, status motion
Sun Apr 5 10:49, status motion
Sun Apr 5 10:46, no_motion 10m
Sun Apr 5 10:36, status motion
Sun Apr 5 10:32, status motion
Sun Apr 5 10:27, no_motion 20m
Sun Apr 5 10:17, no_motion 10m
Sun Apr 5 10:07, status motion
Sun Apr 5 10:01, no_motion 10m
Sun Apr 5 09:51, status motion
Sun Apr 5 09:51, no_motion 10m
Sun Apr 5 09:41, status motion
Sun Apr 5 09:39, no_motion 20m
Sun Apr 5 09:29, no_motion 10m
Sun Apr 5 09:19, status motion
Sun Apr 5 09:18, status motion
Sun Apr 5 09:09, status motion
Sun Apr 5 09:08, status motion
Sun Apr 5 09:05, status motion
Sun Apr 5 09:04, status motion
Sun Apr 5 09:02, status motion
Sun Apr 5 08:59, status motion
Sun Apr 5 08:58, status motion
Sun Apr 5 08:41, no_motion 30m
Sun Apr 5 08:31, no_motion 20m
Sun Apr 5 08:21, no_motion 10m
Sun Apr 5 08:11, status motion
Sun Apr 5 08:09, status motion
Sun Apr 5 07:36, no_motion 30m
Sun Apr 5 07:26, no_motion 20m
Sun Apr 5 07:16, no_motion 10m
Sun Apr 5 07:06, status motion
Sun Apr 5 07:02, status motion
Sun Apr 5 06:59, status motion
Sun Apr 5 06:58, status motion
Sun Apr 5 06:56, status motion
Sun Apr 5 06:54, status motion
Sun Apr 5 06:49, no_motion 20m
Sun Apr 5 06:39, no_motion 10m
Sun Apr 5 06:29, status motion
Sun Apr 5 06:28, status motion
Sun Apr 5 00:48, no_motion 30m
Sun Apr 5 00:38, no_motion 20m
Sun Apr 5 00:28, no_motion 10m
Sun Apr 5 00:18, status motion
Sun Apr 5 00:11, status motion
Sun Apr 5 00:09, status motion
Sat Apr 4 23:49, no_motion 30m
Sat Apr 4 23:39, no_motion 20m
Sat Apr 4 23:29, no_motion 10m
Sat Apr 4 23:19, status motion
Sat Apr 4 23:17, status motion
Sat Apr 4 22:34, no_motion 30m
Sat Apr 4 22:14, no_motion 10m
Sat Apr 4 22:04, status motion
Sat Apr 4 22:02, status motion
Sat Apr 4 20:32, no_motion 30m
Sat Apr 4 20:22, no_motion 20m
Sat Apr 4 20:12, no_motion 10m
Sat Apr 4 20:02, status motion
Sat Apr 4 20:01, status motion
Sat Apr 4 20:01, no_motion 10m
Sat Apr 4 19:51, status motion
Sat Apr 4 19:48, status motion
Sat Apr 4 19:26, no_motion 30m
Sat Apr 4 19:16, no_motion 20m
Sat Apr 4 19:06, no_motion 10m
Sat Apr 4 18:56, status motion
Sat Apr 4 18:55, status motion
Sat Apr 4 18:54, status motion
Sat Apr 4 18:44, no_motion 10m
Sat Apr 4 16:52, no_motion 20m
Sat Apr 4 16:42, no_motion 10m
Sat Apr 4 16:32, status motion
Sat Apr 4 16:31, status motion
Sat Apr 4 16:29, status motion
Sat Apr 4 15:57, no_motion 30m
Sat Apr 4 15:47, no_motion 20m
Sat Apr 4 15:37, no_motion 10m
Sat Apr 4 15:27, status motion
Sat Apr 4 15:26, status motion
Sat Apr 4 15:25, status motion
Sat Apr 4 14:59, no_motion 30m
Sat Apr 4 14:49, no_motion 20m
Sat Apr 4 14:39, no_motion 10m
Sat Apr 4 14:29, status motion
Sat Apr 4 14:25, status motion
Sat Apr 4 14:24, status motion
Sat Apr 4 14:23, status motion
Sat Apr 4 14:22, status motion
Sat Apr 4 14:19, status motion
Sat Apr 4 14:16, status motion
Sat Apr 4 14:15, status motion
Sat Apr 4 14:07, no_motion 20m
Sat Apr 4 13:57, no_motion 10m
Sat Apr 4 13:47, status motion
Sat Apr 4 13:46, status motion
Sat Apr 4 13:42, status motion
Sat Apr 4 12:59, no_motion 30m
Sat Apr 4 12:49, no_motion 20m
Sat Apr 4 12:39, no_motion 10m
Sat Apr 4 12:29, status motion
Sat Apr 4 12:26, status motion
Sat Apr 4 12:20, no_motion 30m
Sat Apr 4 12:10, no_motion 20m
Sat Apr 4 12:00, no_motion 10m
Sat Apr 4 11:50, status motion
Sat Apr 4 11:49, no_motion 10m
Sat Apr 4 11:39, status motion
Sat Apr 4 11:30, no_motion 10m
Sat Apr 4 11:20, status motion
Sat Apr 4 11:16, status motion
Sat Apr 4 11:15, no_motion 10m
Sat Apr 4 11:05, status motion
Sat Apr 4 11:02, status motion
Sat Apr 4 10:55, status motion
Sat Apr 4 10:54, status motion
Sat Apr 4 10:45, status motion
Sat Apr 4 10:44, status motion
Sat Apr 4 10:42, status motion
Sat Apr 4 10:34, no_motion 10m
Sat Apr 4 10:24, status motion
Sat Apr 4 10:18, status motion
Sat Apr 4 10:16, no_motion 10m
Sat Apr 4 10:06, status motion
Sat Apr 4 10:05, status motion
Sat Apr 4 10:04, status motion
Sat Apr 4 10:01, status motion
Sat Apr 4 09:59, status motion
Sat Apr 4 09:57, status motion
Sat Apr 4 09:49, status motion
Sat Apr 4 09:40, status motion
Sat Apr 4 09:32, status motion
Sat Apr 4 09:29, no_motion 10m
Sat Apr 4 09:19, status motion
Sat Apr 4 09:17, status motion
Sat Apr 4 09:04, no_motion 30m
Sat Apr 4 08:54, no_motion 20m
Sat Apr 4 08:44, no_motion 10m
Sat Apr 4 08:34, status motion
Sat Apr 4 08:30, status motion
Sat Apr 4 08:28, status motion
Sat Apr 4 08:27, status motion
Sat Apr 4 08:26, status motion
Sat Apr 4 08:24, status motion
Sat Apr 4 08:20, status motion
Sat Apr 4 08:19, status motion
Sat Apr 4 08:11, status motion
Sat Apr 4 08:10, status motion
Sat Apr 4 08:07, status motion
Sat Apr 4 08:06, status motion
Sat Apr 4 08:01, no_motion 10m
Sat Apr 4 07:51, status motion
Sat Apr 4 07:44, status motion
Sat Apr 4 07:43, status motion
Sat Apr 4 07:41, status motion
Sat Apr 4 07:15, no_motion 30m
Sat Apr 4 07:05, no_motion 20m
Sat Apr 4 06:55, no_motion 10m
Sat Apr 4 06:45, status motion
Sat Apr 4 06:40, status motion
Sat Apr 4 06:34, no_motion 10m
Sat Apr 4 06:24, status motion
Sat Apr 4 06:20, status motion
Sat Apr 4 02:43, no_motion 30m
Sat Apr 4 02:33, no_motion 20m
Sat Apr 4 02:13, status motion
Sat Apr 4 02:12, status motion
Sat Apr 4 00:41, no_motion 30m
Sat Apr 4 00:31, no_motion 20m
Sat Apr 4 00:21, no_motion 10m
Sat Apr 4 00:11, status motion
Sat Apr 4 00:03, status motion
Fri Apr 3 22:42, no_motion 30m
Fri Apr 3 22:32, no_motion 20m
Fri Apr 3 22:22, no_motion 10m
Fri Apr 3 22:12, status motion
Fri Apr 3 22:08, status motion
Fri Apr 3 22:06, status motion
Fri Apr 3 21:32, no_motion 30m
Fri Apr 3 21:22, no_motion 20m
Fri Apr 3 21:12, no_motion 10m
Fri Apr 3 21:02, status motion
Fri Apr 3 21:02, status motion
Fri Apr 3 20:53, no_motion 10m
Fri Apr 3 20:43, status motion
Fri Apr 3 20:42, status motion
Fri Apr 3 20:41, no_motion 10m
Fri Apr 3 20:31, status motion
Fri Apr 3 20:30, status motion
Fri Apr 3 20:22, no_motion 10m
Fri Apr 3 20:12, status motion
Fri Apr 3 20:10, status motion
Fri Apr 3 20:09, status motion
Fri Apr 3 18:49, no_motion 30m
Fri Apr 3 18:39, no_motion 20m
Fri Apr 3 18:29, no_motion 10m
Fri Apr 3 18:19, status motion
Fri Apr 3 18:11, status motion
Fri Apr 3 18:06, status motion
Fri Apr 3 18:03, status motion
Fri Apr 3 18:01, status motion
Fri Apr 3 17:51, no_motion 30m
Fri Apr 3 17:41, no_motion 20m
Fri Apr 3 17:31, no_motion 10m
Fri Apr 3 17:21, status motion
Fri Apr 3 17:21, no_motion 10m
Fri Apr 3 17:11, status motion
Fri Apr 3 17:06, no_motion 10m
Fri Apr 3 16:56, status motion
Fri Apr 3 16:49, status motion
Fri Apr 3 16:47, status motion
Fri Apr 3 16:45, status motion
Fri Apr 3 16:42, status motion
Fri Apr 3 16:33, status motion
Fri Apr 3 16:24, no_motion 10m
Fri Apr 3 16:14, status motion
Fri Apr 3 14:16, no_motion 30m
Fri Apr 3 14:06, no_motion 20m
Fri Apr 3 13:56, no_motion 10m
Fri Apr 3 13:46, status motion
Fri Apr 3 13:44, status motion
Fri Apr 3 13:44, no_motion 10m
Fri Apr 3 13:34, status motion
Fri Apr 3 13:28, no_motion 10m
Fri Apr 3 13:18, status motion
Fri Apr 3 13:05, no_motion 30m
Fri Apr 3 12:55, no_motion 20m
Fri Apr 3 12:45, no_motion 10m
Fri Apr 3 12:35, status motion
Fri Apr 3 12:12, no_motion 30m
Fri Apr 3 12:02, no_motion 20m
Fri Apr 3 11:52, no_motion 10m
Fri Apr 3 11:42, status motion
Fri Apr 3 11:40, status motion
Fri Apr 3 11:39, status motion
Fri Apr 3 11:37, status motion
Fri Apr 3 11:35, status motion
Fri Apr 3 11:32, no_motion 20m
Fri Apr 3 11:22, no_motion 10m
Fri Apr 3 11:12, status motion
Fri Apr 3 11:11, no_motion 10m
Fri Apr 3 11:01, status motion
Fri Apr 3 10:58, status motion
Fri Apr 3 10:56, status motion
Fri Apr 3 10:48, status motion
Fri Apr 3 10:45, no_motion 20m
Fri Apr 3 10:35, no_motion 10m
Fri Apr 3 10:25, status motion
Fri Apr 3 10:24, status motion
Fri Apr 3 10:20, status motion
Fri Apr 3 10:17, status motion
Fri Apr 3 10:15, no_motion 10m
Fri Apr 3 10:05, status motion
Fri Apr 3 10:00, status motion
Fri Apr 3 09:56, status motion
Fri Apr 3 09:55, status motion
Fri Apr 3 09:53, status motion

s5 Liv-Room PiR
Tue Apr 7 14:04, status motion

Tue Apr 7 14:04, status motion
Tue Apr 7 14:02, status motion
Tue Apr 7 14:00, status motion
Tue Apr 7 13:57, status motion
Tue Apr 7 13:50, no_motion 10m
Tue Apr 7 13:40, status motion
Tue Apr 7 13:36, status motion
Tue Apr 7 13:34, status motion
Tue Apr 7 13:27, status motion
Tue Apr 7 13:26, no_motion 10m
Tue Apr 7 13:16, status motion
Tue Apr 7 13:14, status motion
Tue Apr 7 13:07, status motion
Tue Apr 7 13:06, status motion
Tue Apr 7 13:03, no_motion 10m
Tue Apr 7 12:53, status motion
Tue Apr 7 12:51, no_motion 10m
Tue Apr 7 12:41, status motion
Tue Apr 7 12:36, status motion
Tue Apr 7 12:34, status motion
Tue Apr 7 12:32, status motion
Tue Apr 7 12:30, status motion
Tue Apr 7 12:28, status motion
Tue Apr 7 12:26, status motion
Tue Apr 7 12:23, status motion
Tue Apr 7 12:22, status motion
Tue Apr 7 12:18, status motion
Tue Apr 7 12:14, status motion
Tue Apr 7 12:11, status motion
Tue Apr 7 12:05, no_motion 10m
Tue Apr 7 11:55, status motion
Tue Apr 7 11:51, no_motion 10m
Tue Apr 7 11:41, status motion
Tue Apr 7 11:28, no_motion 30m
Tue Apr 7 11:18, no_motion 20m
Tue Apr 7 11:08, no_motion 10m
Tue Apr 7 10:58, status motion
Tue Apr 7 10:57, status motion
Tue Apr 7 10:56, status motion
Tue Apr 7 10:55, status motion
Tue Apr 7 10:53, status motion
Tue Apr 7 10:52, status motion
Tue Apr 7 10:49, no_motion 20m
Tue Apr 7 10:39, no_motion 10m
Tue Apr 7 10:29, status motion
Tue Apr 7 10:24, status motion
Tue Apr 7 10:21, status motion
Tue Apr 7 10:19, status motion
Tue Apr 7 10:17, status motion
Tue Apr 7 10:10, no_motion 20m
Tue Apr 7 10:00, no_motion 10m
Tue Apr 7 09:50, status motion
Tue Apr 7 09:47, status motion
Tue Apr 7 09:37, status motion
Tue Apr 7 09:35, status motion
Tue Apr 7 09:33, status motion
Tue Apr 7 09:32, status motion
Tue Apr 7 09:30, status motion
Tue Apr 7 09:29, status motion
Tue Apr 7 09:28, status motion
Tue Apr 7 09:20, status motion
Tue Apr 7 09:19, status motion
Tue Apr 7 09:18, status motion
Tue Apr 7 09:17, status motion
Tue Apr 7 09:16, status motion
Tue Apr 7 09:15, no_motion 10m
Tue Apr 7 09:05, status motion
Tue Apr 7 09:03, status motion
Tue Apr 7 09:01, status motion
Tue Apr 7 09:00, status motion
Tue Apr 7 08:59, status motion
Tue Apr 7 08:58, status motion
Tue Apr 7 08:55, status motion
Tue Apr 7 08:54, status motion
Tue Apr 7 08:45, status motion
Tue Apr 7 08:41, status motion
Tue Apr 7 08:40, status motion
Tue Apr 7 08:39, status motion
Tue Apr 7 08:38, status motion
Tue Apr 7 08:37, status motion
Tue Apr 7 08:36, status motion
Tue Apr 7 08:35, status motion
Tue Apr 7 08:34, status motion
Tue Apr 7 08:33, status motion
Tue Apr 7 08:29, status motion
Tue Apr 7 08:28, status motion
Tue Apr 7 08:26, status motion
Tue Apr 7 08:23, status motion
Tue Apr 7 08:22, status motion
Tue Apr 7 08:21, status motion
Tue Apr 7 08:20, status motion
Tue Apr 7 08:18, status motion
Tue Apr 7 08:17, status motion
Tue Apr 7 08:16, status motion
Tue Apr 7 08:15, status motion
Tue Apr 7 08:14, status motion
Tue Apr 7 08:10, status motion
Tue Apr 7 08:07, status motion
Tue Apr 7 08:06, status motion
Tue Apr 7 08:05, status motion
Tue Apr 7 08:02, status motion
Tue Apr 7 08:01, status motion
Tue Apr 7 07:56, status motion
Tue Apr 7 06:26, no_motion 30m
Tue Apr 7 06:16, no_motion 20m
Tue Apr 7 06:06, no_motion 10m
Tue Apr 7 05:56, status motion
Mon Apr 6 22:22, no_motion 30m
Mon Apr 6 22:12, no_motion 20m
Mon Apr 6 22:02, no_motion 10m
Mon Apr 6 21:52, status motion
Mon Apr 6 21:50, status motion
Mon Apr 6 21:49, status motion
Mon Apr 6 21:47, status motion
Mon Apr 6 21:43, status motion
Mon Apr 6 21:42, status motion
Mon Apr 6 21:40, no_motion 10m
Mon Apr 6 21:30, status motion
Mon Apr 6 21:30, no_motion 10m
Mon Apr 6 21:20, status motion
Mon Apr 6 21:19, status motion
Mon Apr 6 21:15, status motion
Mon Apr 6 21:14, status motion
Mon Apr 6 21:07, status motion
Mon Apr 6 21:02, status motion
Mon Apr 6 20:54, status motion
Mon Apr 6 20:50, no_motion 10m
Mon Apr 6 20:40, status motion
Mon Apr 6 20:35, status motion
Mon Apr 6 20:34, status motion
Mon Apr 6 20:33, status motion
Mon Apr 6 20:29, status motion
Mon Apr 6 20:28, status motion
Mon Apr 6 20:23, status motion
Mon Apr 6 20:22, status motion
Mon Apr 6 20:22, no_motion 10m
Mon Apr 6 20:12, status motion
Mon Apr 6 20:06, no_motion 10m
Mon Apr 6 19:56, status motion
Mon Apr 6 19:52, status motion
Mon Apr 6 19:50, status motion
Mon Apr 6 19:49, status motion
Mon Apr 6 19:45, status motion
Mon Apr 6 19:37, status motion
Mon Apr 6 19:33, status motion
Mon Apr 6 19:31, status motion
Mon Apr 6 19:29, status motion
Mon Apr 6 19:24, no_motion 10m
Mon Apr 6 19:14, status motion
Mon Apr 6 19:13, status motion
Mon Apr 6 19:11, no_motion 20m
Mon Apr 6 19:02, no_motion 10m
Mon Apr 6 18:52, status motion
Mon Apr 6 18:50, status motion
Mon Apr 6 18:45, status motion
Mon Apr 6 18:41, status motion
Mon Apr 6 18:40, status motion
Mon Apr 6 18:38, no_motion 10m
Mon Apr 6 18:28, status motion
Mon Apr 6 18:27, status motion
Mon Apr 6 18:23, status motion
Mon Apr 6 18:22, status motion
Mon Apr 6 18:18, no_motion 10m
Mon Apr 6 18:08, status motion
Mon Apr 6 18:07, status motion
Mon Apr 6 18:06, status motion
Mon Apr 6 18:03, status motion
Mon Apr 6 18:01, status motion
Mon Apr 6 17:57, status motion
Mon Apr 6 17:49, status motion
Mon Apr 6 17:49, no_motion 10m
Mon Apr 6 17:39, status motion
Mon Apr 6 17:38, status motion
Mon Apr 6 17:37, status motion
Mon Apr 6 17:36, status motion
Mon Apr 6 17:35, status motion
Mon Apr 6 17:34, status motion
Mon Apr 6 17:33, status motion
Mon Apr 6 17:31, status motion
Mon Apr 6 17:23, status motion
Mon Apr 6 17:13, status motion
Mon Apr 6 17:10, no_motion 10m
Mon Apr 6 17:00, status motion
Mon Apr 6 16:59, status motion
Mon Apr 6 16:58, status motion
Mon Apr 6 16:57, status motion
Mon Apr 6 16:54, no_motion 10m
Mon Apr 6 16:44, status motion
Mon Apr 6 16:43, status motion
Mon Apr 6 16:41, status motion
Mon Apr 6 16:40, status motion
Mon Apr 6 16:38, no_motion 20m
Mon Apr 6 16:28, no_motion 10m
Mon Apr 6 16:18, status motion
Mon Apr 6 16:10, status motion
Mon Apr 6 16:04, status motion
Mon Apr 6 16:02, status motion
Mon Apr 6 15:59, status motion
Mon Apr 6 15:57, status motion
Mon Apr 6 15:55, status motion
Mon Apr 6 15:53, status motion
Mon Apr 6 15:48, status motion
Mon Apr 6 15:47, status motion
Mon Apr 6 15:46, status motion
Mon Apr 6 14:57, no_motion 30m
Mon Apr 6 14:47, no_motion 20m
Mon Apr 6 14:37, no_motion 10m
Mon Apr 6 14:27, status motion
Mon Apr 6 14:26, status motion
Mon Apr 6 14:24, status motion
Mon Apr 6 14:21, status motion
Mon Apr 6 14:18, status motion
Mon Apr 6 14:15, status motion
Mon Apr 6 14:12, status motion
Mon Apr 6 14:09, status motion
Mon Apr 6 14:04, status motion
Mon Apr 6 13:59, status motion
Mon Apr 6 13:56, status motion
Mon Apr 6 13:51, status motion
Mon Apr 6 13:47, status motion
Mon Apr 6 13:44, no_motion 30m
Mon Apr 6 13:34, no_motion 20m
Mon Apr 6 13:24, no_motion 10m
Mon Apr 6 13:14, status motion
Mon Apr 6 13:10, status motion
Mon Apr 6 13:09, status motion
Mon Apr 6 13:03, no_motion 10m
Mon Apr 6 12:53, status motion
Mon Apr 6 12:52, no_motion 10m
Mon Apr 6 12:42, status motion
Mon Apr 6 12:38, status motion
Mon Apr 6 12:33, status motion
Mon Apr 6 12:24, status motion
Mon Apr 6 12:20, status motion
Mon Apr 6 12:18, status motion
Mon Apr 6 12:16, status motion
Mon Apr 6 12:12, no_motion 10m
Mon Apr 6 12:02, status motion
Mon Apr 6 12:01, status motion
Mon Apr 6 11:55, status motion
Mon Apr 6 11:54, status motion
Mon Apr 6 11:52, status motion
Mon Apr 6 11:51, status motion
Mon Apr 6 11:49, status motion
Mon Apr 6 11:48, status motion
Mon Apr 6 11:47, status motion
Mon Apr 6 11:46, status motion
Mon Apr 6 11:44, status motion
Mon Apr 6 11:41, status motion
Mon Apr 6 11:38, status motion
Mon Apr 6 11:34, status motion
Mon Apr 6 11:25, status motion
Mon Apr 6 11:22, status motion
Mon Apr 6 11:20, no_motion 10m
Mon Apr 6 11:10, status motion
Mon Apr 6 11:09, status motion
Mon Apr 6 11:06, status motion
Mon Apr 6 11:00, status motion
Mon Apr 6 10:56, status motion
Mon Apr 6 10:55, status motion
Mon Apr 6 10:54, status motion
Mon Apr 6 10:53, status motion
Mon Apr 6 10:51, status motion
Mon Apr 6 10:41, no_motion 10m
Mon Apr 6 10:31, status motion
Mon Apr 6 10:30, status motion
Mon Apr 6 10:29, status motion
Mon Apr 6 10:28, no_motion 10m
Mon Apr 6 10:18, status motion
Mon Apr 6 09:40, no_motion 30m
Mon Apr 6 09:30, no_motion 20m
Mon Apr 6 09:20, no_motion 10m
Mon Apr 6 09:10, status motion
Mon Apr 6 09:08, status motion
Mon Apr 6 09:08, no_motion 20m
Mon Apr 6 08:58, no_motion 10m
Mon Apr 6 08:48, status motion
Mon Apr 6 08:43, status motion
Mon Apr 6 08:34, no_motion 20m
Mon Apr 6 08:24, no_motion 10m
Mon Apr 6 08:14, status motion
Mon Apr 6 05:59, no_motion 30m
Mon Apr 6 05:49, no_motion 20m
Mon Apr 6 05:39, no_motion 10m
Mon Apr 6 05:29, status motion
Mon Apr 6 05:28, status motion
Mon Apr 6 02:48, no_motion 30m
Mon Apr 6 02:38, no_motion 20m
Mon Apr 6 02:28, no_motion 10m
Mon Apr 6 02:18, status motion
Mon Apr 6 02:15, no_motion 10m
Mon Apr 6 02:05, status motion
Mon Apr 6 01:57, status motion
Mon Apr 6 01:55, status motion
Mon Apr 6 01:49, status motion
Sun Apr 5 23:13, no_motion 30m
Sun Apr 5 23:03, no_motion 20m
Sun Apr 5 22:53, no_motion 10m
Sun Apr 5 22:43, status motion
Sun Apr 5 22:35, status motion
Sun Apr 5 22:28, status motion
Sun Apr 5 22:25, status motion
Sun Apr 5 22:23, status motion
Sun Apr 5 22:22, status motion
Sun Apr 5 22:14, status motion
Sun Apr 5 22:12, status motion
Sun Apr 5 22:11, status motion
Sun Apr 5 22:09, status motion
Sun Apr 5 22:06, status motion
Sun Apr 5 22:04, status motion
Sun Apr 5 21:57, status motion
Sun Apr 5 21:55, status motion
Sun Apr 5 21:53, status motion
Sun Apr 5 21:51, status motion
Sun Apr 5 21:45, status motion
Sun Apr 5 21:42, status motion
Sun Apr 5 21:34, status motion
Sun Apr 5 21:28, status motion
Sun Apr 5 21:26, status motion
Sun Apr 5 21:23, status motion
Sun Apr 5 21:20, status motion
Sun Apr 5 21:17, status motion
Sun Apr 5 21:16, status motion
Sun Apr 5 21:15, status motion
Sun Apr 5 21:14, status motion
Sun Apr 5 21:10, status motion
Sun Apr 5 21:08, status motion
Sun Apr 5 21:07, status motion
Sun Apr 5 21:02, status motion
Sun Apr 5 20:57, status motion
Sun Apr 5 20:54, no_motion 10m
Sun Apr 5 20:44, status motion
Sun Apr 5 20:42, status motion
Sun Apr 5 20:34, status motion
Sun Apr 5 20:32, status motion
Sun Apr 5 20:30, status motion
Sun Apr 5 20:29, status motion
Sun Apr 5 20:22, status motion
Sun Apr 5 20:20, status motion
Sun Apr 5 20:19, status motion
Sun Apr 5 20:10, status motion
Sun Apr 5 20:02, status motion
Sun Apr 5 19:57, status motion
Sun Apr 5 19:50, status motion
Sun Apr 5 19:49, status motion
Sun Apr 5 19:48, status motion
Sun Apr 5 19:46, status motion
Sun Apr 5 19:45, status motion
Sun Apr 5 19:43, status motion
Sun Apr 5 19:42, status motion
Sun Apr 5 19:38, status motion
Sun Apr 5 19:36, status motion
Sun Apr 5 19:27, no_motion 10m
Sun Apr 5 19:17, status motion
Sun Apr 5 19:16, status motion
Sun Apr 5 19:12, no_motion 10m
Sun Apr 5 19:02, status motion
Sun Apr 5 18:53, no_motion 10m
Sun Apr 5 18:43, status motion
Sun Apr 5 18:42, status motion
Sun Apr 5 18:41, status motion
Sun Apr 5 18:39, status motion
Sun Apr 5 18:36, status motion
Sun Apr 5 18:32, status motion
Sun Apr 5 18:30, status motion
Sun Apr 5 18:29, status motion
Sun Apr 5 18:27, status motion
Sun Apr 5 18:26, status motion
Sun Apr 5 18:25, status motion
Sun Apr 5 18:20, no_motion 10m
Sun Apr 5 18:10, status motion
Sun Apr 5 18:07, status motion
Sun Apr 5 18:01, no_motion 20m
Sun Apr 5 17:51, no_motion 10m
Sun Apr 5 17:41, status motion
Sun Apr 5 17:37, status motion
Sun Apr 5 17:36, no_motion 10m
Sun Apr 5 17:26, status motion
Sun Apr 5 17:24, status motion
Sun Apr 5 17:23, status motion
Sun Apr 5 17:22, no_motion 20m
Sun Apr 5 17:12, no_motion 10m
Sun Apr 5 17:02, status motion
Sun Apr 5 16:56, status motion
Sun Apr 5 16:55, status motion
Sun Apr 5 16:53, status motion
Sun Apr 5 16:50, status motion
Sun Apr 5 16:49, status motion
Sun Apr 5 16:48, status motion
Sun Apr 5 16:47, status motion
Sun Apr 5 16:43, status motion
Sun Apr 5 16:38, status motion
Sun Apr 5 16:33, status motion
Sun Apr 5 16:31, status motion
Sun Apr 5 16:25, status motion
Sun Apr 5 16:24, status motion
Sun Apr 5 16:17, status motion
Sun Apr 5 15:55, no_motion 30m
Sun Apr 5 15:45, no_motion 20m
Sun Apr 5 15:35, no_motion 10m
Sun Apr 5 15:25, status motion
Sun Apr 5 15:15, no_motion 10m
Sun Apr 5 15:05, status motion
Sun Apr 5 14:56, status motion
Sun Apr 5 14:55, status motion
Sun Apr 5 14:49, status motion
Sun Apr 5 14:47, status motion
Sun Apr 5 14:46, status motion
Sun Apr 5 14:45, status motion
Sun Apr 5 14:36, no_motion 20m
Sun Apr 5 14:26, no_motion 10m
Sun Apr 5 14:16, status motion
Sun Apr 5 14:13, status motion
Sun Apr 5 14:11, status motion
Sun Apr 5 14:09, status motion
Sun Apr 5 14:07, no_motion 10m
Sun Apr 5 13:57, status motion
Sun Apr 5 13:56, status motion
Sun Apr 5 13:55, status motion
Sun Apr 5 13:54, status motion
Sun Apr 5 13:47, status motion
Sun Apr 5 13:46, status motion
Sun Apr 5 13:38, status motion
Sun Apr 5 13:37, status motion
Sun Apr 5 13:34, status motion
Sun Apr 5 13:33, status motion
Sun Apr 5 13:32, status motion
Sun Apr 5 13:31, status motion
Sun Apr 5 13:30, status motion
Sun Apr 5 13:28, status motion
Sun Apr 5 13:27, status motion
Sun Apr 5 13:26, status motion
Sun Apr 5 13:25, status motion
Sun Apr 5 13:24, status motion
Sun Apr 5 13:23, status motion
Sun Apr 5 13:22, status motion
Sun Apr 5 13:21, status motion
Sun Apr 5 13:20, status motion
Sun Apr 5 13:18, status motion
Sun Apr 5 13:17, status motion
Sun Apr 5 13:15, status motion
Sun Apr 5 13:14, status motion
Sun Apr 5 13:05, status motion
Sun Apr 5 13:01, status motion
Sun Apr 5 13:00, status motion
Sun Apr 5 12:58, status motion
Sun Apr 5 12:57, status motion
Sun Apr 5 11:51, no_motion 30m
Sun Apr 5 11:41, no_motion 20m
Sun Apr 5 11:31, no_motion 10m
Sun Apr 5 11:21, status motion
Sun Apr 5 11:20, status motion
Sun Apr 5 11:18, status motion
Sun Apr 5 11:17, status motion
Sun Apr 5 11:16, status motion
Sun Apr 5 11:15, no_motion 10m
Sun Apr 5 11:05, status motion
Sun Apr 5 11:04, status motion
Sun Apr 5 11:00, status motion
Sun Apr 5 10:54, status motion
Sun Apr 5 10:52, status motion
Sun Apr 5 10:51, status motion
Sun Apr 5 10:50, status motion
Sun Apr 5 10:49, status motion
Sun Apr 5 10:48, status motion
Sun Apr 5 10:47, status motion
Sun Apr 5 10:45, status motion
Sun Apr 5 10:44, status motion
Sun Apr 5 10:43, status motion
Sun Apr 5 10:41, status motion
Sun Apr 5 10:40, status motion
Sun Apr 5 10:38, status motion
Sun Apr 5 10:36, status motion
Sun Apr 5 10:29, status motion
Sun Apr 5 10:28, status motion
Sun Apr 5 10:27, status motion
Sun Apr 5 10:26, status motion
Sun Apr 5 10:25, status motion
Sun Apr 5 10:24, status motion
Sun Apr 5 10:23, status motion
Sun Apr 5 10:22, status motion
Sun Apr 5 10:21, status motion
Sun Apr 5 10:20, status motion
Sun Apr 5 10:19, status motion
Sun Apr 5 10:18, status motion
Sun Apr 5 10:17, status motion
Sun Apr 5 10:16, status motion
Sun Apr 5 10:15, status motion
Sun Apr 5 10:12, status motion
Sun Apr 5 10:11, status motion
Sun Apr 5 10:10, status motion
Sun Apr 5 10:09, status motion
Sun Apr 5 10:07, no_motion 10m
Sun Apr 5 09:57, status motion
Sun Apr 5 09:56, status motion
Sun Apr 5 09:51, status motion
Sun Apr 5 09:47, no_motion 20m
Sun Apr 5 09:37, no_motion 10m
Sun Apr 5 09:27, status motion
Sun Apr 5 09:22, status motion
Sun Apr 5 09:16, status motion
Sun Apr 5 09:15, no_motion 10m
Sun Apr 5 09:05, status motion
Sun Apr 5 09:03, status motion
Sun Apr 5 09:02, status motion
Sun Apr 5 08:57, status motion
Sun Apr 5 08:51, no_motion 10m
Sun Apr 5 08:41, status motion
Sun Apr 5 08:40, no_motion 10m
Sun Apr 5 08:30, status motion
Sun Apr 5 08:20, no_motion 10m
Sun Apr 5 08:10, status motion
Sun Apr 5 07:27, no_motion 30m
Sun Apr 5 07:17, no_motion 20m
Sun Apr 5 07:07, no_motion 10m
Sun Apr 5 06:57, status motion
Sun Apr 5 00:46, no_motion 30m
Sun Apr 5 00:36, no_motion 20m
Sun Apr 5 00:26, no_motion 10m
Sun Apr 5 00:16, status motion
Sun Apr 5 00:11, status motion
Sun Apr 5 00:09, status motion
Sat Apr 4 23:59, status motion
Sat Apr 4 23:50, status motion
Sat Apr 4 23:47, status motion
Sat Apr 4 23:43, status motion
Sat Apr 4 23:42, status motion
Sat Apr 4 23:41, status motion
Sat Apr 4 23:38, status motion
Sat Apr 4 23:36, status motion
Sat Apr 4 23:32, status motion
Sat Apr 4 23:30, no_motion 10m
Sat Apr 4 23:20, status motion
Sat Apr 4 23:19, status motion
Sat Apr 4 23:14, status motion
Sat Apr 4 23:13, status motion
Sat Apr 4 23:10, status motion
Sat Apr 4 23:07, status motion
Sat Apr 4 23:05, status motion
Sat Apr 4 23:04, status motion
Sat Apr 4 23:01, status motion
Sat Apr 4 23:00, status motion
Sat Apr 4 22:58, status motion
Sat Apr 4 22:55, status motion
Sat Apr 4 22:52, status motion
Sat Apr 4 22:46, status motion
Sat Apr 4 22:41, status motion
Sat Apr 4 22:40, status motion
Sat Apr 4 22:38, status motion
Sat Apr 4 22:36, status motion
Sat Apr 4 22:34, status motion
Sat Apr 4 22:30, status motion
Sat Apr 4 22:25, status motion
Sat Apr 4 22:21, status motion
Sat Apr 4 22:19, status motion
Sat Apr 4 22:17, status motion
Sat Apr 4 22:11, status motion
Sat Apr 4 22:08, status motion
Sat Apr 4 22:04, status motion
Sat Apr 4 22:02, status motion
Sat Apr 4 22:01, status motion
Sat Apr 4 21:57, status motion
Sat Apr 4 21:50, status motion
Sat Apr 4 21:48, status motion
Sat Apr 4 21:43, status motion
Sat Apr 4 21:40, status motion
Sat Apr 4 21:39, status motion
Sat Apr 4 21:34, status motion
Sat Apr 4 21:33, status motion
Sat Apr 4 21:26, status motion
Sat Apr 4 21:22, status motion
Sat Apr 4 21:21, status motion
Sat Apr 4 21:18, status motion
Sat Apr 4 21:11, no_motion 10m
Sat Apr 4 21:01, status motion
Sat Apr 4 21:00, status motion
Sat Apr 4 20:56, no_motion 10m
Sat Apr 4 20:46, status motion
Sat Apr 4 20:44, status motion
Sat Apr 4 20:43, status motion
Sat Apr 4 20:37, status motion
Sat Apr 4 20:34, status motion
Sat Apr 4 20:29, no_motion 10m
Sat Apr 4 20:19, status motion
Sat Apr 4 20:15, status motion
Sat Apr 4 20:13, no_motion 10m
Sat Apr 4 20:03, status motion
Sat Apr 4 20:01, status motion
Sat Apr 4 19:53, status motion
Sat Apr 4 19:51, status motion
Sat Apr 4 19:49, status motion
Sat Apr 4 19:43, status motion
Sat Apr 4 19:35, status motion
Sat Apr 4 19:35, no_motion 20m
Sat Apr 4 19:25, no_motion 10m
Sat Apr 4 19:15, status motion
Sat Apr 4 19:13, status motion
Sat Apr 4 19:11, status motion
Sat Apr 4 19:05, status motion
Sat Apr 4 19:02, status motion
Sat Apr 4 19:01, status motion
Sat Apr 4 18:59, status motion
Sat Apr 4 18:58, status motion
Sat Apr 4 18:56, status motion
Sat Apr 4 18:55, status motion
Sat Apr 4 18:54, status motion
Sat Apr 4 18:53, status motion
Sat Apr 4 18:50, no_motion 10m
Sat Apr 4 18:40, status motion
Sat Apr 4 18:38, status motion

s6 Kitchen PiR
Tue Apr 7 14:04, status motion

Tue Apr 7 14:04, status motion
Tue Apr 7 14:03, status motion
Tue Apr 7 14:00, status motion
Tue Apr 7 13:57, status motion
Tue Apr 7 13:50, no_motion 10m
Tue Apr 7 13:40, status motion
Tue Apr 7 13:39, status motion
Tue Apr 7 13:38, status motion
Tue Apr 7 13:37, status motion
Tue Apr 7 13:35, status motion
Tue Apr 7 13:34, status motion
Tue Apr 7 13:33, status motion
Tue Apr 7 13:32, status motion
Tue Apr 7 13:31, status motion
Tue Apr 7 13:25, no_motion 10m
Tue Apr 7 13:15, status motion
Tue Apr 7 13:14, status motion
Tue Apr 7 13:08, status motion
Tue Apr 7 13:07, status motion
Tue Apr 7 13:06, status motion
Tue Apr 7 13:05, status motion
Tue Apr 7 13:00, status motion
Tue Apr 7 12:59, status motion
Tue Apr 7 12:58, status motion
Tue Apr 7 12:57, status motion
Tue Apr 7 12:55, status motion
Tue Apr 7 12:54, status motion
Tue Apr 7 12:53, status motion
Tue Apr 7 12:52, status motion
Tue Apr 7 12:51, status motion
Tue Apr 7 12:50, status motion
Tue Apr 7 12:49, status motion
Tue Apr 7 12:47, status motion
Tue Apr 7 12:46, status motion
Tue Apr 7 12:45, status motion
Tue Apr 7 12:44, status motion
Tue Apr 7 12:43, status motion
Tue Apr 7 12:42, status motion
Tue Apr 7 12:41, status motion
Tue Apr 7 12:39, status motion
Tue Apr 7 12:37, status motion
Tue Apr 7 12:36, status motion
Tue Apr 7 12:35, status motion
Tue Apr 7 12:34, status motion
Tue Apr 7 12:33, status motion
Tue Apr 7 12:32, status motion
Tue Apr 7 12:30, status motion
Tue Apr 7 12:29, status motion
Tue Apr 7 12:25, status motion
Tue Apr 7 12:24, status motion
Tue Apr 7 12:22, status motion
Tue Apr 7 12:18, status motion
Tue Apr 7 12:13, status motion
Tue Apr 7 12:11, status motion
Tue Apr 7 12:04, no_motion 10m
Tue Apr 7 11:54, status motion
Tue Apr 7 11:53, status motion
Tue Apr 7 11:52, status motion
Tue Apr 7 11:51, status motion
Tue Apr 7 11:50, status motion
Tue Apr 7 11:49, status motion
Tue Apr 7 11:48, status motion
Tue Apr 7 11:41, status motion
Tue Apr 7 11:40, status motion
Tue Apr 7 11:38, status motion
Tue Apr 7 11:36, no_motion 30m
Tue Apr 7 11:26, no_motion 20m
Tue Apr 7 11:16, no_motion 10m
Tue Apr 7 11:06, status motion
Tue Apr 7 11:05, status motion
Tue Apr 7 11:04, status motion
Tue Apr 7 11:03, status motion
Tue Apr 7 11:02, status motion
Tue Apr 7 11:01, status motion
Tue Apr 7 10:59, status motion
Tue Apr 7 10:58, status motion
Tue Apr 7 10:57, status motion
Tue Apr 7 10:56, status motion
Tue Apr 7 10:55, status motion
Tue Apr 7 10:53, status motion
Tue Apr 7 10:52, status motion
Tue Apr 7 10:51, no_motion 30m
Tue Apr 7 10:41, no_motion 20m
Tue Apr 7 10:31, no_motion 10m
Tue Apr 7 10:21, status motion
Tue Apr 7 10:19, status motion
Tue Apr 7 10:18, status motion
Tue Apr 7 10:17, status motion
Tue Apr 7 10:16, status motion
Tue Apr 7 10:15, status motion
Tue Apr 7 10:10, no_motion 20m
Tue Apr 7 10:00, no_motion 10m
Tue Apr 7 09:50, status motion
Tue Apr 7 09:46, status motion
Tue Apr 7 09:38, status motion
Tue Apr 7 09:36, status motion
Tue Apr 7 09:35, status motion
Tue Apr 7 09:31, status motion
Tue Apr 7 09:28, status motion
Tue Apr 7 09:24, status motion
Tue Apr 7 09:22, status motion
Tue Apr 7 09:21, status motion
Tue Apr 7 09:16, status motion
Tue Apr 7 09:10, status motion
Tue Apr 7 09:08, status motion
Tue Apr 7 09:07, status motion
Tue Apr 7 09:06, status motion
Tue Apr 7 09:05, status motion
Tue Apr 7 09:03, status motion
Tue Apr 7 08:59, status motion
Tue Apr 7 08:57, status motion
Tue Apr 7 08:56, status motion
Tue Apr 7 08:55, status motion
Tue Apr 7 08:54, status motion
Tue Apr 7 08:50, status motion
Tue Apr 7 08:49, status motion
Tue Apr 7 08:48, status motion
Tue Apr 7 08:47, status motion
Tue Apr 7 08:46, status motion
Tue Apr 7 08:45, status motion
Tue Apr 7 08:44, status motion
Tue Apr 7 08:43, status motion
Tue Apr 7 08:42, status motion
Tue Apr 7 08:40, status motion
Tue Apr 7 08:33, status motion
Tue Apr 7 08:32, status motion
Tue Apr 7 08:31, status motion
Tue Apr 7 08:30, status motion
Tue Apr 7 08:29, status motion
Tue Apr 7 08:19, status motion
Tue Apr 7 08:18, status motion
Tue Apr 7 08:17, status motion
Tue Apr 7 08:14, status motion
Tue Apr 7 08:06, status motion
Tue Apr 7 08:00, status motion
Tue Apr 7 07:55, status motion
Tue Apr 7 07:49, no_motion 30m
Tue Apr 7 07:39, no_motion 20m
Tue Apr 7 07:29, no_motion 10m
Tue Apr 7 07:19, status motion
Tue Apr 7 07:18, status motion
Tue Apr 7 07:17, status motion
Tue Apr 7 07:16, status motion
Tue Apr 7 07:15, status motion
Tue Apr 7 06:36, no_motion 30m
Tue Apr 7 06:26, no_motion 20m
Tue Apr 7 06:16, no_motion 10m
Tue Apr 7 06:06, status motion
Tue Apr 7 06:05, status motion
Tue Apr 7 06:04, status motion
Tue Apr 7 06:03, status motion
Tue Apr 7 06:01, status motion
Tue Apr 7 06:00, status motion
Tue Apr 7 05:59, status motion
Tue Apr 7 05:58, status motion
Tue Apr 7 05:56, status motion
Tue Apr 7 05:55, status motion
Mon Apr 6 22:29, no_motion 30m
Mon Apr 6 22:19, no_motion 20m
Mon Apr 6 22:09, no_motion 10m
Mon Apr 6 21:59, status motion
Mon Apr 6 21:56, status motion
Mon Apr 6 21:55, status motion
Mon Apr 6 21:54, status motion
Mon Apr 6 21:53, status motion
Mon Apr 6 21:52, status motion
Mon Apr 6 21:51, status motion
Mon Apr 6 21:50, status motion
Mon Apr 6 21:49, status motion
Mon Apr 6 21:48, status motion
Mon Apr 6 21:44, status motion
Mon Apr 6 21:39, no_motion 20m
Mon Apr 6 21:29, no_motion 10m
Mon Apr 6 21:19, status motion
Mon Apr 6 21:18, status motion
Mon Apr 6 21:17, status motion
Mon Apr 6 21:16, status motion
Mon Apr 6 21:07, status motion
Mon Apr 6 21:06, status motion
Mon Apr 6 21:05, status motion
Mon Apr 6 21:04, status motion
Mon Apr 6 21:03, status motion
Mon Apr 6 20:54, no_motion 20m
Mon Apr 6 20:45, no_motion 10m
Mon Apr 6 20:35, status motion
Mon Apr 6 20:33, status motion
Mon Apr 6 20:05, no_motion 30m
Mon Apr 6 19:55, no_motion 20m
Mon Apr 6 19:45, no_motion 10m
Mon Apr 6 19:35, status motion
Mon Apr 6 19:34, status motion
Mon Apr 6 19:33, status motion
Mon Apr 6 19:32, status motion
Mon Apr 6 19:28, status motion
Mon Apr 6 19:27, status motion
Mon Apr 6 19:26, status motion
Mon Apr 6 19:25, status motion
Mon Apr 6 19:24, status motion
Mon Apr 6 19:23, status motion
Mon Apr 6 19:22, status motion
Mon Apr 6 19:21, status motion
Mon Apr 6 19:20, status motion
Mon Apr 6 19:19, status motion
Mon Apr 6 19:18, status motion
Mon Apr 6 19:17, status motion
Mon Apr 6 19:16, status motion
Mon Apr 6 19:15, status motion
Mon Apr 6 19:14, status motion
Mon Apr 6 19:11, no_motion 30m
Mon Apr 6 19:01, no_motion 20m
Mon Apr 6 18:51, no_motion 10m
Mon Apr 6 18:41, status motion
Mon Apr 6 18:40, status motion
Mon Apr 6 18:37, no_motion 10m
Mon Apr 6 18:27, status motion
Mon Apr 6 18:26, status motion
Mon Apr 6 18:25, status motion
Mon Apr 6 18:24, status motion
Mon Apr 6 18:16, no_motion 10m
Mon Apr 6 18:06, status motion
Mon Apr 6 18:05, status motion
Mon Apr 6 18:03, status motion
Mon Apr 6 18:02, status motion
Mon Apr 6 18:01, status motion
Mon Apr 6 17:57, status motion
Mon Apr 6 17:51, status motion
Mon Apr 6 17:49, status motion
Mon Apr 6 17:49, no_motion 10m
Mon Apr 6 17:39, status motion
Mon Apr 6 17:36, status motion
Mon Apr 6 17:35, status motion
Mon Apr 6 17:33, status motion
Mon Apr 6 17:32, status motion
Mon Apr 6 17:31, status motion
Mon Apr 6 16:34, no_motion 30m
Mon Apr 6 16:24, no_motion 20m
Mon Apr 6 16:14, no_motion 10m
Mon Apr 6 16:04, status motion
Mon Apr 6 16:03, status motion
Mon Apr 6 16:02, status motion
Mon Apr 6 16:00, status motion
Mon Apr 6 15:59, status motion
Mon Apr 6 15:58, status motion
Mon Apr 6 15:57, status motion
Mon Apr 6 15:55, status motion
Mon Apr 6 15:53, status motion
Mon Apr 6 15:45, status motion
Mon Apr 6 15:44, status motion
Mon Apr 6 14:47, no_motion 30m
Mon Apr 6 14:37, no_motion 20m
Mon Apr 6 14:27, no_motion 10m
Mon Apr 6 14:17, status motion
Mon Apr 6 14:16, status motion
Mon Apr 6 14:15, status motion
Mon Apr 6 14:14, status motion
Mon Apr 6 14:13, status motion
Mon Apr 6 14:12, status motion
Mon Apr 6 14:09, status motion
Mon Apr 6 14:04, status motion
Mon Apr 6 13:59, status motion
Mon Apr 6 13:55, status motion
Mon Apr 6 13:54, status motion
Mon Apr 6 13:53, status motion
Mon Apr 6 13:52, status motion
Mon Apr 6 13:51, status motion
Mon Apr 6 13:47, status motion
Mon Apr 6 13:43, no_motion 30m
Mon Apr 6 13:33, no_motion 20m
Mon Apr 6 13:23, no_motion 10m
Mon Apr 6 13:13, status motion
Mon Apr 6 13:12, status motion
Mon Apr 6 13:11, status motion
Mon Apr 6 13:10, status motion
Mon Apr 6 13:09, status motion
Mon Apr 6 13:08, status motion
Mon Apr 6 13:07, status motion
Mon Apr 6 13:05, status motion
Mon Apr 6 13:04, status motion
Mon Apr 6 13:03, status motion
Mon Apr 6 13:02, status motion
Mon Apr 6 13:01, status motion
Mon Apr 6 13:00, status motion
Mon Apr 6 12:59, status motion
Mon Apr 6 12:57, status motion
Mon Apr 6 12:56, status motion
Mon Apr 6 12:55, status motion
Mon Apr 6 12:54, status motion
Mon Apr 6 12:53, status motion
Mon Apr 6 12:52, status motion
Mon Apr 6 12:51, status motion
Mon Apr 6 12:46, status motion
Mon Apr 6 12:42, status motion
Mon Apr 6 12:41, status motion
Mon Apr 6 12:40, status motion
Mon Apr 6 12:39, status motion
Mon Apr 6 12:38, status motion
Mon Apr 6 12:36, status motion
Mon Apr 6 12:35, status motion
Mon Apr 6 12:33, status motion
Mon Apr 6 12:32, status motion
Mon Apr 6 12:31, status motion
Mon Apr 6 12:25, status motion
Mon Apr 6 12:23, status motion
Mon Apr 6 12:21, status motion
Mon Apr 6 12:20, status motion
Mon Apr 6 12:18, status motion
Mon Apr 6 12:17, status motion
Mon Apr 6 12:16, status motion
Mon Apr 6 12:12, no_motion 10m
Mon Apr 6 12:02, status motion
Mon Apr 6 12:01, status motion
Mon Apr 6 11:55, status motion
Mon Apr 6 11:54, status motion
Mon Apr 6 11:53, status motion
Mon Apr 6 11:52, status motion
Mon Apr 6 11:51, status motion
Mon Apr 6 11:47, status motion
Mon Apr 6 11:46, status motion
Mon Apr 6 11:44, status motion
Mon Apr 6 11:41, status motion
Mon Apr 6 11:35, no_motion 10m
Mon Apr 6 11:25, status motion
Mon Apr 6 11:22, status motion
Mon Apr 6 11:20, no_motion 10m
Mon Apr 6 11:10, status motion
Mon Apr 6 11:09, status motion
Mon Apr 6 11:05, status motion
Mon Apr 6 11:04, status motion
Mon Apr 6 11:03, status motion
Mon Apr 6 11:02, status motion
Mon Apr 6 11:01, status motion
Mon Apr 6 10:58, status motion
Mon Apr 6 10:56, status motion
Mon Apr 6 10:54, status motion
Mon Apr 6 10:53, status motion
Mon Apr 6 10:50, status motion
Mon Apr 6 10:49, status motion
Mon Apr 6 10:48, status motion
Mon Apr 6 10:47, status motion
Mon Apr 6 10:45, status motion
Mon Apr 6 10:43, status motion
Mon Apr 6 10:42, status motion
Mon Apr 6 10:41, status motion
Mon Apr 6 10:40, status motion
Mon Apr 6 10:31, status motion
Mon Apr 6 10:30, status motion
Mon Apr 6 10:29, status motion
Mon Apr 6 10:24, status motion
Mon Apr 6 10:23, status motion
Mon Apr 6 10:22, status motion
Mon Apr 6 10:20, status motion
Mon Apr 6 10:19, status motion
Mon Apr 6 10:18, status motion
Mon Apr 6 10:02, no_motion 30m
Mon Apr 6 09:52, no_motion 20m
Mon Apr 6 09:42, no_motion 10m
Mon Apr 6 09:32, status motion
Mon Apr 6 09:29, status motion
Mon Apr 6 09:20, no_motion 10m
Mon Apr 6 09:10, status motion
Mon Apr 6 09:08, status motion
Mon Apr 6 09:07, status motion
Mon Apr 6 08:57, no_motion 10m
Mon Apr 6 08:47, status motion
Mon Apr 6 08:45, status motion
Mon Apr 6 08:42, status motion
Mon Apr 6 08:41, status motion
Mon Apr 6 08:40, status motion
Mon Apr 6 08:39, status motion
Mon Apr 6 08:38, status motion
Mon Apr 6 08:32, status motion
Mon Apr 6 08:31, status motion
Mon Apr 6 08:29, status motion
Mon Apr 6 08:28, status motion
Mon Apr 6 08:27, status motion
Mon Apr 6 08:26, status motion
Mon Apr 6 08:25, status motion
Mon Apr 6 08:24, status motion
Mon Apr 6 08:18, status motion
Mon Apr 6 08:17, status motion
Mon Apr 6 08:16, status motion
Mon Apr 6 08:15, status motion
Mon Apr 6 08:14, status motion
Mon Apr 6 08:13, status motion
Mon Apr 6 08:11, status motion
Mon Apr 6 08:10, status motion
Mon Apr 6 08:09, status motion
Mon Apr 6 08:07, status motion
Mon Apr 6 08:06, status motion
Mon Apr 6 08:05, status motion
Mon Apr 6 08:04, status motion
Mon Apr 6 08:03, status motion
Mon Apr 6 08:01, no_motion 10m
Mon Apr 6 07:51, status motion
Mon Apr 6 06:47, no_motion 30m
Mon Apr 6 06:37, no_motion 20m
Mon Apr 6 06:27, no_motion 10m
Mon Apr 6 06:17, status motion
Mon Apr 6 06:16, status motion
Mon Apr 6 06:15, status motion
Mon Apr 6 06:14, status motion
Mon Apr 6 06:13, status motion
Mon Apr 6 06:01, no_motion 30m
Mon Apr 6 05:51, no_motion 20m
Mon Apr 6 05:41, no_motion 10m
Mon Apr 6 05:31, status motion
Mon Apr 6 05:30, status motion
Mon Apr 6 05:29, status motion
Mon Apr 6 05:27, status motion
Mon Apr 6 05:26, status motion
Mon Apr 6 05:23, status motion
Mon Apr 6 02:49, no_motion 30m
Mon Apr 6 02:39, no_motion 20m
Mon Apr 6 02:29, no_motion 10m
Mon Apr 6 02:19, status motion
Mon Apr 6 02:18, status motion
Mon Apr 6 02:17, no_motion 20m
Mon Apr 6 02:07, no_motion 10m
Mon Apr 6 01:57, status motion
Mon Apr 6 01:56, status motion
Mon Apr 6 01:55, status motion
Mon Apr 6 01:48, status motion
Mon Apr 6 01:33, no_motion 30m
Mon Apr 6 01:23, no_motion 20m
Mon Apr 6 01:13, no_motion 10m
Mon Apr 6 01:03, status motion
Mon Apr 6 01:02, status motion
Sun Apr 5 23:14, no_motion 30m
Sun Apr 5 23:04, no_motion 20m
Sun Apr 5 22:54, no_motion 10m
Sun Apr 5 22:44, status motion
Sun Apr 5 22:42, no_motion 20m
Sun Apr 5 22:32, no_motion 10m
Sun Apr 5 22:22, status motion
Sun Apr 5 22:21, status motion
Sun Apr 5 22:20, status motion
Sun Apr 5 22:19, status motion
Sun Apr 5 22:18, status motion
Sun Apr 5 22:17, status motion
Sun Apr 5 22:16, status motion
Sun Apr 5 22:15, status motion
Sun Apr 5 22:13, status motion
Sun Apr 5 22:12, status motion
Sun Apr 5 22:09, status motion
Sun Apr 5 22:08, status motion
Sun Apr 5 22:07, status motion
Sun Apr 5 21:44, no_motion 30m
Sun Apr 5 21:34, no_motion 20m
Sun Apr 5 21:24, no_motion 10m
Sun Apr 5 21:14, status motion
Sun Apr 5 21:12, status motion
Sun Apr 5 21:11, status motion
Sun Apr 5 21:10, status motion
Sun Apr 5 21:09, status motion
Sun Apr 5 21:08, status motion
Sun Apr 5 21:04, no_motion 20m
Sun Apr 5 20:54, no_motion 10m
Sun Apr 5 20:44, status motion
Sun Apr 5 20:42, status motion
Sun Apr 5 20:41, no_motion 10m
Sun Apr 5 20:31, status motion
Sun Apr 5 20:29, status motion
Sun Apr 5 20:22, status motion
Sun Apr 5 20:20, status motion
Sun Apr 5 20:19, status motion
Sun Apr 5 20:19, no_motion 10m
Sun Apr 5 20:09, status motion
Sun Apr 5 20:08, status motion
Sun Apr 5 20:02, status motion
Sun Apr 5 19:58, no_motion 10m
Sun Apr 5 19:48, status motion
Sun Apr 5 19:47, status motion
Sun Apr 5 19:43, status motion
Sun Apr 5 19:42, status motion
Sun Apr 5 19:41, status motion
Sun Apr 5 19:40, status motion
Sun Apr 5 19:39, status motion
Sun Apr 5 19:38, status motion
Sun Apr 5 19:37, status motion
Sun Apr 5 19:36, status motion
Sun Apr 5 19:27, no_motion 10m
Sun Apr 5 19:17, status motion
Sun Apr 5 19:12, no_motion 30m
Sun Apr 5 19:02, no_motion 20m
Sun Apr 5 18:52, no_motion 10m
Sun Apr 5 18:42, status motion
Sun Apr 5 18:41, status motion
Sun Apr 5 18:36, status motion
Sun Apr 5 18:30, status motion
Sun Apr 5 18:29, status motion
Sun Apr 5 18:28, status motion
Sun Apr 5 18:27, status motion
Sun Apr 5 18:26, status motion
Sun Apr 5 18:24, status motion
Sun Apr 5 18:23, status motion
Sun Apr 5 18:22, status motion
Sun Apr 5 18:21, status motion
Sun Apr 5 18:17, status motion
Sun Apr 5 18:11, status motion
Sun Apr 5 18:10, status motion
Sun Apr 5 18:08, status motion
Sun Apr 5 18:06, status motion
Sun Apr 5 18:05, status motion
Sun Apr 5 18:01, no_motion 20m
Sun Apr 5 17:51, no_motion 10m
Sun Apr 5 17:41, status motion
Sun Apr 5 17:40, status motion
Sun Apr 5 17:38, status motion
Sun Apr 5 17:37, status motion
Sun Apr 5 17:35, no_motion 10m
Sun Apr 5 17:25, status motion
Sun Apr 5 17:24, status motion
Sun Apr 5 17:23, status motion
Sun Apr 5 17:22, no_motion 10m
Sun Apr 5 17:12, status motion
Sun Apr 5 17:11, status motion
Sun Apr 5 17:10, status motion
Sun Apr 5 17:04, status motion
Sun Apr 5 17:02, status motion
Sun Apr 5 17:00, status motion
Sun Apr 5 16:59, status motion
Sun Apr 5 16:58, status motion
Sun Apr 5 16:57, status motion
Sun Apr 5 16:56, status motion
Sun Apr 5 16:55, status motion
Sun Apr 5 16:53, status motion
Sun Apr 5 16:52, status motion
Sun Apr 5 16:51, status motion
Sun Apr 5 16:49, status motion
Sun Apr 5 16:41, no_motion 10m
Sun Apr 5 16:31, status motion
Sun Apr 5 16:26, status motion
Sun Apr 5 16:25, status motion
Sun Apr 5 16:16, status motion
Sun Apr 5 16:15, status motion
Sun Apr 5 16:13, status motion
Sun Apr 5 16:04, no_motion 10m
Sun Apr 5 15:54, status motion
Sun Apr 5 15:53, status motion
Sun Apr 5 15:45, no_motion 20m
Sun Apr 5 15:35, no_motion 10m
Sun Apr 5 15:25, status motion
Sun Apr 5 15:24, status motion
Sun Apr 5 15:23, status motion
Sun Apr 5 15:22, status motion
Sun Apr 5 15:15, no_motion 10m
Sun Apr 5 15:05, status motion
Sun Apr 5 14:56, status motion
Sun Apr 5 14:55, status motion
Sun Apr 5 14:47, status motion
Sun Apr 5 14:46, status motion
Sun Apr 5 14:41, no_motion 10m
Sun Apr 5 14:31, status motion
Sun Apr 5 14:30, status motion
Sun Apr 5 14:29, status motion
Sun Apr 5 14:28, status motion
Sun Apr 5 14:27, status motion
Sun Apr 5 14:26, status motion
Sun Apr 5 14:25, status motion
Sun Apr 5 14:24, status motion
Sun Apr 5 14:23, status motion
Sun Apr 5 14:22, status motion
Sun Apr 5 14:21, status motion
Sun Apr 5 14:20, status motion
Sun Apr 5 14:19, status motion
Sun Apr 5 14:18, status motion
Sun Apr 5 14:17, status motion
Sun Apr 5 14:16, status motion
Sun Apr 5 14:12, status motion
Sun Apr 5 14:11, status motion
Sun Apr 5 14:06, no_motion 10m
Sun Apr 5 13:56, status motion
Sun Apr 5 13:46, status motion
Sun Apr 5 13:45, no_motion 30m
Sun Apr 5 13:35, no_motion 20m
Sun Apr 5 13:25, no_motion 10m
Sun Apr 5 13:15, status motion
Sun Apr 5 13:11, no_motion 10m
Sun Apr 5 13:01, status motion
Sun Apr 5 13:00, status motion
Sun Apr 5 12:58, status motion
Sun Apr 5 12:56, status motion
Sun Apr 5 12:55, status motion
Sun Apr 5 12:54, status motion
Sun Apr 5 12:52, status motion
Sun Apr 5 12:51, status motion
Sun Apr 5 12:49, status motion
Sun Apr 5 12:48, status motion
Sun Apr 5 12:47, status motion
Sun Apr 5 12:45, status motion
Sun Apr 5 12:44, status motion
Sun Apr 5 12:43, status motion
Sun Apr 5 12:42, status motion
Sun Apr 5 12:41, status motion
Sun Apr 5 12:40, status motion
Sun Apr 5 12:39, status motion
Sun Apr 5 12:38, status motion
Sun Apr 5 12:37, status motion
Sun Apr 5 12:36, status motion
Sun Apr 5 12:35, status motion
Sun Apr 5 11:50, no_motion 30m
Sun Apr 5 11:40, no_motion 20m
Sun Apr 5 11:30, no_motion 10m
Sun Apr 5 11:20, status motion
Sun Apr 5 11:19, status motion
Sun Apr 5 11:18, status motion
Sun Apr 5 11:17, status motion
Sun Apr 5 11:16, status motion
Sun Apr 5 11:07, status motion
Sun Apr 5 11:05, status motion
Sun Apr 5 11:02, status motion
Sun Apr 5 11:01, status motion
Sun Apr 5 10:53, status motion
Sun Apr 5 10:50, status motion
Sun Apr 5 10:49, status motion
Sun Apr 5 10:48, status motion
Sun Apr 5 10:47, status motion
Sun Apr 5 10:38, status motion
Sun Apr 5 10:37, status motion
Sun Apr 5 10:35, status motion
Sun Apr 5 10:34, status motion
Sun Apr 5 10:33, status motion
Sun Apr 5 10:32, status motion
Sun Apr 5 10:31, status motion
Sun Apr 5 10:30, status motion
Sun Apr 5 10:29, no_motion 10m
Sun Apr 5 10:19, status motion
Sun Apr 5 10:14, status motion
Sun Apr 5 10:10, status motion
Sun Apr 5 10:09, status motion
Sun Apr 5 10:08, status motion
Sun Apr 5 10:06, status motion
Sun Apr 5 10:03, status motion
Sun Apr 5 10:01, status motion
Sun Apr 5 10:00, status motion
Sun Apr 5 09:59, status motion
Sun Apr 5 09:58, status motion
Sun Apr 5 09:51, status motion
Sun Apr 5 09:50, no_motion 10m
Sun Apr 5 09:40, status motion
Sun Apr 5 09:35, status motion
Sun Apr 5 09:34, status motion
Sun Apr 5 09:33, status motion
Sun Apr 5 09:31, status motion
Sun Apr 5 09:30, status motion
Sun Apr 5 09:29, status motion
Sun Apr 5 09:28, status motion
Sun Apr 5 09:26, status motion
Sun Apr 5 09:25, status motion
Sun Apr 5 09:24, status motion
Sun Apr 5 09:23, status motion
Sun Apr 5 09:22, status motion
Sun Apr 5 09:21, status motion
Sun Apr 5 09:20, status motion
Sun Apr 5 09:19, status motion
Sun Apr 5 09:18, status motion
Sun Apr 5 09:17, status motion

s7 Alarm Arm
Wed Feb 26 13:20, click

Wed Feb 26 13:20, click
Wed Feb 26 13:20, click
Wed Feb 26 11:47, click
Wed Feb 26 11:46, click
Sun Feb 16 17:43, disarmed
Sun Feb 16 17:43, ARM..
Sat Feb 15 11:51, click
Wed Feb 12 12:35, click
Tue Feb 11 12:32, click
Sun Feb 9 11:28, click
Wed Jan 29 07:00, disarmed
Wed Jan 29 06:59, ARM..
Sat Jan 4 09:29, disarmed
Sat Jan 4 09:29, ARM..
Sat Jan 4 09:29, disarmed
Sat Jan 4 09:29, ARM..
Sat Jan 4 06:35, disarmed
Sat Jan 4 06:34, ARM..
Sat Jan 4 06:13, disarmed
Sat Jan 4 06:12, ARM..
Sat Jan 4 06:10, disarmed
Sat Jan 4 06:09, ARM..
Sat Jan 4 06:07, disarmed
Sat Jan 4 06:07, ARM..
Sat Jan 4 05:56, disarmed
Sat Jan 4 05:55, ARM..
Fri Jan 3 22:46, disarmed
Fri Jan 3 22:46, ARM..
Wed Jan 1 13:34, disarmed
Wed Jan 1 13:34, ARM..
Wed Jan 1 10:31, click
Tue Dec 31 19:29, disarmed
Tue Dec 31 19:29, ALARM
Tue Dec 31 16:39, ARM..
Tue Dec 31 16:05, disarmed
Tue Dec 31 15:46, ARM..
Mon Dec 30 16:05, disarmed
Mon Dec 30 15:54, ALARM
Mon Dec 30 15:53, ARM..
Mon Dec 30 15:49, disarmed
Mon Dec 30 15:19, ALARM
Mon Dec 30 15:15, ARM..
Mon Dec 30 15:15, disarmed
Mon Dec 30 15:04, ARM..
Mon Dec 30 00:16, disarmed
Sun Dec 29 18:17, ALARM
Sun Dec 29 18:15, ARM..
Sun Dec 29 17:58, disarmed
Sun Dec 29 17:58, ARM..
Sat Dec 28 16:37, disarmed
Sat Dec 28 16:37, ARM..
Tue Dec 24 11:56, disarmed
Tue Dec 24 11:56, ARM..
Tue Dec 24 11:56, click
Tue Dec 24 11:56, click
Tue Dec 24 11:56, click
Sun Dec 22 09:04, disarmed
Sat Dec 21 22:02, ARM..
Sat Dec 21 22:02, disarmed
Sat Dec 21 16:59, ALARM
Sat Dec 21 16:56, ARM..
Fri Dec 20 10:04, disarmed
Fri Dec 20 10:04, ALARM
Fri Dec 20 10:02, ARM..
Fri Dec 13 14:23, disarmed
Fri Dec 13 14:22, ALARM
Fri Dec 13 13:50, ARM..
Tue Dec 10 18:53, click
Sat Dec 7 12:32, click
Sat Dec 7 11:58, OFF
Sat Dec 7 11:57, ARM..
Wed Nov 27 18:24, OFF
Wed Nov 27 18:23, ARM..
Wed Nov 27 18:23, OFF
Wed Nov 27 18:22, ARM..
Mon Nov 25 14:37, OFF
Mon Nov 25 14:36, ARM..
Mon Nov 25 14:35, OFF
Mon Nov 25 14:35, ARM..
Mon Nov 25 14:34, OFF
Mon Nov 25 14:34, ARM..
Mon Nov 25 14:33, OFF
Mon Nov 25 14:33, ARM..
Mon Nov 25 14:32, OFF
Mon Nov 25 14:32, ARM..
Mon Nov 25 14:19, OFF
Mon Nov 25 14:18, ARM..
Thu Nov 21 15:46, click
Sat Nov 2 17:07, OFF
Sat Nov 2 17:07, ARM..
Fri Nov 1 11:34, ARM..
Fri Nov 1 11:34, OFF
Fri Nov 1 10:25, ARM..
Thu Oct 31 16:26, OFF
Thu Oct 31 14:58, ARM..
Thu Oct 31 14:58, ARM..
Thu Oct 31 08:53, OFF
Thu Oct 31 08:53, ARM..
Thu Oct 31 08:53, OFF
Thu Oct 31 08:52, ARM..
Wed Oct 30 12:54, OFF
Wed Oct 30 12:45, ARM..
Wed Oct 30 11:56, OFF
Wed Oct 30 11:51, ARM..
Wed Oct 30 11:45, OFF
Wed Oct 30 11:41, ARM..
Tue Oct 29 19:17, click
Tue Oct 29 19:17, long_press
Mon Oct 28 22:16, OFF
Mon Oct 28 22:15, ARM..
Mon Oct 28 21:38, OFF
Mon Oct 28 21:37, ARM..
Mon Oct 28 21:36, OFF
Mon Oct 28 21:36, ARM..
Mon Oct 28 21:03, OFF
Mon Oct 28 21:03, ARM..
Mon Oct 28 17:04, OFF
Mon Oct 28 17:02, double_click
Mon Oct 28 16:56, OFF
Mon Oct 28 16:55, double_click
Mon Oct 28 16:53, OFF
Mon Oct 28 16:51, double_click
Mon Oct 28 16:51, OFF
Mon Oct 28 16:50, double_click
Mon Oct 28 16:44, OFF
Mon Oct 28 16:43, double_click
Mon Oct 28 16:41, double_click
Mon Oct 28 16:40, double_click
Mon Oct 28 16:40, double_click
Mon Oct 28 16:39, double_click
Mon Oct 28 16:21, OFF
Mon Oct 28 16:20, double_click
Mon Oct 28 16:20, OFF
Mon Oct 28 16:20, double_click
Sun Oct 27 17:16, OFF
Sun Oct 27 17:15, double_click
Sun Oct 27 13:34, OFF
Sun Oct 27 13:33, double_click
Sun Oct 27 13:32, OFF
Sun Oct 27 13:32, double_click
Sun Oct 27 13:32, OFF
Sun Oct 27 13:32, double_click
Sun Oct 27 13:32, double_click
Sun Oct 27 13:24, OFF
Sun Oct 27 13:24, double_click
Sun Oct 27 13:23, OFF
Sun Oct 27 13:23, double_click
Sun Oct 27 13:22, OFF
Sun Oct 27 13:22, double_click
Sun Oct 27 13:21, OFF
Sun Oct 27 13:20, double_click
Sun Oct 27 13:20, double_click
Sun Oct 27 13:19, double_click
Sun Oct 27 13:17, double_click
Sun Oct 27 13:17, double_click
Sun Oct 27 13:17, double_click
Sun Oct 27 13:16, double_click
Sun Oct 27 13:06, double_click
Sun Oct 27 13:06, double_click
Sun Oct 27 13:06, double_click
Sun Oct 27 13:05, double_click
Sun Oct 27 13:05, double_click
Sun Oct 27 13:05, double_click
Sun Oct 27 13:03, double_click
Sun Oct 27 13:03, double_click
Sun Oct 27 12:59, double_click
Sun Oct 27 12:59, double_click
Sun Oct 27 12:58, double_click
Sun Oct 27 12:55, double_click
Sun Oct 27 12:54, double_click
Sun Oct 27 12:54, double_click
Sun Oct 27 12:03, double_click
Sun Oct 27 12:03, double_click
Sun Oct 27 12:02, double_click
Sun Oct 27 12:02, double_click
Sat Oct 26 07:04, double_click
Sat Oct 26 07:03, double_click
Sat Oct 26 06:58, double_click
Sat Oct 26 06:57, double_click
Fri Oct 25 15:48, double_click
Fri Oct 25 15:47, double_click
Fri Oct 25 15:46, double_click
Fri Oct 25 15:45, double_click
Fri Oct 25 15:43, double_click
Fri Oct 25 15:43, double_click
Fri Oct 25 15:42, double_click
Fri Oct 25 15:39, double_click
Fri Oct 25 15:38, double_click
Fri Oct 25 15:36, double_click
Fri Oct 25 15:36, double_click
Fri Oct 25 15:34, double_click
Fri Oct 25 12:06, double_click
Fri Oct 25 12:00, double_click
Fri Oct 25 11:40, double_click
Fri Oct 25 11:39, double_click
Fri Oct 25 11:39, click
Fri Oct 25 11:32, click
Fri Oct 25 11:30, click
Tue Jun 4 11:23, click
Wed May 29 12:46, click
Wed May 29 12:37, click
Wed May 29 11:52, click
Wed May 29 11:52, click
Wed May 29 11:46, click
Wed May 29 11:43, click
Wed May 29 11:41, click
Wed May 29 11:41, click
Wed May 29 11:40, click
Wed May 29 11:40, click
Wed May 29 11:40, click
Wed May 29 11:39, click
Wed May 29 11:39, click
Wed May 29 11:39, click
Wed May 29 11:39, click
Wed May 29 11:38, click
Wed May 29 11:38, click
Wed May 29 11:38, click
Wed May 29 11:38, click
Wed May 29 11:37, click
Wed May 29 11:37, click
Wed May 29 11:31, click
Wed May 29 11:26, click
Mon May 27 13:15, click
Sat May 25 15:45, double_click
Sat May 25 15:44, double_click
Sat May 25 15:43, double_click
Sat May 25 15:43, double_click
Sat May 25 15:43, click
Sat May 25 15:37, double_click
Sat May 25 15:37, double_click
Sat May 25 15:34, double_click
Sat May 25 15:34, double_click
Sat May 25 15:33, double_click
Sat May 25 15:33, double_click
Fri May 24 16:22, click
Fri May 24 16:00, click
Fri May 24 15:45, click
Fri May 24 15:37, click
Fri May 24 15:31, click
Fri May 24 15:30, click
Fri May 24 15:14, click
Fri May 24 15:08, click
Fri May 24 15:07, click
Sat Mar 16 12:08, click
Tue Mar 12 12:19, click
Sun Mar 3 10:15, click
Fri Jan 25 15:56, click
Fri Nov 16 15:53, double_click
Fri Nov 16 15:53, double_click
Mon Nov 12 16:22, click
Mon Nov 12 16:20, click
Sun Nov 11 16:39, double_click
Sun Nov 11 16:38, click
Sun Nov 11 16:38, long_press
Sun Nov 11 16:38, click
Sun Nov 11 16:38, long_press
Sun Nov 11 16:38, click
Sun Nov 11 16:38, click
Sun Nov 11 16:38, long_press
Sun Nov 11 16:38, click
Sun Nov 11 16:38, click
Sun Nov 11 16:38, click
Sun Nov 11 16:38, click
Sun Nov 11 16:38, click
Sun Nov 11 16:38, click
Sun Nov 11 16:38, click
Sun Nov 11 16:38, click
Sat Nov 10 07:36, double_click
Sat Nov 10 06:48, double_click
Sat Nov 10 06:47, double_click
Fri Nov 9 17:17, double_click
Fri Nov 9 17:16, double_click
Thu Oct 25 17:15, click
Sat Oct 20 12:06, double_click
Sat Oct 20 12:06, double_click
Sat Oct 20 00:29, double_click
Fri Oct 19 19:13, double_click
Fri Oct 19 19:09, click
Thu Oct 18 09:58, double_click
Thu Oct 18 09:56, double_click
Sat Sep 29 18:38, double_click
Sat Sep 29 18:37, double_click
Sat Sep 29 18:37, click
Sat Sep 29 18:37, click
Sun Sep 23 12:38, double_click
Sun Sep 23 12:38, double_click
Sun Sep 23 12:37, double_click
Sun Sep 23 12:37, click
Sat Sep 22 23:37, double_click
Sat Sep 22 23:37, click
Sat Sep 22 23:37, click
Sat Sep 22 17:22, double_click
Sat Sep 22 17:13, double_click
Sat Sep 22 17:13, double_click
Sun Sep 16 17:48, long_release
Sun Sep 16 17:48, long_press
Sun Sep 9 06:51, double_click
Sun Sep 9 06:51, double_click
Sun Sep 9 06:41, double_click
Sun Sep 9 06:41, double_click
Sat Sep 8 23:20, double_click
Sat Sep 8 13:31, double_click
Sat Sep 8 13:26, double_click
Sat Sep 8 13:26, double_click
Mon Sep 3 09:50, double_click
Mon Sep 3 09:49, double_click
Mon Sep 3 09:49, click
Mon Sep 3 09:49, long_press
Mon Sep 3 09:48, click
Mon Sep 3 09:47, click
Mon Sep 3 09:47, double_click
Mon Sep 3 09:47, long_release
Mon Sep 3 09:47, long_press
Mon Sep 3 09:45, double_click
Mon Sep 3 09:45, double_click
Mon Sep 3 09:45, double_click
Mon Sep 3 09:44, double_click
Fri Aug 17 10:59, click
Fri Aug 17 08:34, double_click
Fri Aug 17 08:32, double_click
Wed Aug 15 12:40, click
Wed Aug 15 10:29, double_click
Wed Aug 15 10:28, double_click
Wed Aug 15 10:28, click
Wed Aug 15 10:28, click
Wed Aug 15 10:28, click
Wed Aug 15 10:28, double_click
Wed Aug 15 10:26, double_click
Tue Aug 14 20:35, double_click
Tue Aug 14 20:35, double_click
Tue Aug 14 20:33, click
Tue Aug 14 17:21, double_click
Tue Aug 14 17:09, double_click
Tue Aug 14 17:04, double_click
Tue Aug 14 17:04, double_click
Tue Aug 14 17:04, click
Tue Aug 14 17:04, double_click
Wed May 30 19:10, click
Sat May 5 13:33, click
Fri May 4 06:34, click
Fri May 4 06:33, click
Thu May 3 16:55, click
Thu May 3 15:47, click
Thu May 3 15:47, click
Thu May 3 15:47, click
Thu May 3 15:47, click
Thu May 3 15:46, click
Thu May 3 15:46, click
Thu May 3 15:46, click
Thu May 3 15:46, click
Thu May 3 15:46, click
Thu May 3 15:45, click
Thu May 3 15:45, click
Thu May 3 15:26, click
Fri Apr 20 09:11, click
Fri Apr 13 16:02, double_click
Fri Apr 13 09:33, click
Fri Mar 16 10:05, click
Fri Mar 16 08:19, click
Fri Mar 16 07:55, click
Fri Mar 16 07:50, click
Fri Mar 16 07:48, click
Fri Mar 16 07:46, click
Thu Mar 15 16:28, click
Thu Mar 15 16:28, click
Mon Mar 5 16:53, click
Mon Mar 5 14:27, click
Mon Mar 5 14:24, click
Mon Mar 5 14:24, click
Tue Feb 20 06:27, click
Tue Feb 20 06:25, click
Tue Feb 20 06:15, click
Tue Feb 20 06:10, click
Mon Feb 19 22:08, click

s8 FLOOD !
Tue Apr 7 13:46, no_leak

Tue Apr 7 13:46, no_leak
Tue Apr 7 12:56, no_leak
Tue Apr 7 12:06, no_leak
Tue Apr 7 11:15, no_leak
Tue Apr 7 10:25, no_leak
Tue Apr 7 09:35, no_leak
Tue Apr 7 08:45, no_leak
Tue Apr 7 07:54, no_leak
Tue Apr 7 07:04, no_leak
Tue Apr 7 06:14, no_leak
Tue Apr 7 05:24, no_leak
Tue Apr 7 04:33, no_leak
Tue Apr 7 03:43, no_leak
Tue Apr 7 02:53, no_leak
Tue Apr 7 02:03, no_leak
Tue Apr 7 01:12, no_leak
Tue Apr 7 00:22, no_leak
Mon Apr 6 23:32, no_leak
Mon Apr 6 22:42, no_leak
Mon Apr 6 21:52, no_leak
Mon Apr 6 21:01, no_leak
Mon Apr 6 20:11, no_leak
Mon Apr 6 19:21, no_leak
Mon Apr 6 18:31, no_leak
Mon Apr 6 17:40, no_leak
Mon Apr 6 16:50, no_leak
Mon Apr 6 16:00, no_leak
Mon Apr 6 15:10, no_leak
Mon Apr 6 14:20, no_leak
Mon Apr 6 12:39, no_leak
Mon Apr 6 11:49, no_leak
Mon Apr 6 10:59, no_leak
Mon Apr 6 10:09, no_leak
Mon Apr 6 09:18, no_leak
Mon Apr 6 08:28, no_leak
Mon Apr 6 07:38, no_leak
Mon Apr 6 06:48, no_leak
Mon Apr 6 05:57, no_leak
Mon Apr 6 05:07, no_leak
Mon Apr 6 04:17, no_leak
Mon Apr 6 03:27, no_leak
Mon Apr 6 02:37, no_leak
Mon Apr 6 01:46, no_leak
Mon Apr 6 00:56, no_leak
Mon Apr 6 00:06, no_leak
Sun Apr 5 23:16, no_leak
Sun Apr 5 22:26, no_leak
Sun Apr 5 21:35, no_leak
Sun Apr 5 19:55, no_leak
Sun Apr 5 19:04, no_leak
Sun Apr 5 18:14, no_leak
Sun Apr 5 17:24, no_leak
Sun Apr 5 16:34, no_leak
Sun Apr 5 15:44, no_leak
Sun Apr 5 14:54, no_leak
Sun Apr 5 14:03, no_leak
Sun Apr 5 13:13, no_leak
Sun Apr 5 12:23, no_leak
Sun Apr 5 11:33, no_leak
Sun Apr 5 10:42, no_leak
Sun Apr 5 09:52, no_leak
Sun Apr 5 09:01, no_leak
Sun Apr 5 08:11, no_leak
Sun Apr 5 07:21, no_leak
Sun Apr 5 06:30, no_leak
Sun Apr 5 05:40, no_leak
Sun Apr 5 04:50, no_leak
Sun Apr 5 04:00, no_leak
Sun Apr 5 03:10, no_leak
Sun Apr 5 02:19, no_leak
Sun Apr 5 01:29, no_leak
Sun Apr 5 00:39, no_leak
Sat Apr 4 23:49, no_leak
Sat Apr 4 22:58, no_leak
Sat Apr 4 22:08, no_leak
Sat Apr 4 21:18, no_leak
Sat Apr 4 20:28, no_leak
Sat Apr 4 19:37, no_leak
Sat Apr 4 18:47, no_leak
Sat Apr 4 16:16, no_leak
Sat Apr 4 15:26, no_leak
Sat Apr 4 13:45, no_leak
Sat Apr 4 12:55, no_leak
Sat Apr 4 12:05, no_leak
Sat Apr 4 11:15, no_leak
Sat Apr 4 10:24, no_leak
Sat Apr 4 09:34, no_leak
Sat Apr 4 08:44, no_leak
Sat Apr 4 07:53, no_leak
Sat Apr 4 07:03, no_leak
Sat Apr 4 06:13, no_leak
Sat Apr 4 05:23, no_leak
Sat Apr 4 04:32, no_leak
Sat Apr 4 03:42, no_leak
Sat Apr 4 02:52, no_leak
Sat Apr 4 02:02, no_leak
Sat Apr 4 01:11, no_leak
Sat Apr 4 00:21, no_leak
Fri Apr 3 23:31, no_leak
Fri Apr 3 22:41, no_leak
Fri Apr 3 21:50, no_leak
Fri Apr 3 21:00, no_leak
Fri Apr 3 20:10, no_leak
Fri Apr 3 19:19, no_leak
Fri Apr 3 18:29, no_leak
Fri Apr 3 17:39, no_leak
Fri Apr 3 15:59, no_leak
Fri Apr 3 15:08, no_leak
Fri Apr 3 14:18, no_leak
Fri Apr 3 13:28, no_leak
Fri Apr 3 12:38, no_leak
Fri Apr 3 11:47, no_leak
Fri Apr 3 10:57, no_leak
Fri Apr 3 10:07, no_leak
Fri Apr 3 09:17, no_leak
Fri Apr 3 08:26, no_leak
Fri Apr 3 07:36, no_leak
Fri Apr 3 06:46, no_leak
Fri Apr 3 05:56, no_leak
Fri Apr 3 05:05, no_leak
Fri Apr 3 04:15, no_leak
Fri Apr 3 03:25, no_leak
Fri Apr 3 02:35, no_leak
Fri Apr 3 01:44, no_leak
Fri Apr 3 00:54, no_leak
Fri Apr 3 00:04, no_leak
Thu Apr 2 23:14, no_leak
Thu Apr 2 22:23, no_leak
Thu Apr 2 21:33, no_leak
Thu Apr 2 20:43, no_leak
Thu Apr 2 19:53, no_leak
Thu Apr 2 19:02, no_leak
Thu Apr 2 18:12, no_leak
Thu Apr 2 17:22, no_leak
Thu Apr 2 16:32, no_leak
Thu Apr 2 15:41, no_leak
Thu Apr 2 14:51, no_leak
Thu Apr 2 14:01, no_leak
Thu Apr 2 13:11, no_leak
Thu Apr 2 12:21, no_leak
Thu Apr 2 11:30, no_leak
Thu Apr 2 10:40, no_leak
Thu Apr 2 09:50, no_leak
Thu Apr 2 09:00, no_leak
Thu Apr 2 08:09, no_leak
Thu Apr 2 07:19, no_leak
Thu Apr 2 06:29, no_leak
Thu Apr 2 05:38, no_leak
Thu Apr 2 04:48, no_leak
Thu Apr 2 03:58, no_leak
Thu Apr 2 03:08, no_leak
Thu Apr 2 02:17, no_leak
Thu Apr 2 01:27, no_leak
Thu Apr 2 00:37, no_leak
Wed Apr 1 23:46, no_leak
Wed Apr 1 22:56, no_leak
Wed Apr 1 22:06, no_leak
Wed Apr 1 21:16, no_leak
Wed Apr 1 20:26, no_leak
Wed Apr 1 19:35, no_leak
Wed Apr 1 18:45, no_leak
Wed Apr 1 17:55, no_leak
Wed Apr 1 17:05, no_leak
Wed Apr 1 16:14, no_leak
Wed Apr 1 15:24, no_leak
Wed Apr 1 14:34, no_leak
Wed Apr 1 13:44, no_leak
Wed Apr 1 12:53, no_leak
Wed Apr 1 07:52, no_leak
Wed Apr 1 07:01, no_leak
Wed Apr 1 06:11, no_leak
Wed Apr 1 05:21, no_leak
Wed Apr 1 04:31, no_leak
Wed Apr 1 03:40, no_leak
Wed Apr 1 02:50, no_leak
Wed Apr 1 02:00, no_leak
Wed Apr 1 01:10, no_leak
Wed Apr 1 00:19, no_leak
Tue Mar 31 23:29, no_leak
Tue Mar 31 22:39, no_leak
Tue Mar 31 21:49, no_leak
Tue Mar 31 20:58, no_leak
Tue Mar 31 20:08, no_leak
Tue Mar 31 19:18, no_leak
Tue Mar 31 18:28, no_leak
Tue Mar 31 17:37, no_leak
Tue Mar 31 16:47, no_leak
Tue Mar 31 15:57, no_leak
Tue Mar 31 15:07, no_leak
Tue Mar 31 14:17, no_leak
Tue Mar 31 13:26, no_leak
Tue Mar 31 12:36, no_leak
Tue Mar 31 11:46, no_leak
Tue Mar 31 10:56, no_leak
Tue Mar 31 10:05, no_leak
Tue Mar 31 09:15, no_leak
Tue Mar 31 08:25, no_leak
Tue Mar 31 07:35, no_leak
Tue Mar 31 06:44, no_leak
Tue Mar 31 05:54, no_leak
Tue Mar 31 05:04, no_leak
Tue Mar 31 04:13, no_leak
Tue Mar 31 03:23, no_leak
Tue Mar 31 02:33, no_leak
Tue Mar 31 01:43, no_leak
Tue Mar 31 00:52, no_leak
Tue Mar 31 00:02, no_leak
Mon Mar 30 23:12, no_leak
Mon Mar 30 22:22, no_leak
Mon Mar 30 21:32, no_leak
Mon Mar 30 20:41, no_leak
Mon Mar 30 19:51, no_leak
Mon Mar 30 19:01, no_leak
Mon Mar 30 18:11, no_leak
Mon Mar 30 17:20, no_leak
Mon Mar 30 16:30, no_leak
Mon Mar 30 15:40, no_leak
Mon Mar 30 14:50, no_leak
Mon Mar 30 14:00, no_leak
Mon Mar 30 13:09, no_leak
Mon Mar 30 12:19, no_leak
Mon Mar 30 11:29, no_leak
Mon Mar 30 10:39, no_leak
Mon Mar 30 09:48, no_leak
Mon Mar 30 08:58, no_leak
Mon Mar 30 08:08, no_leak
Mon Mar 30 07:18, no_leak
Mon Mar 30 06:27, no_leak
Mon Mar 30 05:37, no_leak
Mon Mar 30 04:47, no_leak
Mon Mar 30 03:57, no_leak
Mon Mar 30 03:06, no_leak
Mon Mar 30 02:16, no_leak
Mon Mar 30 01:26, no_leak
Mon Mar 30 00:36, no_leak
Sun Mar 29 23:45, no_leak
Sun Mar 29 22:55, no_leak
Sun Mar 29 22:05, no_leak
Sun Mar 29 21:15, no_leak
Sun Mar 29 20:24, no_leak
Sun Mar 29 19:34, no_leak
Sun Mar 29 18:44, no_leak
Sun Mar 29 17:54, no_leak
Sun Mar 29 17:03, no_leak
Sun Mar 29 16:13, no_leak
Sun Mar 29 15:23, no_leak
Sun Mar 29 14:33, no_leak
Sun Mar 29 13:43, no_leak
Sun Mar 29 12:52, no_leak
Sun Mar 29 12:02, no_leak
Sun Mar 29 11:12, no_leak
Sun Mar 29 10:22, no_leak
Sun Mar 29 09:31, no_leak
Sun Mar 29 08:41, no_leak
Sun Mar 29 07:50, no_leak
Sun Mar 29 07:00, no_leak
Sun Mar 29 06:10, no_leak
Sun Mar 29 05:20, no_leak
Sun Mar 29 04:29, no_leak
Sun Mar 29 03:39, no_leak
Sun Mar 29 02:49, no_leak
Sun Mar 29 00:59, no_leak
Sun Mar 29 00:08, no_leak
Sat Mar 28 23:18, no_leak
Sat Mar 28 22:28, no_leak
Sat Mar 28 21:38, no_leak
Sat Mar 28 20:47, no_leak
Sat Mar 28 19:57, no_leak
Sat Mar 28 19:07, no_leak
Sat Mar 28 18:17, no_leak
Sat Mar 28 17:26, no_leak
Sat Mar 28 16:36, no_leak
Sat Mar 28 15:46, no_leak
Sat Mar 28 14:56, no_leak
Sat Mar 28 14:06, no_leak
Sat Mar 28 13:15, no_leak
Sat Mar 28 12:25, no_leak
Sat Mar 28 11:35, no_leak
Sat Mar 28 10:45, no_leak
Sat Mar 28 09:54, no_leak
Sat Mar 28 09:04, no_leak
Sat Mar 28 08:14, no_leak
Sat Mar 28 07:24, no_leak
Sat Mar 28 06:33, no_leak
Sat Mar 28 05:43, no_leak
Sat Mar 28 04:53, no_leak
Sat Mar 28 04:03, no_leak
Sat Mar 28 03:12, no_leak
Sat Mar 28 02:22, no_leak
Sat Mar 28 01:32, no_leak
Sat Mar 28 00:42, no_leak
Fri Mar 27 23:51, no_leak
Fri Mar 27 23:01, no_leak
Fri Mar 27 22:11, no_leak
Fri Mar 27 21:21, no_leak
Fri Mar 27 20:30, no_leak
Fri Mar 27 19:40, no_leak
Fri Mar 27 18:50, no_leak
Fri Mar 27 18:00, no_leak
Fri Mar 27 17:09, no_leak
Fri Mar 27 16:19, no_leak
Fri Mar 27 15:29, no_leak
Fri Mar 27 14:39, no_leak
Fri Mar 27 13:49, no_leak
Fri Mar 27 12:58, no_leak
Fri Mar 27 12:08, no_leak
Fri Mar 27 11:18, no_leak
Fri Mar 27 10:28, no_leak
Fri Mar 27 09:37, no_leak
Fri Mar 27 08:47, no_leak
Fri Mar 27 07:57, no_leak
Fri Mar 27 07:07, no_leak
Fri Mar 27 06:16, no_leak
Fri Mar 27 05:26, no_leak
Fri Mar 27 04:36, no_leak
Fri Mar 27 03:46, no_leak
Fri Mar 27 02:55, no_leak
Fri Mar 27 02:05, no_leak
Fri Mar 27 01:15, no_leak
Fri Mar 27 00:25, no_leak
Thu Mar 26 23:34, no_leak
Thu Mar 26 22:44, no_leak
Thu Mar 26 21:54, no_leak
Thu Mar 26 21:04, no_leak
Thu Mar 26 20:14, no_leak
Thu Mar 26 19:23, no_leak
Thu Mar 26 18:33, no_leak
Thu Mar 26 17:43, no_leak
Thu Mar 26 16:53, no_leak
Thu Mar 26 16:02, no_leak
Thu Mar 26 15:12, no_leak
Thu Mar 26 14:22, no_leak
Thu Mar 26 13:32, no_leak
Thu Mar 26 12:42, no_leak
Thu Mar 26 11:51, no_leak
Thu Mar 26 11:01, no_leak
Thu Mar 26 10:11, no_leak
Thu Mar 26 09:21, no_leak
Thu Mar 26 08:31, no_leak
Thu Mar 26 07:40, no_leak
Thu Mar 26 06:50, no_leak
Thu Mar 26 06:00, no_leak
Thu Mar 26 05:10, no_leak
Thu Mar 26 04:19, no_leak
Thu Mar 26 03:29, no_leak
Thu Mar 26 02:39, no_leak
Thu Mar 26 01:49, no_leak
Thu Mar 26 00:58, no_leak
Thu Mar 26 00:08, no_leak
Wed Mar 25 23:18, no_leak
Wed Mar 25 22:28, no_leak
Wed Mar 25 21:37, no_leak
Wed Mar 25 20:47, no_leak
Wed Mar 25 19:57, no_leak
Wed Mar 25 19:07, no_leak
Wed Mar 25 18:17, no_leak
Wed Mar 25 17:26, no_leak
Wed Mar 25 16:36, no_leak
Wed Mar 25 15:46, no_leak
Wed Mar 25 14:56, no_leak
Wed Mar 25 14:06, no_leak
Wed Mar 25 13:15, no_leak
Wed Mar 25 12:25, no_leak
Wed Mar 25 11:35, no_leak
Wed Mar 25 10:45, no_leak
Wed Mar 25 09:55, no_leak
Wed Mar 25 09:04, no_leak
Wed Mar 25 08:14, no_leak
Wed Mar 25 07:24, no_leak
Wed Mar 25 06:33, no_leak
Wed Mar 25 05:43, no_leak
Wed Mar 25 04:53, no_leak
Wed Mar 25 04:03, no_leak
Wed Mar 25 03:12, no_leak
Wed Mar 25 01:32, no_leak
Wed Mar 25 00:42, no_leak
Tue Mar 24 23:51, no_leak
Tue Mar 24 23:01, no_leak
Tue Mar 24 22:11, no_leak
Tue Mar 24 21:21, no_leak
Tue Mar 24 20:30, no_leak
Tue Mar 24 19:40, no_leak
Tue Mar 24 18:50, no_leak
Tue Mar 24 18:00, no_leak
Tue Mar 24 17:09, no_leak
Tue Mar 24 16:19, no_leak
Tue Mar 24 15:29, no_leak
Tue Mar 24 14:39, no_leak
Tue Mar 24 13:49, no_leak
Tue Mar 24 12:58, no_leak
Tue Mar 24 12:08, no_leak
Tue Mar 24 11:18, no_leak
Tue Mar 24 10:28, no_leak
Tue Mar 24 09:37, no_leak
Tue Mar 24 08:47, no_leak
Tue Mar 24 07:57, no_leak
Tue Mar 24 07:07, no_leak
Tue Mar 24 06:16, no_leak
Tue Mar 24 05:26, no_leak
Tue Mar 24 04:36, no_leak
Tue Mar 24 03:46, no_leak
Tue Mar 24 02:55, no_leak
Tue Mar 24 02:05, no_leak
Tue Mar 24 01:15, no_leak
Tue Mar 24 00:25, no_leak
Mon Mar 23 23:34, no_leak
Mon Mar 23 22:44, no_leak
Mon Mar 23 21:54, no_leak
Mon Mar 23 21:04, no_leak
Mon Mar 23 20:14, no_leak
Mon Mar 23 19:23, no_leak
Mon Mar 23 18:33, no_leak
Mon Mar 23 17:43, no_leak
Mon Mar 23 16:53, no_leak
Mon Mar 23 16:02, no_leak
Mon Mar 23 15:12, no_leak
Mon Mar 23 14:22, no_leak
Mon Mar 23 13:32, no_leak
Mon Mar 23 12:42, no_leak
Mon Mar 23 11:51, no_leak
Mon Mar 23 11:01, no_leak
Mon Mar 23 10:11, no_leak
Mon Mar 23 09:21, no_leak
Mon Mar 23 08:30, no_leak
Mon Mar 23 07:40, no_leak
Mon Mar 23 06:50, no_leak
Mon Mar 23 05:59, no_leak
Mon Mar 23 05:09, no_leak
Mon Mar 23 04:19, no_leak
Mon Mar 23 03:29, no_leak
Mon Mar 23 02:38, no_leak
Mon Mar 23 01:48, no_leak
Mon Mar 23 00:58, no_leak
Mon Mar 23 00:08, no_leak
Sun Mar 22 23:17, no_leak
Sun Mar 22 22:27, no_leak
Sun Mar 22 21:37, no_leak
Sun Mar 22 20:47, no_leak
Sun Mar 22 19:56, no_leak
Sun Mar 22 19:06, no_leak
Sun Mar 22 18:16, no_leak
Sun Mar 22 17:26, no_leak
Sun Mar 22 16:35, no_leak
Sun Mar 22 15:45, no_leak
Sun Mar 22 14:55, no_leak
Sun Mar 22 14:05, no_leak
Sun Mar 22 13:15, no_leak
Sun Mar 22 12:24, no_leak
Sun Mar 22 11:34, no_leak
Sun Mar 22 10:44, no_leak
Sun Mar 22 09:54, no_leak
Sun Mar 22 09:04, no_leak
Sun Mar 22 08:13, no_leak
Sun Mar 22 07:23, no_leak
Sun Mar 22 06:33, no_leak
Sun Mar 22 05:42, no_leak
Sun Mar 22 04:52, no_leak
Sun Mar 22 04:02, no_leak
Sun Mar 22 03:12, no_leak
Sun Mar 22 02:21, no_leak
Sun Mar 22 01:31, no_leak
Sun Mar 22 00:41, no_leak
Sat Mar 21 23:51, no_leak
Sat Mar 21 23:00, no_leak
Sat Mar 21 22:10, no_leak
Sat Mar 21 21:20, no_leak
Sat Mar 21 20:30, no_leak
Sat Mar 21 19:39, no_leak
Sat Mar 21 18:49, no_leak
Sat Mar 21 17:59, no_leak
Sat Mar 21 17:09, no_leak
Sat Mar 21 16:18, no_leak
Sat Mar 21 15:28, no_leak
Sat Mar 21 14:38, no_leak
Sat Mar 21 12:58, no_leak
Sat Mar 21 12:07, no_leak
Sat Mar 21 11:17, no_leak
Sat Mar 21 10:27, no_leak
Sat Mar 21 09:37, no_leak
Sat Mar 21 08:46, no_leak
Sat Mar 21 07:56, no_leak
Sat Mar 21 07:06, no_leak
Sat Mar 21 06:16, no_leak
Sat Mar 21 05:25, no_leak
Sat Mar 21 04:35, no_leak
Sat Mar 21 03:45, no_leak
Sat Mar 21 02:54, no_leak
Sat Mar 21 02:04, no_leak
Sat Mar 21 01:14, no_leak
Sat Mar 21 00:24, no_leak
Fri Mar 20 23:33, no_leak
Fri Mar 20 22:43, no_leak
Fri Mar 20 21:53, no_leak
Fri Mar 20 21:03, no_leak
Fri Mar 20 20:12, no_leak
Fri Mar 20 19:22, no_leak
Fri Mar 20 18:32, no_leak
Fri Mar 20 17:42, no_leak
Fri Mar 20 16:52, no_leak
Fri Mar 20 16:01, no_leak
Fri Mar 20 15:11, no_leak
Fri Mar 20 14:21, no_leak
Fri Mar 20 13:31, no_leak
Fri Mar 20 12:41, no_leak
Fri Mar 20 11:50, no_leak
Fri Mar 20 11:00, no_leak
Fri Mar 20 10:10, no_leak
Fri Mar 20 09:20, no_leak
Fri Mar 20 08:30, no_leak
Fri Mar 20 07:39, no_leak
Fri Mar 20 06:49, no_leak
Fri Mar 20 05:59, no_leak
Fri Mar 20 05:09, no_leak
Fri Mar 20 04:18, no_leak
Fri Mar 20 03:28, no_leak
Fri Mar 20 02:38, no_leak
Fri Mar 20 01:48, no_leak
Fri Mar 20 00:57, no_leak
Fri Mar 20 00:07, no_leak
Thu Mar 19 23:17, no_leak
Thu Mar 19 22:27, no_leak
Thu Mar 19 21:36, no_leak
Thu Mar 19 20:46, no_leak
Thu Mar 19 19:56, no_leak
Thu Mar 19 19:06, no_leak
Thu Mar 19 18:16, no_leak
Thu Mar 19 17:25, no_leak
Thu Mar 19 16:35, no_leak
Thu Mar 19 15:45, no_leak
Thu Mar 19 14:55, no_leak
Thu Mar 19 14:05, no_leak
Thu Mar 19 13:14, no_leak
Thu Mar 19 12:24, no_leak
Thu Mar 19 11:34, no_leak
Thu Mar 19 10:44, no_leak
Thu Mar 19 09:53, no_leak
Thu Mar 19 09:03, no_leak
Thu Mar 19 08:13, no_leak
Thu Mar 19 07:23, no_leak
Thu Mar 19 06:32, no_leak
Thu Mar 19 05:42, no_leak
Thu Mar 19 04:52, no_leak
Thu Mar 19 04:02, no_leak
Thu Mar 19 03:11, no_leak
Thu Mar 19 02:21, no_leak
Thu Mar 19 01:31, no_leak
Thu Mar 19 00:41, no_leak
Wed Mar 18 23:50, no_leak
Wed Mar 18 23:00, no_leak
Wed Mar 18 22:10, no_leak
Wed Mar 18 21:20, no_leak
Wed Mar 18 20:29, no_leak
Wed Mar 18 19:39, no_leak
Wed Mar 18 18:49, no_leak
Wed Mar 18 17:59, no_leak
Wed Mar 18 17:08, no_leak
Wed Mar 18 16:18, no_leak
Wed Mar 18 15:28, no_leak
Wed Mar 18 14:38, no_leak
Wed Mar 18 13:48, no_leak
Wed Mar 18 12:57, no_leak
Wed Mar 18 12:07, no_leak
Wed Mar 18 11:17, no_leak
Wed Mar 18 10:27, no_leak
Wed Mar 18 09:36, no_leak
Wed Mar 18 08:46, no_leak
Wed Mar 18 07:56, no_leak
Wed Mar 18 07:06, no_leak
Wed Mar 18 06:15, no_leak
Wed Mar 18 05:25, no_leak
Wed Mar 18 04:35, no_leak
Wed Mar 18 03:45, no_leak

s9 Front Door
Tue Apr 7 13:31:42, status close

Tue Apr 7 13:31:42, status close
Tue Apr 7 13:31:35, status open
Tue Apr 7 13:27:15, status close
Tue Apr 7 13:26:56, status open
Tue Apr 7 13:16:43, status close
Tue Apr 7 13:15:52, no_close 1m
Tue Apr 7 13:14:53, status open
Tue Apr 7 13:08:30, status close
Tue Apr 7 13:07:39, status open
Tue Apr 7 13:07:34, status close
Tue Apr 7 13:07:19, no_close 1m
Tue Apr 7 13:06:20, status open
Tue Apr 7 11:06:22, status close
Tue Apr 7 11:05:38, status open
Tue Apr 7 10:15:19, status close
Tue Apr 7 09:56:00, no_close 5m
Tue Apr 7 09:51:58, no_close 1m
Tue Apr 7 09:50:58, status open
Mon Apr 6 17:36:14, status close
Mon Apr 6 17:36:11, status open
Mon Apr 6 17:35:49, status close
Mon Apr 6 17:35:46, status open
Mon Apr 6 15:44:27, status close
Mon Apr 6 15:44:16, status open
Mon Apr 6 14:28:53, status close
Mon Apr 6 14:28:46, status open
Mon Apr 6 12:33:47, status close
Mon Apr 6 12:33:16, status open
Mon Apr 6 11:54:44, status close
Mon Apr 6 11:54:39, status open
Mon Apr 6 11:51:25, status close
Mon Apr 6 11:51:08, status open
Mon Apr 6 11:49:50, status close
Mon Apr 6 11:49:47, status open
Mon Apr 6 11:48:10, status close
Mon Apr 6 11:47:45, status open
Sun Apr 5 18:26:36, status close
Sun Apr 5 18:26:32, status open
Sun Apr 5 18:05:25, status close
Sun Apr 5 18:05:22, status open
Sun Apr 5 17:42:19, status close
Sun Apr 5 17:42:17, status open
Sun Apr 5 17:37:11, status close
Sun Apr 5 17:37:04, status open
Sun Apr 5 17:04:02, status close
Sun Apr 5 17:03:59, status open
Sun Apr 5 17:03:15, status close
Sun Apr 5 17:03:12, status open
Sun Apr 5 16:26:10, status close
Sun Apr 5 16:25:56, status open
Sun Apr 5 12:41:02, status close
Sun Apr 5 12:40:59, status open
Sun Apr 5 12:35:05, status close
Sun Apr 5 12:35:03, status open
Sun Apr 5 11:21:46, status close
Sun Apr 5 11:21:31, status open
Sat Apr 4 15:26:54, status close
Sat Apr 4 15:26:53, status open
Sat Apr 4 15:24:52, status close
Sat Apr 4 15:24:42, status open
Sat Apr 4 14:30:25, status close
Sat Apr 4 14:28:52, no_close 1m
Sat Apr 4 14:27:52, status open
Sat Apr 4 14:26:30, status close
Sat Apr 4 14:26:22, status open
Sat Apr 4 11:49:38, status close
Sat Apr 4 11:49:29, status open
Sat Apr 4 11:40:06, status close
Sat Apr 4 11:37:23, no_close 1m
Sat Apr 4 11:36:24, status open
Sat Apr 4 11:08:19, status close
Sat Apr 4 11:06:41, no_close 1m
Sat Apr 4 11:05:40, status open
Sat Apr 4 10:55:07, status close
Sat Apr 4 10:54:45, status open
Sat Apr 4 08:07:39, status close
Sat Apr 4 08:07:08, status open
Fri Apr 3 17:21:16, status close
Fri Apr 3 17:20:33, no_close 1m
Fri Apr 3 17:19:33, status open
Fri Apr 3 16:43:26, status close
Fri Apr 3 16:43:10, no_close 1m
Fri Apr 3 16:42:10, status open
Fri Apr 3 12:23:18, status close
Fri Apr 3 12:23:15, status open
Fri Apr 3 12:22:11, status close
Fri Apr 3 12:21:02, no_close 1m
Fri Apr 3 12:20:03, status open
Fri Apr 3 11:42:28, status close
Fri Apr 3 11:42:23, status open
Thu Apr 2 20:00:47, status close
Thu Apr 2 20:00:14, no_close 1m
Thu Apr 2 19:59:14, status open
Thu Apr 2 15:37:50, status close
Thu Apr 2 15:37:46, status open
Thu Apr 2 15:27:46, status close
Thu Apr 2 15:27:39, status open
Thu Apr 2 14:18:41, status close
Thu Apr 2 14:18:35, status open
Thu Apr 2 12:29:23, status close
Thu Apr 2 12:29:19, status open
Thu Apr 2 11:08:50, status close
Thu Apr 2 11:08:44, status open
Thu Apr 2 09:18:56, status close
Thu Apr 2 09:18:10, no_close 1m
Thu Apr 2 09:17:10, status open
Thu Apr 2 08:07:00, status close
Thu Apr 2 08:06:44, status open
Thu Apr 2 08:06:37, status close
Thu Apr 2 08:06:33, status open
Thu Apr 2 08:06:15, status close
Thu Apr 2 08:06:08, status open
Thu Apr 2 08:05:38, status close
Thu Apr 2 08:05:19, no_close 1m
Thu Apr 2 08:04:20, status open
Wed Apr 1 20:54:54, status close
Wed Apr 1 20:54:54, status open
Wed Apr 1 20:54:52, status close
Wed Apr 1 20:54:52, status open
Wed Apr 1 20:54:48, status close
Wed Apr 1 20:54:45, status open
Wed Apr 1 20:47:56, status close
Wed Apr 1 20:47:55, no_close 1m
Wed Apr 1 20:46:55, status open
Wed Apr 1 20:25:23, status close
Wed Apr 1 20:25:20, status open
Wed Apr 1 20:10:48, status close
Wed Apr 1 20:10:44, status open
Wed Apr 1 19:44:49, status close
Wed Apr 1 19:44:43, no_close 1m
Wed Apr 1 19:43:44, status open
Wed Apr 1 17:54:13, status close
Wed Apr 1 17:54:09, status open
Wed Apr 1 17:52:04, status close
Wed Apr 1 17:51:18, status open
Wed Apr 1 17:50:30, status close
Wed Apr 1 17:50:06, status open
Wed Apr 1 17:49:26, status close
Wed Apr 1 17:48:46, status open
Wed Apr 1 17:24:47, status close
Wed Apr 1 17:24:43, status open
Wed Apr 1 15:40:56, status close
Wed Apr 1 15:40:56, status open
Wed Apr 1 15:40:50, status close
Wed Apr 1 15:39:21, no_close 1m
Wed Apr 1 15:38:21, status open
Wed Apr 1 15:15:51, status close
Wed Apr 1 15:10:35, no_close 5m
Wed Apr 1 15:06:34, no_close 1m
Wed Apr 1 15:05:33, status open
Wed Apr 1 15:05:32, status close
Wed Apr 1 15:03:37, no_close 1m
Wed Apr 1 15:02:37, status open
Wed Apr 1 14:53:31, status close
Wed Apr 1 14:53:30, status open
Wed Apr 1 14:53:29, status close
Wed Apr 1 14:53:27, status open
Wed Apr 1 14:53:25, status close
Wed Apr 1 14:52:56, status open
Wed Apr 1 14:52:23, status close
Wed Apr 1 14:51:55, status close
Wed Apr 1 14:51:51, status open
Wed Apr 1 14:50:47, status close
Wed Apr 1 14:50:42, status open
Wed Apr 1 14:42:24, status close
Wed Apr 1 14:41:27, no_close 1m
Wed Apr 1 14:40:26, status open
Wed Apr 1 14:37:10, status close
Wed Apr 1 14:37:06, status open
Wed Apr 1 14:35:46, status close
Wed Apr 1 14:35:28, status open
Wed Apr 1 14:35:09, status close
Wed Apr 1 14:35:07, status open
Wed Apr 1 13:45:59, status close
Wed Apr 1 13:45:54, status open
Wed Apr 1 13:38:34, status close
Wed Apr 1 13:38:30, status open
Wed Apr 1 13:34:48, status close
Wed Apr 1 13:34:48, status open
Wed Apr 1 13:34:47, status close
Wed Apr 1 13:34:43, status open
Wed Apr 1 08:06:05, status close
Wed Apr 1 08:06:02, status open
Wed Apr 1 07:40:57, status close
Wed Apr 1 07:40:54, status open
Tue Mar 31 19:07:10, status close
Tue Mar 31 19:07:07, status open
Tue Mar 31 19:02:59, status close
Tue Mar 31 19:02:49, status open
Tue Mar 31 16:49:17, status close
Tue Mar 31 16:49:11, status open
Tue Mar 31 16:34:06, status close
Tue Mar 31 16:34:03, status open
Tue Mar 31 15:36:41, status close
Tue Mar 31 15:35:54, status open
Tue Mar 31 15:34:24, status close
Tue Mar 31 15:34:12, status open
Tue Mar 31 15:03:05, status close
Tue Mar 31 15:03:00, status open
Tue Mar 31 14:40:14, status close
Tue Mar 31 14:40:05, status open
Tue Mar 31 14:33:13, status close
Tue Mar 31 14:33:07, status open
Tue Mar 31 14:09:17, status close
Tue Mar 31 14:09:09, status open
Tue Mar 31 12:16:39, status close
Tue Mar 31 12:15:09, no_close 5m
Tue Mar 31 12:11:06, no_close 1m
Tue Mar 31 12:10:07, status open
Tue Mar 31 10:53:08, status close
Tue Mar 31 10:53:07, status open
Tue Mar 31 10:53:04, status close
Tue Mar 31 10:53:03, status open
Tue Mar 31 10:53:02, status close
Tue Mar 31 10:53:02, status open
Tue Mar 31 10:27:22, status close
Tue Mar 31 10:27:19, status open
Tue Mar 31 10:26:42, status close
Tue Mar 31 10:26:39, status open
Tue Mar 31 10:19:20, status close
Tue Mar 31 10:19:17, status open
Tue Mar 31 10:14:59, status close
Tue Mar 31 10:14:55, status open
Tue Mar 31 09:55:56, status close
Tue Mar 31 09:55:14, no_close 1m
Tue Mar 31 09:54:14, status open
Tue Mar 31 09:31:16, status close
Tue Mar 31 09:22:52, no_close 5m
Tue Mar 31 09:18:50, no_close 1m
Tue Mar 31 09:17:50, status open
Mon Mar 30 20:37:16, status close
Mon Mar 30 20:35:57, no_close 1m
Mon Mar 30 20:34:57, status open
Mon Mar 30 20:06:43, status close
Mon Mar 30 20:06:40, status open
Mon Mar 30 20:06:23, status close
Mon Mar 30 20:06:21, status open
Mon Mar 30 20:01:45, status close
Mon Mar 30 20:01:42, status open
Mon Mar 30 19:47:42, status close
Mon Mar 30 19:47:39, status open
Mon Mar 30 19:45:56, status close
Mon Mar 30 19:45:40, status open
Mon Mar 30 19:42:07, status close
Mon Mar 30 19:42:03, status open
Mon Mar 30 19:35:00, status close
Mon Mar 30 19:34:56, status open
Mon Mar 30 18:23:49, status close
Mon Mar 30 18:23:45, status open
Mon Mar 30 18:19:52, status close
Mon Mar 30 18:19:26, no_close 1m
Mon Mar 30 18:18:27, status open
Mon Mar 30 16:43:07, status close
Mon Mar 30 16:42:57, status open
Mon Mar 30 16:14:15, status close
Mon Mar 30 16:14:12, status open
Mon Mar 30 14:57:50, status close
Mon Mar 30 14:55:51, no_close 1m
Mon Mar 30 14:54:51, status open
Mon Mar 30 14:43:30, status close
Mon Mar 30 14:43:28, status open
Mon Mar 30 14:23:40, status close
Mon Mar 30 14:23:34, status open
Mon Mar 30 13:48:37, status close
Mon Mar 30 13:39:05, no_close 5m
Mon Mar 30 13:35:04, no_close 1m
Mon Mar 30 13:34:04, status open
Mon Mar 30 13:33:29, status close
Mon Mar 30 13:33:11, no_close 1m
Mon Mar 30 13:32:12, status open
Mon Mar 30 12:27:52, status close
Mon Mar 30 12:27:41, status open
Mon Mar 30 12:22:50, status close
Mon Mar 30 12:22:45, status open
Mon Mar 30 11:57:39, status close
Mon Mar 30 11:57:34, status open
Mon Mar 30 11:53:48, status close
Mon Mar 30 11:50:57, no_close 1m
Mon Mar 30 11:49:57, status open
Mon Mar 30 11:49:11, status close
Mon Mar 30 11:48:20, status open
Mon Mar 30 11:47:47, status close
Mon Mar 30 11:44:39, no_close 1m
Mon Mar 30 11:43:39, status open
Mon Mar 30 11:43:38, status close
Mon Mar 30 11:37:33, no_close 5m
Mon Mar 30 11:33:31, no_close 1m
Mon Mar 30 11:32:32, status open
Mon Mar 30 10:42:28, status close
Mon Mar 30 10:42:11, status open
Mon Mar 30 08:53:53, status close
Mon Mar 30 08:53:46, status open
Mon Mar 30 08:39:35, status close
Mon Mar 30 08:39:30, status open
Mon Mar 30 08:26:13, status close
Mon Mar 30 08:26:02, status open
Mon Mar 30 08:18:27, status close
Mon Mar 30 08:18:18, status open
Mon Mar 30 08:17:33, status close
Mon Mar 30 08:17:27, status open
Mon Mar 30 08:15:21, status close
Mon Mar 30 08:15:17, status open
Mon Mar 30 07:54:47, status close
Mon Mar 30 07:54:44, status open
Mon Mar 30 07:51:15, status close
Mon Mar 30 07:51:12, status open
Mon Mar 30 07:50:06, status close
Mon Mar 30 07:50:03, status open
Sun Mar 29 18:23:09, status close
Sun Mar 29 18:23:05, status open
Sun Mar 29 17:56:19, status close
Sun Mar 29 17:56:15, status open
Sun Mar 29 17:44:51, status close
Sun Mar 29 17:44:23, status open
Sun Mar 29 17:37:12, status close
Sun Mar 29 17:37:09, status open
Sun Mar 29 16:13:29, status close
Sun Mar 29 16:10:47, no_close 1m
Sun Mar 29 16:09:47, status open
Sun Mar 29 16:09:42, status close
Sun Mar 29 16:09:32, status open
Sun Mar 29 15:30:06, status close
Sun Mar 29 15:29:11, status open
Sun Mar 29 15:23:06, status close
Sun Mar 29 15:22:55, status open
Sun Mar 29 15:21:50, status close
Sun Mar 29 15:21:46, status open
Sun Mar 29 13:15:22, status close
Sun Mar 29 13:15:18, status open
Sun Mar 29 12:56:47, status close
Sun Mar 29 12:56:18, status open
Sat Mar 28 20:46:48, status close
Sat Mar 28 20:46:30, status open
Sat Mar 28 16:15:39, status close
Sat Mar 28 16:10:14, no_close 5m
Sat Mar 28 16:06:14, no_close 1m
Sat Mar 28 16:05:13, status open
Sat Mar 28 15:47:59, status close
Sat Mar 28 15:47:47, status open
Sat Mar 28 15:43:58, status close
Sat Mar 28 15:43:49, no_close 1m
Sat Mar 28 15:42:49, status open
Sat Mar 28 15:07:09, status close
Sat Mar 28 15:06:53, no_close 1m
Sat Mar 28 15:05:54, status open
Sat Mar 28 13:25:03, status close
Sat Mar 28 13:24:59, status open
Sat Mar 28 13:09:03, status close
Sat Mar 28 13:09:01, status open
Sat Mar 28 08:46:28, status close
Sat Mar 28 08:45:55, status open
Fri Mar 27 16:03:01, status close
Fri Mar 27 16:02:52, status open
Fri Mar 27 15:29:08, status close
Fri Mar 27 15:28:20, no_close 1m
Fri Mar 27 15:27:20, status open
Fri Mar 27 14:53:58, status close
Fri Mar 27 14:53:24, no_close 1m
Fri Mar 27 14:52:24, status open
Fri Mar 27 14:19:28, status close
Fri Mar 27 14:19:25, status open
Fri Mar 27 14:08:42, status close
Fri Mar 27 14:08:35, no_close 1m
Fri Mar 27 14:07:35, status open
Fri Mar 27 13:24:34, status close
Fri Mar 27 13:24:29, status open
Fri Mar 27 12:16:39, status close
Fri Mar 27 12:16:31, status open
Fri Mar 27 11:17:00, status close
Fri Mar 27 11:16:57, status open
Fri Mar 27 11:15:58, status close
Fri Mar 27 11:15:50, status open
Fri Mar 27 09:54:40, status close
Fri Mar 27 09:54:37, status open
Fri Mar 27 09:52:45, status close
Fri Mar 27 09:52:41, status open
Fri Mar 27 09:11:35, status close
Fri Mar 27 09:11:34, status open
Fri Mar 27 09:11:12, status close
Fri Mar 27 09:11:09, status open
Fri Mar 27 09:10:21, status close
Fri Mar 27 09:10:13, status open
Thu Mar 26 20:55:13, status close
Thu Mar 26 20:55:10, status open
Thu Mar 26 20:54:12, status close
Thu Mar 26 20:54:08, status open
Thu Mar 26 20:01:14, status close
Thu Mar 26 19:57:32, no_close 1m
Thu Mar 26 19:56:33, status open
Thu Mar 26 17:06:32, status close
Thu Mar 26 17:06:28, status open
Thu Mar 26 16:48:13, status open
Thu Mar 26 16:38:24, status close
Thu Mar 26 16:38:09, status open
Thu Mar 26 16:33:06, status close
Thu Mar 26 16:33:02, status open
Thu Mar 26 16:01:39, status close
Thu Mar 26 16:01:19, status open
Thu Mar 26 15:21:41, status close
Thu Mar 26 15:21:40, status open
Thu Mar 26 15:21:37, status close
Thu Mar 26 15:21:33, status open
Thu Mar 26 15:07:35, status close
Thu Mar 26 15:05:54, no_close 1m
Thu Mar 26 15:04:54, status open
Thu Mar 26 14:19:38, status close
Thu Mar 26 14:19:26, status open
Thu Mar 26 14:18:14, status close
Thu Mar 26 14:17:31, status open
Thu Mar 26 14:08:20, status close
Thu Mar 26 14:08:17, status open
Thu Mar 26 13:50:40, status close
Thu Mar 26 13:50:37, status open
Thu Mar 26 09:39:08, status close
Thu Mar 26 09:38:44, status open
Thu Mar 26 09:38:34, status close
Thu Mar 26 09:38:25, status open
Wed Mar 25 17:51:37, status close
Wed Mar 25 17:51:29, status open
Wed Mar 25 17:46:20, status close
Wed Mar 25 17:39:20, no_close 5m
Wed Mar 25 17:35:21, no_close 1m
Wed Mar 25 17:34:21, status open
Wed Mar 25 17:25:37, status close
Wed Mar 25 16:51:48, no_close 5m
Wed Mar 25 16:47:46, no_close 1m
Wed Mar 25 16:46:46, status open
Wed Mar 25 16:38:21, status close
Wed Mar 25 16:38:10, status open
Wed Mar 25 16:32:59, status close
Wed Mar 25 16:31:20, no_close 1m
Wed Mar 25 16:30:19, status open
Wed Mar 25 15:50:44, status close
Wed Mar 25 15:50:38, no_close 1m
Wed Mar 25 15:49:38, status open
Wed Mar 25 15:46:55, status close
Wed Mar 25 15:46:51, status open
Wed Mar 25 15:42:36, status close
Wed Mar 25 15:42:34, status open
Wed Mar 25 15:41:35, status close
Wed Mar 25 15:41:20, status open
Wed Mar 25 13:24:52, status close
Wed Mar 25 13:24:38, status open
Wed Mar 25 12:04:15, status close
Wed Mar 25 12:04:13, status open
Wed Mar 25 12:02:29, status close
Wed Mar 25 12:02:27, status open
Wed Mar 25 11:49:08, status close
Wed Mar 25 11:49:01, status open
Wed Mar 25 11:47:56, status close
Wed Mar 25 11:47:52, status open
Wed Mar 25 11:45:31, status close
Wed Mar 25 11:45:29, status open
Wed Mar 25 11:32:28, status close
Wed Mar 25 11:32:22, status open
Wed Mar 25 11:30:49, status close
Wed Mar 25 11:30:44, status open
Wed Mar 25 11:26:05, status close
Wed Mar 25 11:26:02, status open
Wed Mar 25 11:16:52, status close
Wed Mar 25 11:16:46, status open
Wed Mar 25 11:16:24, status close
Wed Mar 25 11:16:15, status open
Wed Mar 25 10:20:57, status close
Wed Mar 25 10:20:53, status open
Wed Mar 25 09:25:31, status close
Wed Mar 25 09:25:28, status open
Wed Mar 25 09:06:17, status close
Wed Mar 25 09:06:12, status open
Wed Mar 25 08:45:10, status close
Wed Mar 25 08:44:41, status open
Tue Mar 24 18:50:14, status close
Tue Mar 24 18:50:09, status open
Tue Mar 24 18:42:45, status close
Tue Mar 24 18:42:40, status open
Tue Mar 24 17:45:48, status close
Tue Mar 24 17:45:44, status open
Tue Mar 24 17:43:49, status close
Tue Mar 24 17:43:47, status open
Tue Mar 24 17:34:28, status close
Tue Mar 24 17:34:25, status open
Tue Mar 24 17:30:02, status close
Tue Mar 24 17:29:58, status open
Tue Mar 24 17:23:37, status close
Tue Mar 24 17:23:34, status open
Tue Mar 24 17:15:18, status close
Tue Mar 24 17:15:16, status open
Tue Mar 24 17:15:05, status close
Tue Mar 24 17:15:00, status open
Tue Mar 24 16:14:20, status close
Tue Mar 24 16:14:17, status open
Tue Mar 24 16:03:58, status close
Tue Mar 24 16:03:54, status open
Tue Mar 24 16:01:52, status close
Tue Mar 24 16:01:41, status open
Tue Mar 24 15:37:43, status close
Tue Mar 24 15:37:40, status open
Tue Mar 24 15:21:15, status close
Tue Mar 24 15:21:09, status open
Tue Mar 24 15:18:30, status close
Tue Mar 24 15:16:42, no_close 1m
Tue Mar 24 15:15:41, status open
Tue Mar 24 14:53:45, status close
Tue Mar 24 14:53:41, status open
Mon Mar 23 16:56:14, status close
Mon Mar 23 16:56:12, status open
Mon Mar 23 16:16:36, status close
Mon Mar 23 16:16:34, status open
Mon Mar 23 14:43:21, status close
Mon Mar 23 14:43:19, status open
Mon Mar 23 14:40:06, status close
Mon Mar 23 14:39:37, status open
Mon Mar 23 14:10:50, status close
Mon Mar 23 14:10:48, status open
Mon Mar 23 11:15:33, status close
Mon Mar 23 11:15:29, status open
Mon Mar 23 10:52:14, status close
Mon Mar 23 10:52:11, status open

Contact: HomeGuardMi at Gmail.com     HG ver Nov-17